[[{"header":{"parameterUnit":"m.s-1","parameterCategory":1,"la1":30.6,"la2":29.2853,"lo1":-89.7004,"lo2":-87.6739,"dy":0.0162,"dx":0.0183,"nx":112,"ny":82,"refTime":"2023-03-27T06:00:00:Z","depth":0,"parameterNumber":2,"parameterNumberName":"U-component_of_WINDS"},"data":[0.0,0.0,0.0,0.0,0.0,0.0,0.0,0.0,0.0,0.0,0.0,0.0,0.0,0.0,0.0,0.0,0.0,0.0,0.0,0.0,0.0,0.0,0.0,0.0,0.0,0.0,0.0,0.0,0.0,0.0,0.0,0.0,0.0,0.0,0.0,0.0,0.0,0.0,0.0,0.0,0.0,0.0,0.0,0.0,0.0,0.0,0.0,0.0,0.0,0.0,0.0,0.0,0.0,0.0,0.0,0.0,0.0,0.0,0.0,0.0,0.0,0.0,0.0,0.0,0.0,0.0,0.0,0.0,0.0,0.0,0.0,0.0,0.0,0.0,0.0,0.0,0.0,0.0,0.0,0.0,0.0,0.0,0.0,0.0,0.0,0.0,0.0,0.0,0.0,0.0,-4.803,-4.7985,-4.9723,-5.0294,-4.876,-4.793,-4.6874,-4.5222,0.0,0.0,0.0,0.0,0.0,0.0,0.0,0.0,0.0,0.0,0.0,0.0,0.0,0.0,0.0,0.0,0.0,0.0,0.0,0.0,0.0,0.0,0.0,0.0,0.0,0.0,0.0,0.0,0.0,0.0,0.0,0.0,0.0,0.0,0.0,0.0,0.0,0.0,0.0,0.0,0.0,0.0,0.0,0.0,0.0,0.0,0.0,0.0,0.0,0.0,0.0,0.0,0.0,0.0,0.0,0.0,0.0,0.0,0.0,0.0,0.0,0.0,0.0,0.0,0.0,0.0,0.0,0.0,0.0,0.0,0.0,0.0,0.0,0.0,0.0,0.0,0.0,0.0,0.0,0.0,0.0,0.0,0.0,0.0,0.0,0.0,0.0,0.0,0.0,0.0,0.0,0.0,0.0,0.0,0.0,0.0,0.0,0.0,0.0,0.0,0.0,0.0,0.0,0.0,-4.6762,-4.922,-4.9742,-4.9455,-4.8171,-4.6588,-4.5363,-4.4496,0.0,0.0,0.0,0.0,0.0,0.0,0.0,0.0,0.0,0.0,0.0,0.0,0.0,0.0,0.0,0.0,0.0,0.0,0.0,0.0,0.0,0.0,0.0,0.0,0.0,0.0,0.0,0.0,0.0,0.0,0.0,0.0,0.0,0.0,0.0,0.0,0.0,0.0,0.0,0.0,0.0,0.0,0.0,0.0,0.0,0.0,0.0,0.0,0.0,0.0,0.0,0.0,0.0,0.0,0.0,0.0,0.0,0.0,0.0,0.0,0.0,0.0,0.0,0.0,0.0,0.0,0.0,0.0,0.0,0.0,0.0,0.0,0.0,0.0,0.0,0.0,0.0,0.0,0.0,0.0,0.0,0.0,0.0,0.0,0.0,0.0,0.0,0.0,0.0,0.0,0.0,0.0,0.0,0.0,0.0,0.0,0.0,0.0,0.0,0.0,0.0,0.0,0.0,-4.784,-4.876,-5.1106,-5.1236,-5.0354,-4.8222,-4.72,-4.6165,-4.4937,-4.5125,0.0,0.0,0.0,0.0,0.0,0.0,0.0,0.0,0.0,0.0,0.0,0.0,0.0,0.0,0.0,0.0,0.0,0.0,0.0,0.0,0.0,0.0,0.0,0.0,0.0,0.0,0.0,0.0,0.0,0.0,0.0,0.0,0.0,0.0,0.0,0.0,0.0,0.0,0.0,0.0,0.0,0.0,0.0,0.0,0.0,0.0,0.0,0.0,0.0,0.0,0.0,0.0,0.0,0.0,0.0,0.0,0.0,0.0,0.0,0.0,0.0,0.0,0.0,0.0,0.0,0.0,0.0,0.0,0.0,0.0,0.0,0.0,0.0,0.0,0.0,0.0,0.0,0.0,0.0,0.0,0.0,0.0,0.0,0.0,0.0,0.0,0.0,0.0,0.0,0.0,0.0,0.0,0.0,0.0,0.0,0.0,0.0,0.0,0.0,0.0,0.0,0.0,-4.9528,-5.0396,-5.1557,-5.1565,-5.0489,-4.7965,-4.7289,-4.6593,-4.5455,-4.5304,0.0,0.0,0.0,0.0,0.0,0.0,0.0,0.0,0.0,0.0,0.0,0.0,0.0,0.0,0.0,0.0,0.0,0.0,0.0,0.0,0.0,0.0,0.0,0.0,0.0,0.0,0.0,0.0,0.0,0.0,0.0,0.0,0.0,0.0,0.0,0.0,0.0,0.0,0.0,0.0,0.0,0.0,0.0,0.0,0.0,0.0,0.0,0.0,0.0,0.0,0.0,0.0,0.0,0.0,0.0,0.0,0.0,0.0,0.0,0.0,0.0,0.0,0.0,0.0,0.0,0.0,0.0,0.0,0.0,0.0,0.0,0.0,0.0,0.0,0.0,0.0,0.0,0.0,0.0,0.0,0.0,0.0,0.0,0.0,0.0,0.0,0.0,0.0,0.0,0.0,0.0,0.0,0.0,0.0,0.0,0.0,0.0,0.0,0.0,0.0,0.0,0.0,-4.8084,-4.9599,-4.8953,-4.9001,-4.8402,-4.6841,-4.5354,-4.489,-4.5619,-4.547,0.0,0.0,0.0,0.0,0.0,0.0,0.0,0.0,0.0,0.0,0.0,0.0,0.0,0.0,0.0,0.0,0.0,0.0,0.0,0.0,0.0,0.0,0.0,0.0,0.0,0.0,0.0,0.0,0.0,0.0,0.0,0.0,0.0,0.0,0.0,0.0,0.0,0.0,0.0,0.0,0.0,0.0,0.0,0.0,0.0,0.0,0.0,0.0,0.0,0.0,0.0,0.0,0.0,0.0,0.0,0.0,0.0,0.0,0.0,0.0,0.0,0.0,0.0,0.0,0.0,0.0,0.0,0.0,0.0,0.0,0.0,0.0,0.0,0.0,0.0,0.0,0.0,0.0,0.0,0.0,0.0,0.0,0.0,0.0,0.0,0.0,0.0,0.0,0.0,0.0,0.0,0.0,0.0,0.0,0.0,0.0,0.0,0.0,0.0,0.0,0.0,0.0,-4.8169,-4.9237,-4.9504,-4.9095,-4.8262,-4.6888,-4.5769,-4.5035,-4.4839,0.0,0.0,0.0,0.0,0.0,0.0,0.0,0.0,0.0,0.0,0.0,0.0,0.0,0.0,0.0,0.0,0.0,0.0,0.0,0.0,0.0,0.0,0.0,0.0,0.0,0.0,0.0,0.0,0.0,0.0,0.0,0.0,0.0,0.0,0.0,0.0,0.0,0.0,0.0,0.0,0.0,0.0,0.0,0.0,0.0,0.0,0.0,0.0,0.0,0.0,0.0,0.0,0.0,0.0,0.0,0.0,0.0,0.0,0.0,0.0,0.0,0.0,0.0,0.0,0.0,0.0,0.0,0.0,0.0,0.0,0.0,0.0,0.0,0.0,0.0,0.0,0.0,0.0,0.0,0.0,0.0,0.0,0.0,0.0,0.0,0.0,0.0,0.0,0.0,0.0,0.0,0.0,0.0,0.0,0.0,0.0,0.0,0.0,0.0,0.0,0.0,0.0,-4.6827,-4.7981,-4.8732,-4.8887,-4.8388,-4.7559,-4.617,-4.5353,-4.4701,-4.4479,0.0,0.0,0.0,0.0,0.0,0.0,0.0,0.0,0.0,0.0,0.0,0.0,0.0,0.0,0.0,0.0,0.0,0.0,0.0,0.0,0.0,0.0,0.0,0.0,0.0,0.0,0.0,0.0,0.0,0.0,0.0,0.0,0.0,0.0,0.0,0.0,0.0,0.0,0.0,0.0,0.0,0.0,0.0,0.0,0.0,0.0,0.0,0.0,0.0,0.0,0.0,0.0,0.0,0.0,0.0,0.0,0.0,0.0,0.0,0.0,0.0,0.0,0.0,0.0,0.0,0.0,0.0,0.0,0.0,0.0,0.0,0.0,0.0,0.0,0.0,0.0,0.0,0.0,0.0,0.0,0.0,0.0,0.0,0.0,0.0,0.0,0.0,0.0,0.0,0.0,0.0,0.0,0.0,0.0,0.0,0.0,0.0,0.0,0.0,0.0,0.0,0.0,-4.5289,-4.725,-4.7996,-4.6466,-4.6504,-4.5963,-4.4443,-4.3718,-4.3708,0.0,0.0,0.0,0.0,0.0,0.0,0.0,0.0,0.0,0.0,0.0,0.0,0.0,0.0,0.0,0.0,0.0,0.0,0.0,0.0,0.0,0.0,0.0,0.0,0.0,0.0,0.0,0.0,0.0,0.0,0.0,0.0,0.0,0.0,0.0,0.0,0.0,0.0,0.0,0.0,0.0,0.0,0.0,0.0,0.0,0.0,0.0,0.0,0.0,0.0,0.0,0.0,0.0,0.0,0.0,0.0,0.0,0.0,0.0,0.0,0.0,0.0,0.0,0.0,0.0,0.0,0.0,0.0,0.0,0.0,0.0,0.0,0.0,0.0,0.0,0.0,0.0,0.0,0.0,0.0,0.0,0.0,0.0,0.0,0.0,0.0,0.0,0.0,0.0,0.0,0.0,0.0,0.0,0.0,0.0,0.0,0.0,0.0,0.0,0.0,0.0,0.0,0.0,-4.5289,-4.6695,-4.7367,-4.6396,-4.5943,-4.5348,-4.4377,-4.3718,-4.3419,-4.3708,0.0,0.0,0.0,0.0,0.0,0.0,0.0,0.0,0.0,0.0,0.0,0.0,0.0,0.0,0.0,0.0,0.0,0.0,0.0,0.0,0.0,0.0,0.0,0.0,0.0,0.0,0.0,0.0,0.0,0.0,0.0,0.0,0.0,0.0,0.0,0.0,0.0,0.0,0.0,0.0,0.0,0.0,0.0,0.0,0.0,0.0,0.0,0.0,0.0,0.0,0.0,0.0,0.0,0.0,0.0,0.0,0.0,0.0,0.0,0.0,0.0,0.0,0.0,0.0,0.0,0.0,0.0,0.0,0.0,0.0,0.0,0.0,0.0,0.0,0.0,0.0,0.0,0.0,0.0,0.0,0.0,0.0,0.0,0.0,0.0,0.0,0.0,0.0,0.0,0.0,0.0,0.0,0.0,0.0,0.0,0.0,0.0,0.0,0.0,0.0,0.0,0.0,-4.5334,-4.6247,-4.6651,-4.5978,-4.5304,-4.4631,-4.3988,-4.3569,-4.3329,-4.3329,0.0,0.0,0.0,0.0,0.0,0.0,0.0,0.0,0.0,0.0,0.0,0.0,0.0,0.0,0.0,0.0,0.0,0.0,0.0,0.0,0.0,0.0,0.0,0.0,0.0,0.0,0.0,0.0,0.0,0.0,0.0,0.0,0.0,0.0,0.0,0.0,0.0,0.0,0.0,0.0,0.0,0.0,0.0,0.0,0.0,0.0,0.0,0.0,0.0,0.0,0.0,0.0,0.0,0.0,0.0,0.0,0.0,0.0,0.0,0.0,0.0,0.0,0.0,0.0,0.0,0.0,0.0,0.0,0.0,0.0,0.0,0.0,0.0,0.0,0.0,0.0,0.0,0.0,0.0,0.0,0.0,0.0,0.0,0.0,0.0,0.0,0.0,0.0,0.0,0.0,0.0,0.0,0.0,0.0,0.0,0.0,0.0,0.0,0.0,0.0,0.0,0.0,-4.5364,-4.5843,-4.5963,-4.5274,-4.4661,-4.4047,-4.3389,-4.3329,-4.3329,-4.3329,0.0,0.0,0.0,0.0,0.0,0.0,0.0,0.0,0.0,0.0,0.0,0.0,0.0,0.0,0.0,0.0,0.0,0.0,0.0,0.0,0.0,0.0,0.0,0.0,0.0,0.0,0.0,0.0,0.0,0.0,0.0,0.0,0.0,0.0,0.0,0.0,0.0,0.0,0.0,0.0,0.0,0.0,0.0,0.0,0.0,0.0,0.0,0.0,0.0,0.0,0.0,0.0,0.0,0.0,0.0,0.0,0.0,0.0,0.0,0.0,-4.1981,-4.1393,0.0,0.0,0.0,0.0,0.0,0.0,0.0,0.0,0.0,0.0,0.0,0.0,0.0,0.0,0.0,0.0,0.0,0.0,0.0,0.0,0.0,0.0,0.0,0.0,0.0,0.0,0.0,0.0,0.0,0.0,0.0,0.0,0.0,0.0,0.0,0.0,0.0,0.0,0.0,0.0,-4.5244,-4.5424,-4.5259,-4.4586,-4.4407,-4.4047,-4.3389,-4.3329,-4.3329,-4.3329,-4.3943,0.0,0.0,0.0,0.0,0.0,0.0,0.0,0.0,0.0,0.0,0.0,0.0,0.0,0.0,0.0,0.0,0.0,0.0,0.0,0.0,0.0,0.0,0.0,0.0,0.0,0.0,0.0,0.0,0.0,0.0,0.0,0.0,0.0,0.0,0.0,0.0,0.0,0.0,0.0,0.0,0.0,0.0,0.0,0.0,0.0,0.0,0.0,0.0,0.0,0.0,0.0,0.0,0.0,0.0,0.0,0.0,0.0,0.0,0.0,-4.2834,-4.2317,0.0,0.0,0.0,0.0,0.0,0.0,0.0,0.0,0.0,0.0,0.0,0.0,0.0,0.0,0.0,0.0,0.0,0.0,0.0,0.0,0.0,0.0,0.0,0.0,0.0,0.0,0.0,0.0,0.0,0.0,0.0,0.0,0.0,0.0,0.0,0.0,0.0,0.0,0.0,0.0,-4.3883,-4.4152,-4.4227,-4.3883,-4.3838,-4.3703,-4.3359,-4.3329,-4.3329,-4.3329,-4.3658,0.0,0.0,0.0,0.0,0.0,0.0,0.0,0.0,0.0,0.0,0.0,0.0,0.0,0.0,0.0,0.0,0.0,0.0,0.0,0.0,0.0,0.0,0.0,0.0,0.0,0.0,0.0,0.0,0.0,0.0,0.0,0.0,0.0,0.0,0.0,0.0,0.0,0.0,0.0,0.0,0.0,0.0,0.0,0.0,0.0,0.0,0.0,0.0,0.0,0.0,0.0,0.0,0.0,-4.1393,-4.211,-4.2585,-4.271,-4.3096,-4.3628,-4.3628,-4.3295,-4.2772,-4.2772,0.0,0.0,0.0,0.0,0.0,0.0,0.0,0.0,0.0,0.0,0.0,0.0,0.0,0.0,0.0,0.0,0.0,0.0,0.0,0.0,0.0,0.0,-4.3045,-4.3045,-4.2521,-4.2312,-4.3389,0.0,0.0,0.0,0.0,0.0,0.0,0.0,0.0,0.0,0.0,0.0,-4.2417,-4.2731,-4.303,-4.315,-4.3165,-4.321,-4.3329,-4.3329,-4.3329,-4.3329,-4.3329,-4.3584,0.0,0.0,0.0,0.0,0.0,0.0,0.0,0.0,0.0,0.0,0.0,0.0,0.0,0.0,0.0,0.0,0.0,0.0,0.0,0.0,0.0,0.0,0.0,0.0,0.0,0.0,0.0,0.0,0.0,0.0,0.0,0.0,-3.6053,-3.6132,0.0,0.0,0.0,0.0,0.0,0.0,0.0,0.0,0.0,0.0,0.0,0.0,0.0,-4.1327,-4.1327,-4.2045,-4.2045,-4.1327,-4.2694,-4.3035,-4.2648,-4.3174,-4.3509,-4.3628,-4.3628,0.0,-4.3492,-4.3492,0.0,0.0,0.0,0.0,0.0,0.0,0.0,0.0,0.0,0.0,0.0,0.0,0.0,0.0,0.0,0.0,0.0,0.0,0.0,0.0,0.0,0.0,-4.1639,-4.1639,-4.1145,-4.0711,-4.0876,-4.2192,-4.3389,-4.3554,-4.3449,-4.3389,0.0,0.0,0.0,0.0,0.0,0.0,-4.2297,-4.1938,-4.1848,-4.2432,-4.2491,-4.2716,-4.3284,-4.3329,-4.3329,-4.3329,-4.3329,-4.3374,-4.3464,-4.3928,0.0,0.0,0.0,0.0,0.0,0.0,0.0,0.0,0.0,0.0,0.0,0.0,0.0,0.0,0.0,0.0,0.0,0.0,0.0,0.0,0.0,0.0,0.0,0.0,0.0,0.0,0.0,0.0,0.0,-3.7204,-3.7601,-3.7814,-3.8069,-3.8368,0.0,0.0,0.0,0.0,0.0,0.0,0.0,0.0,0.0,-4.1965,-4.2045,-4.2126,-4.2126,-4.2834,-4.2834,-4.2126,-4.3113,-4.3432,-4.3174,-4.3492,-4.3628,-4.3628,-4.3628,-4.3628,-4.3628,-4.3628,-4.3628,-4.3628,0.0,0.0,0.0,0.0,-4.3432,-4.3035,-4.238,-4.2126,-4.19,-4.0816,0.0,0.0,0.0,0.0,0.0,0.0,0.0,-4.1294,-4.0935,-4.0831,-4.0726,-4.0367,-4.0053,-3.9843,-3.9843,-4.0531,-4.1354,-4.2102,-4.1639,-4.1384,-4.2132,-4.1399,0.0,0.0,0.0,-4.0382,-4.0666,-4.0786,-4.0935,-4.1235,-4.1923,-4.2476,-4.2761,-4.3135,-4.3329,-4.3329,-4.3329,-4.3329,-4.3329,-4.3614,-4.3763,0.0,0.0,0.0,0.0,0.0,0.0,0.0,0.0,0.0,0.0,0.0,0.0,0.0,0.0,0.0,0.0,0.0,0.0,0.0,0.0,0.0,0.0,0.0,0.0,0.0,0.0,0.0,0.0,-3.8531,-3.9147,-3.9451,-3.9364,-3.955,0.0,0.0,0.0,0.0,0.0,0.0,-4.1787,-4.1917,-4.2317,-4.2851,-4.2851,-4.2851,-4.2851,-4.3372,-4.3372,-4.2834,-4.3355,-4.3628,-4.3628,-4.3628,-4.3628,-4.3628,-4.3628,-4.3628,-4.3628,-4.3628,-4.3628,-4.3628,-4.3628,-4.3628,-4.3628,-4.3628,-4.3628,-4.3492,-4.2834,-4.2459,-4.2126,-4.0873,-4.0339,-4.0182,-4.0139,0.0,0.0,0.0,0.0,-4.0771,-4.0277,-4.0142,-4.0023,-3.9529,-3.9424,-3.9424,-3.9424,-3.9424,-3.9709,-4.0681,-4.0083,-3.9723,-4.0711,-4.0068,0.0,-3.9424,-3.9424,-3.9424,-3.9424,-3.9843,-4.0217,-4.0382,-4.1265,-4.1938,-4.2087,-4.2701,-4.309,-4.309,-4.324,-4.3329,-4.3329,-4.3329,-4.3329,-4.3329,0.0,0.0,0.0,0.0,0.0,0.0,0.0,0.0,0.0,0.0,0.0,0.0,0.0,0.0,0.0,0.0,0.0,0.0,0.0,0.0,0.0,0.0,0.0,0.0,0.0,0.0,0.0,0.0,0.0,-4.0409,-4.0409,0.0,0.0,0.0,0.0,-4.1459,-4.211,-4.2522,-4.2522,-4.3174,-4.3492,-4.3568,-4.3568,-4.3568,-4.3568,-4.3552,-4.3552,-4.3568,-4.3552,-4.3628,-4.3628,-4.3628,-4.3628,-4.3628,-4.3628,-4.3628,-4.3628,-4.3628,-4.3628,-4.3628,-4.3628,-4.3628,-4.3628,-4.3628,-4.3628,-4.3492,-4.2834,-4.2126,-4.1459,-4.0737,-4.0021,-3.9424,-3.9454,-3.9484,0.0,0.0,-3.9514,-3.9514,-3.9484,-3.9469,-3.9454,-3.9424,-3.9424,-3.9424,-3.9424,-3.9424,-3.9439,-3.9514,-3.9469,-3.9439,-3.9514,0.0,-3.9424,-3.9424,-3.9424,-3.9424,-3.9424,-3.9454,-3.9709,-4.0337,-4.0457,-4.0756,-4.1384,-4.2028,-4.2417,-4.2417,-4.2985,-4.3329,-4.3329,-4.3329,-4.3329,-4.3329,-4.3359,0.0,0.0,0.0,0.0,0.0,0.0,0.0,0.0,0.0,0.0,0.0,0.0,0.0,0.0,0.0,0.0,0.0,0.0,0.0,0.0,0.0,0.0,0.0,0.0,0.0,0.0,0.0,0.0,-3.9753,-4.0216,0.0,-4.1459,-4.1722,-4.2126,-4.2772,-4.3096,-4.3235,-4.3235,-4.3492,-4.3628,-4.3628,-4.3628,-4.3628,-4.3628,-4.3628,-4.3628,-4.3628,-4.3628,-4.3628,-4.3628,-4.3628,-4.3628,-4.3628,-4.3628,-4.3628,-4.3628,-4.3628,-4.3628,-4.3628,-4.3628,-4.3628,-4.3628,-4.3628,-4.3628,-4.3568,-4.3312,-4.2772,-4.1997,-4.0873,-4.0021,-3.9424,-3.9424,-3.9424,-3.9424,-3.9424,-3.9424,-3.9424,-3.9424,-3.9424,-3.9424,-3.9424,-3.9424,-3.9424,-3.9424,-3.9424,-3.9424,-3.9424,-3.9424,-3.9424,-3.9424,-3.9424,-3.9424,-3.9424,-3.9424,-3.9424,-3.9424,-3.9424,-3.9514,-3.9738,-4.0142,-4.0502,-4.0726,-4.1354,-4.1908,-4.2327,-4.2581,-4.2895,-4.3314,-4.3329,-4.3329,-4.3329,-4.3329,-4.3329,0.0,0.0,0.0,0.0,0.0,0.0,0.0,0.0,0.0,0.0,0.0,0.0,0.0,0.0,0.0,0.0,0.0,0.0,0.0,0.0,0.0,0.0,0.0,0.0,0.0,-3.9292,-3.9595,-3.9753,-4.0409,-4.1142,-4.1787,-4.2317,-4.2912,-4.3568,-4.3628,-4.3628,-4.3628,-4.3628,-4.3628,-4.3628,-4.3628,-4.3628,-4.3628,-4.3628,-4.3628,-4.3628,-4.3628,-4.3628,-4.3628,-4.3628,-4.3628,-4.3628,-4.3628,-4.3628,-4.3628,-4.3628,-4.3628,-4.3628,-4.3628,-4.3628,-4.3628,-4.3628,-4.3628,-4.3568,-4.3355,-4.2834,-4.2061,-4.0873,-4.0021,-3.9424,-3.9424,-3.9424,-3.9424,-3.9424,-3.9424,-3.9424,-3.9424,-3.9424,-3.9424,-3.9424,-3.9424,-3.9424,-3.9424,-3.9424,-3.9424,-3.9424,-3.9424,-3.9424,-3.9424,-3.9424,-3.9424,-3.9424,-3.9424,-3.9424,-3.9424,-3.9424,-3.9424,-3.9424,-3.9813,-4.0068,-4.0068,-4.0666,-4.1235,-4.1669,-4.1908,-4.2327,-4.297,-4.3015,-4.3105,-4.3329,-4.3329,-4.3329,-4.3329,0.0,0.0,0.0,0.0,0.0,0.0,0.0,0.0,0.0,0.0,0.0,0.0,0.0,0.0,0.0,0.0,0.0,0.0,0.0,0.0,0.0,0.0,0.0,-3.9104,-3.9864,-4.0478,-4.0478,-4.106,-4.1787,-4.2522,-4.2648,-4.2912,-4.3568,-4.3628,-4.3628,-4.3628,-4.3628,-4.3628,-4.3628,-4.3628,-4.3628,-4.3628,-4.3628,-4.3628,-4.3628,-4.3628,-4.3628,-4.3628,-4.3628,-4.3628,-4.3628,-4.3628,-4.3628,-4.3628,-4.3628,-4.3628,-4.3628,-4.3628,-4.3628,-4.3628,-4.3628,-4.3628,-4.3492,-4.2789,-4.2126,-4.1393,-4.0668,-3.995,-3.9424,-3.9424,-3.9424,-3.9424,-3.9424,-3.9424,-3.9424,-3.9424,-3.9424,-3.9424,-3.9424,-3.9424,-3.9424,-3.9424,-3.9424,-3.9424,-3.9424,-3.9424,-3.9424,-3.9424,-3.9424,-3.9424,-3.9424,-3.9424,0.0,-3.9424,-3.9424,-3.9424,-3.9424,-3.9424,-3.9424,-3.9424,-4.0008,-4.0382,-4.0397,-4.0995,-4.1654,-4.2297,-4.2327,-4.2641,-4.3284,-4.3329,-4.3329,-4.3329,0.0,0.0,0.0,0.0,0.0,0.0,0.0,0.0,0.0,0.0,0.0,0.0,0.0,0.0,0.0,0.0,0.0,0.0,0.0,0.0,0.0,-3.862,-3.887,-3.9104,-3.9466,-3.9879,-4.0424,-4.106,-4.1787,-4.2522,-4.3035,-4.3432,-4.3568,-4.3628,-4.3628,-4.3628,-4.3628,-4.3628,-4.3628,-4.3628,-4.3628,-4.3628,-4.3628,-4.3628,-4.3628,-4.3628,-4.3628,-4.3628,-4.3628,-4.3628,-4.3628,-4.3628,-4.3628,-4.3628,-4.3628,-4.3628,-4.3628,-4.3628,-4.3628,-4.3628,-4.3628,-4.3628,-4.3432,-4.2253,-4.1656,-4.1327,-4.0076,-3.9553,-3.9424,-3.9424,-3.9424,-3.9424,-3.9424,-3.9424,-3.9424,-3.9424,-3.9424,-3.9424,-3.9424,-3.9424,-3.9424,-3.9424,-3.9424,-3.9424,-3.9424,-3.9424,-3.9424,-3.9424,-3.9424,-3.9424,-3.9424,-3.9424,-3.9424,-3.9424,-3.9424,-3.9424,-3.9424,-3.9424,-3.9424,-3.9424,-3.9589,-3.9888,-4.0367,-4.0561,-4.0965,-4.1624,-4.1654,-4.1953,-4.2611,-4.309,-4.3329,0.0,0.0,0.0,0.0,0.0,0.0,0.0,0.0,0.0,0.0,0.0,0.0,0.0,0.0,0.0,0.0,0.0,0.0,0.0,0.0,0.0,0.0,-3.8723,-3.887,-3.9104,-3.9265,-3.9681,-4.0409,-4.106,-4.1787,-4.2522,-4.3235,-4.3628,-4.3628,-4.3628,-4.3628,-4.3628,-4.3628,-4.3628,-4.3628,-4.3628,-4.3628,-4.3628,-4.3628,-4.3628,-4.3628,-4.3628,-4.3628,-4.3628,-4.3628,-4.3628,-4.3628,-4.3628,-4.3628,-4.3628,-4.3628,-4.3628,-4.3628,0.0,0.0,0.0,0.0,-4.3432,-4.3035,-4.2253,-4.1591,-4.094,-4.0146,-3.961,-3.9424,-3.9424,-3.9424,-3.9424,-3.9424,-3.9424,-3.9424,-3.9424,-3.9424,-3.9424,-3.9424,-3.9424,-3.9424,-3.9424,-3.9424,-3.9424,-3.9424,-3.9424,0.0,-3.9424,-3.9424,-3.9424,-3.9424,-3.9424,-3.9424,-3.9424,-3.9424,-3.9424,-3.9424,-3.9424,-3.9424,-3.9424,-3.9424,0.0,0.0,0.0,-4.0292,-4.0935,-4.1235,0.0,0.0,0.0,-4.2925,-4.2925,-4.321,0.0,0.0,-4.2754,-4.2659,0.0,0.0,0.0,0.0,0.0,0.0,0.0,0.0,0.0,0.0,0.0,0.0,0.0,0.0,0.0,0.0,-3.8649,-3.887,-3.9104,-3.9265,-3.9681,-4.0547,-4.1194,-4.1917,-4.2648,-4.3235,-4.3628,-4.3628,-4.3628,-4.3628,-4.3628,-4.3628,0.0,0.0,0.0,-4.3628,-4.3628,-4.3628,-4.3628,-4.3628,-4.3628,-4.3628,-4.3628,-4.3628,-4.3628,-4.3628,-4.3628,-4.3628,-4.3628,-4.3628,-4.3628,-4.3628,-4.3628,-4.3628,-4.3628,-4.3628,-4.3174,-4.2585,-4.2506,0.0,0.0,-4.0409,-3.995,-3.9424,-3.9424,-3.9424,-3.9424,-3.9424,-3.9424,-3.9424,-3.9424,-3.9424,-3.9424,-3.9424,-3.9424,-3.9424,-3.9424,-3.9424,-3.9424,-3.9424,-3.9424,-3.9424,-3.9424,-3.9424,-3.9424,-3.9424,-3.9424,-3.9424,-3.9424,-3.9424,-3.9424,-3.9424,-3.9424,0.0,-3.9424,-3.9424,-3.9424,-3.9424,-3.9424,-3.9679,-4.0262,-4.092,-4.1265,-4.1265,-4.1923,-4.2252,-4.2252,-4.291,-4.3225,-4.3225,-4.3299,-4.2915,0.0,0.0,0.0,0.0,0.0,0.0,0.0,0.0,0.0,0.0,0.0,0.0,0.0,0.0,0.0,-3.8277,-3.8649,-3.887,-3.9104,-3.9265,-3.9879,-4.1127,-4.1917,-4.2648,-4.3355,-4.3492,-4.3628,-4.3628,-4.3628,-4.3628,-4.3628,-4.3628,-4.3628,-4.3628,-4.3628,-4.3628,-4.3628,-4.3628,-4.3628,-4.3628,-4.3628,0.0,-4.3628,-4.3628,-4.3628,-4.3628,-4.3628,-4.3687,-4.3822,-4.3687,-4.3628,-4.3628,-4.3628,-4.3628,-4.3628,-4.3628,-4.3174,-4.2522,-4.1917,-4.1194,-4.0409,-3.9824,-3.9553,-3.9424,-3.9424,-3.9424,0.0,-3.9424,-3.9424,-3.9424,-3.9424,-3.9424,-3.9424,-3.9424,-3.9424,-3.9424,-3.9424,-3.9424,-3.9424,-3.9424,-3.9424,-3.9424,-3.9424,-3.9424,-3.9424,-3.9424,-3.9424,-3.9424,-3.9424,-3.9424,-3.9424,-3.9424,-3.9424,-3.9424,-3.9424,-3.9424,-3.9424,-3.9424,-3.9424,-3.9484,-3.9604,-4.0247,-4.0591,-4.0591,-4.1235,-4.1564,-4.1564,-4.2222,-4.2551,-4.2566,-4.309,-4.317,0.0,0.0,0.0,0.0,0.0,0.0,0.0,0.0,0.0,0.0,0.0,-3.4301,0.0,0.0,-3.6674,-3.8113,-3.8575,-3.8855,-3.8943,-3.9523,-4.0216,-4.094,-4.1591,-4.2317,-4.3035,-4.3432,-4.3628,-4.3628,-4.3628,-4.3628,-4.3628,-4.3628,-4.3628,-4.3628,-4.3628,-4.3628,-4.3628,-4.3628,-4.3628,-4.3628,-4.3687,-4.3763,-4.3763,-4.3805,-4.3805,-4.3763,-4.3763,-4.3822,-4.3898,-4.3864,-4.3864,-4.3864,-4.3864,-4.3747,-4.3568,-4.3279,-4.2694,-4.1917,-4.126,-4.0547,-3.9879,-3.9553,-3.9424,-3.9424,-3.9424,-3.9424,-3.9424,-3.9424,-3.9424,-3.9424,-3.9424,-3.9424,-3.9424,-3.9424,-3.9424,-3.9424,-3.9424,-3.9424,-3.9424,-3.9424,-3.9424,-3.9424,-3.9424,-3.9424,-3.9424,-3.9424,-3.9424,-3.9424,-3.9424,-3.9424,-3.9424,-3.9424,-3.9424,-3.9424,-3.9424,-3.9424,-3.9424,-3.9424,-3.9424,-3.9424,-3.9424,-3.9738,-3.9903,-3.9903,-4.0561,-4.0891,-4.0891,-4.1549,-4.1878,-4.1878,-4.2207,-4.2701,0.0,0.0,0.0,0.0,0.0,0.0,0.0,0.0,-3.2797,-3.324,-3.3326,-3.3882,-3.5548,-3.5869,-3.6346,-3.7962,-3.8501,-3.8723,-3.8723,-3.9565,-4.0224,-4.0224,-4.1115,-4.1981,-4.271,-4.3295,-4.3628,-4.3628,-4.3628,-4.3628,-4.3628,-4.3628,-4.3628,-4.3628,-4.3628,-4.3628,-4.3628,-4.3628,-4.3628,-4.3628,-4.3822,-4.3956,-4.3939,-4.4056,-4.4056,-4.3956,-4.3956,-4.3939,-4.3956,-4.3923,-4.3906,-4.3923,-4.3789,-4.3552,-4.3235,-4.2941,-4.2269,-4.1444,-4.0737,-4.0021,-3.9424,-3.9424,-3.9424,-3.9424,-3.9424,-3.9424,-3.9424,-3.9424,-3.9424,-3.9424,-3.9424,-3.9424,-3.9424,-3.9424,-3.9424,-3.9424,-3.9424,-3.9424,-3.9424,-3.9424,-3.9424,-3.9424,-3.9424,-3.9424,-3.9424,-3.9424,-3.9424,-3.9424,-3.9424,-3.9424,-3.9424,-3.9424,-3.9424,-3.9424,-3.9424,-3.9424,-3.9424,-3.9424,-3.9424,-3.9424,-3.9424,-3.9424,-3.9424,-3.9424,-3.9933,-4.0217,-4.0217,-4.0876,-4.119,-4.119,-4.14,-4.2104,-2.3115,-2.4085,-2.5539,-2.7546,-2.8916,-3.0302,0.0,0.0,-3.297,-3.4063,-3.423,-3.4786,-3.6452,-3.6766,-3.7092,-3.8037,-3.8366,-3.8516,-3.8516,-3.8943,-3.9227,-3.9253,-4.1146,-4.271,-4.3432,-4.3568,-4.3628,-4.3628,-4.3628,-4.3628,-4.3628,-4.3628,-4.3687,-4.3839,-4.3687,-4.3704,-4.3839,-4.3898,-4.3898,-4.3898,-4.3998,-4.4097,-4.4097,-4.4097,-4.4097,-4.4097,-4.4196,-4.4196,-4.4039,-4.3578,-4.3323,-4.3157,-4.2694,-4.2396,-4.2302,-4.2678,-4.2332,-4.1543,-4.0789,-4.0021,-3.9424,-3.9424,-3.9424,-3.9424,-3.9424,-3.9424,-3.9424,-3.9424,-3.9424,-3.9424,-3.9424,-3.9424,-3.9424,-3.9424,-3.9424,-3.9424,-3.9424,-3.9424,-3.9424,-3.9424,-3.9424,-3.9424,-3.9424,-3.9424,-3.9424,-3.9424,-3.9424,-3.9424,-3.9424,-3.9424,-3.9424,-3.9424,-3.9424,-3.9424,-3.9424,-3.9424,-3.9424,-3.9424,-3.9424,-3.9424,-3.9424,-3.9424,-3.9424,-3.9424,-3.9484,-3.9529,-3.9529,-4.0187,-4.0502,-4.0531,-4.128,-4.2032,-2.4317,-2.5326,0.0,0.0,-2.9526,-3.0718,-3.1761,-3.2327,-3.2723,-3.3484,-3.3654,-3.4134,-3.5789,-3.6108,-3.6596,0.0,-3.8501,-3.8649,-3.8649,-3.869,-3.9179,-4.0355,-4.1037,-4.161,-4.2337,-4.3108,-4.3628,-4.3628,-4.3628,-4.3628,-4.3628,-4.3704,-4.3822,-4.3898,-4.3881,-4.3923,-4.3998,-4.3998,-4.3998,-4.3998,-4.4155,-4.4196,-4.4196,-4.4344,-4.4327,-4.4196,-4.4253,-4.4064,-4.3638,-4.3486,-4.3169,-4.274,-4.2474,-4.2364,-4.2301,-4.2045,-4.1641,-4.1178,-4.0339,-3.9824,-3.9553,-3.9424,-3.9481,-3.9553,-3.9424,-3.9481,-3.9553,-3.9424,-3.9424,-3.9424,-3.9424,-3.9424,-3.9424,-3.9424,-3.9424,-3.9424,-3.9424,-3.9424,-3.9424,-3.9424,-3.9424,-3.9424,-3.9424,-3.9424,-3.9424,-3.9424,-3.9424,-3.9424,-3.9424,-3.9424,-3.9424,-3.9424,-3.9424,-3.9424,-3.9424,-3.9424,-3.9424,-3.9424,-3.9424,-3.9424,-3.9424,-3.9424,-3.9424,-3.9424,-3.9424,-3.9424,-3.9424,-3.9694,-3.9828,-3.9828,-4.0332,-4.0975,-2.4988,0.0,0.0,-2.8492,-2.9702,-3.0604,-3.1333,-3.1884,-3.2302,-3.2871,-3.3081,-3.3641,-3.5318,-3.5628,-3.6188,-3.7962,-3.8355,-3.8458,-3.8458,-3.8335,-3.8955,-4.0632,-4.0814,-4.1055,-4.1715,-4.2867,-4.3628,-4.3628,-4.3628,-4.3628,-4.3687,-4.3839,-4.3956,-4.3998,-4.4039,-4.4097,-4.4155,-4.4155,-4.4155,-4.4155,-4.4327,-4.4367,-4.4367,-4.4514,-4.4514,-4.4367,-4.4367,-4.3989,-4.335,-4.3273,-4.2831,-4.2205,-4.2013,-4.1965,-4.1901,-4.1276,-4.1075,-4.094,-4.0091,-3.9768,-3.9768,-3.9625,-3.9625,-3.9768,-3.9553,-3.9553,-3.9696,-3.9553,-3.9481,-3.9481,-3.9481,-3.9481,-3.9481,-3.9409,-3.9424,-3.9424,-3.9424,-3.9424,-3.9424,-3.9424,-3.9424,-3.9424,-3.9424,-3.9424,-3.9424,-3.9424,-3.9424,-3.9424,-3.9424,-3.9424,-3.9424,-3.9424,-3.9424,-3.9424,-3.9424,-3.9424,-3.9424,-3.9424,-3.9409,-3.9481,-3.9424,-3.9409,-3.9481,-3.9424,-3.9424,-3.9424,-3.9481,-3.9481,-3.9481,-3.9568,-3.9768,-4.0167,0.0,0.0,-2.6212,-2.7638,-2.8728,-2.9699,-3.0955,-3.1406,-3.1846,-3.2525,-3.2896,-3.3641,-3.5345,-3.5642,-3.6188,-3.7962,-3.7842,-3.7521,-3.7521,-3.7853,-3.84,-3.9091,-4.0527,-4.1741,0.0,-4.3138,-4.3628,-4.3628,-4.3628,-4.3704,-4.3898,-4.3898,-4.3998,-4.431,-4.4155,-4.4155,-4.4293,-4.4293,-4.4293,-4.431,-4.4514,-4.457,-4.457,-4.4587,-4.4587,-4.457,-4.457,-4.4179,-4.3453,-4.2831,-4.2141,-4.1459,-4.0836,-4.0593,-4.0593,-4.0524,-4.0836,-4.1142,-4.0316,-3.9996,-3.9996,-3.9996,-4.0011,-3.9925,-3.9768,-3.9696,-3.9681,-3.9681,-3.9681,-3.9681,-3.9681,-3.9681,-3.9625,-3.9424,-3.9424,-3.9424,-3.9424,-3.9424,-3.9424,-3.9424,-3.9424,-3.9424,-3.9424,-3.9424,-3.9424,-3.9424,-3.9424,-3.9424,-3.9424,-3.9424,-3.9424,-3.9424,-3.9424,-3.9424,-3.9424,-3.9424,-3.9424,-3.9424,-3.9553,-3.9625,-3.9424,-3.9625,-3.9625,-3.9409,-3.9424,-3.9481,-3.9681,-3.9681,-3.9768,-3.9996,-4.0207,-4.0292,0.0,0.0,-2.603,-2.7215,-2.8363,-2.947,-2.9973,-3.0772,-3.1516,-3.2054,-3.2548,-3.3373,-3.5305,-3.5628,-3.605,-3.7353,-3.7624,-3.7695,-3.7796,-3.8087,-3.8964,-4.0525,-4.1215,0.0,0.0,0.0,0.0,-4.3628,-4.3704,-4.3839,-4.3898,-4.4039,-4.4212,-4.431,-4.4384,-4.4457,-4.4514,-4.4497,-4.4497,-4.4497,-4.457,-4.4587,-4.4587,-4.4587,-4.4587,-4.4587,-4.4587,-4.4179,-4.3453,-4.2769,-4.2078,-4.1459,-4.0783,-4.0524,-4.0524,-4.0524,-4.0578,-4.0715,-4.0331,-4.0207,-4.0207,-4.0066,-4.0066,-4.0137,-3.9996,-3.9925,-3.9854,-3.9768,-3.9681,-3.9696,-3.9553,-3.9625,-3.9625,-3.9424,-3.9424,-3.9424,-3.9424,-3.9424,-3.9424,-3.9424,-3.9424,-3.9424,-3.9424,-3.9424,-3.9424,-3.9424,-3.9424,-3.9424,-3.9424,-3.9424,-3.9424,-3.9424,-3.9424,-3.9424,-3.9424,-3.9424,-3.9424,-3.9424,-3.9625,-3.9625,-3.9424,-3.9625,-3.9696,-3.9625,-3.9625,-3.9696,-3.9925,-3.9925,-3.9925,-3.9996,-4.0207,-4.0506,0.0,-2.4734,-2.5484,-2.6846,-2.7848,-2.8726,-2.9313,-3.0046,-3.0772,-3.14,-3.1967,-3.2984,-3.4982,-3.5303,-3.5829,-3.7339,-3.7521,-3.7573,-3.7824,-3.8432,-3.9455,-4.097,-4.1628,-4.2407,0.0,0.0,0.0,-4.3687,-4.3839,-4.3956,-4.4056,-4.4212,-4.431,-4.4367,-4.4514,-4.4587,-4.4587,-4.4587,-4.4587,-4.4587,-4.4587,-4.4587,-4.4587,-4.4587,-4.4587,-4.4587,-4.431,-4.3781,-4.3075,-4.2395,-4.1771,-4.1091,-4.0646,-4.0524,-4.0524,-4.0524,-4.0524,-4.0455,-4.0401,-4.0401,-4.0331,-4.0191,-4.0261,-4.0331,-4.0137,-4.0066,-3.9996,-3.991,-3.9839,-3.9768,-3.9711,-3.9768,-3.9768,-3.9553,-3.9409,-3.9424,-3.9424,-3.9424,-3.9424,-3.9424,-3.9424,-3.9424,-3.9424,-3.9424,-3.9424,-3.9424,-3.9424,-3.9424,-3.9424,-3.9424,-3.9424,-3.9424,-3.9424,-3.9424,-3.9424,-3.9424,-3.9424,-3.9424,-3.9625,-3.9696,-3.9481,-3.9768,-3.991,-3.9839,-3.9839,-3.9925,-4.0137,-4.0137,-4.0274,-4.0573,-4.0714,-4.1152,-2.3983,-2.4231,-2.4553,-2.6588,-2.7174,-2.7557,-2.8973,-2.9431,-2.9833,-3.0667,-3.1363,-3.2465,0.0,0.0,-3.5421,-3.7774,-3.7375,-3.7072,-3.7748,-3.8788,-3.9749,0.0,0.0,0.0,0.0,0.0,0.0,-4.3898,0.0,-4.3998,-4.431,-4.431,-4.4367,-4.457,-4.4587,-4.4587,-4.4587,-4.4587,-4.4587,-4.4587,-4.4587,-4.4587,-4.4587,-4.4587,-4.4587,-4.457,-4.3839,-4.3136,-4.252,-4.1771,-4.1158,-4.0524,-4.0524,-4.0524,-4.0524,-4.0524,-4.0524,-4.0524,-4.0524,-4.0524,-4.0524,-4.0524,-4.0524,-4.047,-4.0347,-4.0137,-4.0066,-4.0207,-4.0137,-4.0066,-4.0207,-4.0137,-3.9996,-3.9768,-3.9553,-3.9424,-3.9424,-3.9424,-3.9409,-3.9424,-3.9424,-3.9424,-3.9424,-3.9424,-3.9424,-3.9424,-3.9424,-3.9424,-3.9424,-3.9424,-3.9424,-3.9424,-3.9424,-3.9424,-3.9424,-3.9424,-3.9424,-3.9424,-3.9783,-3.9925,-3.9681,-4.0051,-4.0207,-3.9996,-4.0011,-4.0137,-4.0331,-4.0377,-4.08,-4.1601,-4.1632,-4.2017,-2.2784,-2.3377,-2.4221,-2.5568,-2.6412,-2.7196,-2.8426,-2.9015,-2.9682,-3.063,-3.128,-3.2424,0.0,0.0,0.0,-3.6765,-3.6549,0.0,-3.7933,-3.8924,0.0,-4.1851,0.0,-4.3432,-4.3552,-4.3763,0.0,0.0,-4.4056,-4.4097,-4.431,-4.444,-4.457,-4.4587,-4.4587,-4.4587,-4.4587,-4.4587,-4.4587,-4.4587,-4.4587,-4.4587,-4.4587,-4.4587,-4.4587,-4.457,-4.3839,-4.3393,-4.3136,-4.1949,-4.1393,-4.1209,-4.0715,-4.0524,-4.0524,-4.0524,-4.0524,-4.0524,-4.0524,-4.0524,-4.0524,-4.0524,-4.0524,-4.0455,-4.047,-4.0331,-4.0207,-4.0066,-4.0137,-4.0137,-3.991,-4.0051,-4.0137,-3.9996,-3.9854,-3.9783,-3.9625,-3.961,-3.9553,-3.9424,-3.9424,-3.9424,-3.9424,-3.9424,-3.9424,-3.9424,-3.9424,-3.9424,-3.9424,-3.9424,-3.9424,-3.9424,-3.9424,-3.9424,-3.9424,-3.9424,-3.9424,-3.9424,-3.9625,-3.9768,-3.9681,-3.991,-4.0137,-4.0207,-4.0207,-4.0261,-4.047,-4.1008,-4.1346,-4.1617,-4.2109,-4.2694,-2.3299,-2.3887,-2.4808,-2.5997,-2.6577,-2.7244,-2.8259,-2.8807,-2.927,-2.9886,-3.0867,0.0,-3.4082,-3.4435,0.0,0.0,0.0,0.0,-3.8437,-3.9943,-4.1275,0.0,-4.3235,0.0,-4.3763,-4.3881,-4.4039,0.0,-4.4196,-4.427,-4.444,-4.4514,-4.4587,-4.4587,-4.4587,-4.4587,-4.4587,-4.4587,-4.4587,-4.4587,-4.4587,-4.444,-4.4105,-4.4105,-4.3989,-4.3663,-4.2892,-4.2645,-4.252,-4.1525,-4.1091,-4.1024,-4.0646,-4.0524,-4.0524,-4.0524,-4.0524,-4.0524,-4.0524,-4.0524,-4.0524,-4.0524,-4.0524,-4.0524,-4.0524,-4.0401,-4.0277,-4.0191,-4.0277,-4.0261,-4.0106,-4.0191,-4.0277,-4.0137,-4.0066,-3.9996,-3.9854,-3.9839,-3.9768,-3.9711,-3.964,-3.964,-3.9553,-3.9625,-3.964,-3.9553,-3.964,-3.964,-3.9553,-3.9409,-3.9424,-3.9424,-3.9424,-3.9424,-3.9424,-3.9424,-3.9424,-3.9424,-3.9625,-3.9768,-3.9839,-3.9996,-4.0207,-4.0401,-4.0401,-4.0554,-4.1001,-4.1401,-4.1894,-4.2479,-4.2848,-4.3387,-2.4488,-2.5073,-2.5735,-2.6835,-2.7174,-2.7429,-2.8339,-2.8657,-2.8907,-2.9229,0.0,-3.1784,-3.2914,-3.3702,-3.4654,-3.6239,0.0,-3.8193,-3.9133,-4.1134,-4.2534,-4.2772,-4.3432,-4.3898,-4.3898,-4.4056,-4.4138,-4.431,-4.431,-4.444,-4.457,-4.4587,-4.4587,-4.4587,-4.4587,-4.4587,-4.4587,-4.4587,-4.4587,-4.4587,-4.4587,-4.4236,-4.3512,-4.3512,-4.3136,-4.2458,-4.1771,-4.1525,-4.1459,-4.0783,-4.0524,-4.0524,-4.0524,-4.0524,-4.0524,-4.0524,-4.0524,-4.0524,-4.0524,-4.0524,-4.0524,-4.0524,-4.0524,-4.0524,-4.0524,-4.0401,-4.0347,-4.047,-4.0401,-4.0347,-4.047,-4.0401,-4.0347,-4.0347,-4.0207,-4.0066,-4.0066,-3.9996,-4.0011,-4.0011,-4.0011,-3.9925,-3.9768,-3.9854,-3.9925,-3.9768,-3.9925,-3.9925,-3.9768,-3.9553,-3.9424,-3.9424,-3.9424,-3.9424,-3.9424,-3.9424,-3.9424,-3.9424,-3.9625,-3.9768,-3.9996,-4.0207,-4.0377,-4.0662,-4.0678,-4.1016,-4.174,-4.1817,-4.2448,-4.3571,-4.3664,-4.4018,-2.5316,-2.5221,-2.5462,-2.6565,-2.6905,-2.7232,-2.8474,-2.8803,0.0,0.0,-3.0798,-3.1901,-3.3482,-3.4053,-3.4626,-3.5834,-3.6737,-3.7849,-3.9235,-4.078,-4.2244,0.0,-4.3839,-4.3939,-4.4039,-4.4212,0.0,0.0,-4.444,-4.457,-4.4587,-4.4587,-4.4587,-4.4587,-4.4587,-4.4587,-4.4587,-4.4587,-4.4587,-4.4587,-4.4587,-4.4236,-4.3512,-4.3512,-4.3136,-4.2458,-4.1771,-4.1525,-4.1459,-4.0783,-4.0524,-4.0524,-4.0524,-4.0524,-4.0524,-4.0524,-4.0524,-4.0524,-4.0524,-4.0524,-4.0524,-4.0524,-4.0524,-4.0524,-4.0524,-4.0455,-4.047,-4.0331,-4.0401,-4.047,-4.0331,-4.0401,-4.047,-4.047,-4.047,-4.0401,-4.0261,-4.0137,-4.0011,-4.0011,-4.0011,-3.9996,-3.9925,-3.9996,-3.9996,-3.9925,-3.9996,-3.9996,-3.9925,-3.9768,-3.9553,-3.9424,-3.9424,-3.9424,-3.9424,-3.9424,-3.9424,-3.9424,-3.9625,-3.9768,-3.9996,-4.0207,-4.0677,-4.1401,-4.1417,-4.1755,-4.2432,-4.2971,-4.334,-4.3587,-4.4141,-4.4464,-2.6423,-2.6659,-2.6987,-2.758,-2.7661,-2.7903,-2.8633,0.0,0.0,0.0,-3.1174,-3.2145,-3.3477,-3.4172,0.0,-3.5908,-3.7333,-3.8717,-3.987,-4.1629,0.0,-4.3789,-4.3998,-4.4155,0.0,-4.4384,-4.444,-4.444,-4.457,-4.4587,-4.4587,-4.4587,-4.4587,-4.4587,-4.4587,-4.4587,-4.4587,-4.4587,-4.4587,-4.4587,-4.4587,-4.4236,-4.3512,-4.3136,-4.2645,-4.1965,-4.1276,-4.0956,-4.0956,-4.0646,-4.0524,-4.0524,-4.0524,-4.0524,-4.0524,-4.0524,-4.0524,-4.0524,-4.0524,-4.0524,-4.0524,-4.0524,-4.0524,-4.0524,-4.0524,-4.0524,-4.0455,-4.0401,-4.0455,-4.0455,-4.0401,-4.0455,-4.0524,-4.0524,-4.0524,-4.047,-4.0347,-4.0207,-4.0137,-4.0137,-4.0137,-4.0137,-4.0137,-4.0207,-4.0277,-4.0137,-4.0207,-4.0261,-4.0137,-4.0051,-3.991,-3.9711,-3.9711,-3.9711,-3.9711,-3.9711,-3.9711,-3.9711,-3.9783,-3.9925,-4.0137,-4.0613,-4.1106,-4.1586,-4.194,-4.2448,-4.311,-4.3417,-4.3756,-4.4095,-4.4433,-4.4572,-2.7836,-2.8338,-2.8847,-2.8847,-2.8847,-2.8891,-2.8998,-2.9278,0.0,0.0,-3.1549,-3.2648,-3.3367,0.0,-3.5264,0.0,-3.8107,-3.9795,-4.0432,-4.2508,-4.3898,0.0,-4.4155,0.0,-4.4367,-4.4514,0.0,-4.4587,-4.4587,-4.4587,-4.4587,-4.4587,-4.4587,-4.4587,-4.4587,-4.4587,-4.4587,-4.4587,-4.4587,-4.4587,-4.4587,-4.4236,-4.3512,-4.2831,-4.2141,-4.1459,-4.0768,-4.0524,-4.0524,-4.0524,-4.0524,-4.0524,-4.0524,-4.0524,-4.0524,-4.0524,-4.0524,-4.0524,-4.0524,-4.0524,-4.0524,-4.0524,-4.0524,-4.0524,-4.0524,-4.0524,-4.0524,-4.0524,-4.0524,-4.0524,-4.0524,-4.0524,-4.0524,-4.0524,-4.0524,-4.0455,-4.0331,-4.0331,-4.0331,-4.0331,-4.0331,-4.0331,-4.0331,-4.047,-4.0455,-4.0331,-4.047,-4.047,-4.0347,-4.0331,-4.0277,-4.0137,-4.0066,-4.0011,-4.0011,-4.0011,-4.0011,-4.0011,-4.0081,-4.0197,-4.0475,-4.1066,-4.1566,-4.2017,-4.2556,-4.314,-4.3787,-4.3787,-4.4064,-4.4572,-4.4572,-4.4572,-2.9858,-2.9858,-2.9941,-2.9941,-3.0096,-3.0129,-2.9886,0.0,0.0,-3.0924,-3.2205,-3.3437,-3.3506,-3.4927,-3.6085,-3.6196,0.0,-4.0432,0.0,0.0,0.0,-4.4253,0.0,0.0,-4.457,-4.457,-4.4587,-4.4587,-4.4587,-4.4587,-4.4587,-4.4587,-4.4587,-4.4587,-4.4587,-4.4587,-4.4587,-4.4587,-4.4587,-4.4587,-4.4587,-4.4236,-4.3512,-4.2831,-4.2141,-4.1459,-4.0768,-4.0524,-4.0524,-4.0524,-4.0524,-4.0524,-4.0524,-4.0524,-4.0524,-4.0524,-4.0524,-4.0524,-4.0524,-4.0524,-4.0524,-4.0524,-4.0524,-4.0524,-4.0524,-4.0524,-4.0524,-4.0524,-4.0524,-4.0524,-4.0524,-4.0524,-4.0524,-4.0524,-4.0524,-4.0539,-4.0455,-4.0455,-4.0455,-4.0455,-4.0455,-4.0455,-4.0455,-4.0455,-4.0539,-4.0455,-4.0455,-4.0539,-4.0455,-4.0455,-4.0455,-4.047,-4.0207,-4.0011,-4.0011,-4.0011,-4.0011,-4.0011,-4.0137,-4.0537,-4.1163,-4.1413,-4.2155,-4.3356,-4.3448,-4.3818,-4.4495,-4.4495,-4.451,-4.4572,-4.4572,-4.4572,-3.0086,-3.0086,-3.017,-3.0241,-3.007,-3.0094,-3.0662,0.0,-3.1245,-3.2245,-3.3003,-3.3713,-3.4438,-3.5415,-3.6383,-3.6845,0.0,0.0,-4.1222,0.0,0.0,-4.431,-4.444,0.0,0.0,0.0,-4.4587,-4.4587,-4.4587,-4.4587,-4.4587,-4.4587,-4.4587,-4.4587,-4.4587,-4.4587,-4.4587,-4.4587,-4.4587,-4.4587,-4.4587,-4.444,-4.4105,-4.3031,-4.2332,-4.2013,-4.0956,-4.0524,-4.0524,-4.0524,-4.0524,-4.0524,-4.0524,-4.0524,-4.0524,-4.0524,-4.0524,-4.0524,-4.0524,-4.0524,-4.0524,-4.0524,-4.0524,-4.0524,-4.0524,-4.0524,-4.0524,-4.0524,-4.0524,-4.0524,-4.0524,-4.0524,-4.0524,-4.0524,-4.0524,-4.0455,-4.0401,-4.0401,-4.0401,-4.0401,-4.0401,-4.0401,-4.0455,-4.0524,-4.0524,-4.0524,-4.0524,-4.0524,-4.0524,-4.0524,-4.0524,-4.0524,-4.0401,-4.0331,-4.0331,-4.0331,-4.0331,-4.0331,-4.08,-4.1238,-4.15,-4.2355,-4.3033,-4.3556,-4.3972,-4.431,-4.4572,-4.4572,-4.4572,-4.4572,-4.4572,-4.4572,-3.081,-3.081,-3.081,-3.0967,-3.0913,-3.101,0.0,0.0,-3.2186,-3.3297,-3.3713,-3.4153,-3.5001,-3.5943,-3.6723,-3.737,0.0,-4.1205,-4.1722,-4.3256,0.0,0.0,0.0,-4.4587,0.0,-4.4587,-4.4587,-4.4587,-4.4587,-4.4587,-4.4587,-4.4587,-4.4587,-4.4587,-4.4587,-4.4587,-4.4587,-4.4587,-4.4587,-4.4587,-4.4587,-4.4587,-4.457,-4.3152,-4.252,-4.2458,-4.1091,-4.0524,-4.0524,-4.0524,-4.0524,-4.0524,-4.0524,-4.0524,-4.0524,-4.0524,-4.0524,-4.0524,-4.0524,-4.0524,-4.0524,-4.0524,-4.0524,-4.0524,-4.0524,-4.0524,-4.0524,-4.0524,-4.0524,-4.0524,-4.0524,-4.0524,-4.0524,-4.0524,-4.0524,-4.0455,-4.0401,-4.0331,-4.0331,-4.0331,-4.0331,-4.0401,-4.0455,-4.0524,-4.0524,-4.0524,-4.0524,-4.0524,-4.0524,-4.0524,-4.0524,-4.0524,-4.0524,-4.0524,-4.0524,-4.0524,-4.0616,-4.0832,-4.1324,-4.1771,-4.2171,-4.3079,-4.3664,-4.3864,-4.4341,-4.4572,-4.4572,-4.4572,-4.4572,-4.4572,-4.4572,-4.4572,-3.2376,-3.2376,-3.2376,-3.2376,-3.3164,-3.3662,0.0,0.0,-3.4688,-3.3691,-3.4221,-3.4935,-3.5148,-3.6415,-3.7413,-3.7589,-3.9927,0.0,-4.2051,-4.3367,0.0,0.0,0.0,-4.4587,-4.4587,-4.4587,-4.4587,-4.4587,-4.4587,0.0,-4.4587,-4.4587,-4.4587,-4.4587,-4.4587,-4.4587,-4.4587,-4.4587,-4.4587,-4.4587,-4.4587,-4.4587,-4.457,-4.3152,-4.252,-4.2458,-4.1091,-4.0524,-4.0524,-4.0524,-4.0524,-4.0524,-4.0524,-4.0524,-4.0524,-4.0524,-4.0524,-4.0524,-4.0524,-4.0524,-4.0524,-4.0524,-4.0524,-4.0524,-4.0524,-4.0524,-4.0524,-4.0524,-4.0524,-4.0524,-4.0524,-4.0524,-4.0524,-4.0524,-4.0524,-4.0524,-4.0524,-4.0524,-4.0524,-4.0524,-4.0524,-4.0524,-4.0524,-4.0524,-4.0524,-4.0524,-4.0524,-4.0524,-4.0524,-4.0524,-4.0524,-4.0524,-4.0524,-4.0524,-4.0524,-4.0524,-4.0832,-4.154,-4.1601,-4.2186,-4.3494,-4.3556,-4.3879,-4.4556,-4.4572,-4.4572,-4.4572,-4.4572,-4.4572,-4.4572,-4.4572,-4.4572,-3.24,-3.24,-3.255,-3.3262,-3.3617,-3.387,-3.4776,0.0,-3.4982,-3.5302,-3.5244,-3.5264,-3.5879,-3.6768,-3.7589,-3.8108,-4.0249,0.0,0.0,0.0,0.0,-4.457,-4.4587,-4.4587,0.0,0.0,-4.4587,-4.4587,-4.4587,-4.4587,-4.4587,-4.4587,-4.4587,-4.4587,-4.4587,-4.4587,-4.4587,-4.4587,-4.4587,-4.4587,-4.4587,-4.431,-4.3839,-4.2892,-4.2269,-4.1771,-4.0904,-4.0524,-4.0524,-4.0524,-4.0524,-4.0524,-4.0524,-4.0524,-4.0524,-4.0524,-4.0524,-4.0524,-4.0524,-4.0524,-4.0524,-4.0524,-4.0524,-4.0524,-4.0524,-4.0524,-4.0524,-4.0524,-4.0524,-4.0524,-4.0524,-4.0524,-4.0524,-4.0524,-4.0524,-4.0524,-4.0524,-4.0524,-4.0524,-4.0524,-4.0524,-4.0524,-4.0524,-4.0524,-4.0524,-4.0524,-4.0524,-4.0524,-4.0524,-4.0524,-4.0524,-4.0524,-4.0524,-4.0524,-4.0524,-4.0986,-4.1355,-4.1586,-4.2448,-4.314,-4.3556,-4.4018,-4.4356,-4.4572,-4.4572,-4.4572,-4.4572,-4.4572,-4.4572,-4.4572,-4.4572,-4.4572,0.0,-3.3373,-3.3771,-3.4555,-3.4848,0.0,0.0,0.0,-3.6122,-3.6458,-3.6216,-3.6114,-3.6721,-3.7408,-3.8075,-3.8972,-4.0724,0.0,0.0,0.0,0.0,-4.4587,0.0,0.0,0.0,-4.4587,-4.4587,-4.4587,-4.4587,-4.4587,-4.4587,-4.4587,-4.4587,-4.4587,-4.4587,-4.4587,-4.4587,-4.4587,-4.4587,-4.4587,-4.431,-4.3972,-4.3453,-4.2504,-4.1885,-4.1459,-4.0768,-4.0524,0.0,-4.0524,-4.0524,-4.0524,-4.0524,-4.0524,-4.0524,-4.0524,-4.0524,-4.0524,-4.0524,-4.0524,-4.0524,-4.0524,-4.0524,-4.0524,-4.0524,-4.0524,-4.0524,-4.0524,-4.0524,-4.0524,-4.0524,-4.0524,-4.0524,-4.0524,-4.0524,-4.0524,-4.0524,-4.0524,-4.0524,-4.0524,-4.0524,-4.0524,-4.0524,-4.0524,-4.0524,-4.0524,-4.0524,-4.0524,-4.0524,-4.0524,-4.0524,-4.0524,-4.077,-4.094,-4.094,-4.134,-4.1817,-4.2309,-4.311,-4.3679,-4.3941,-4.4356,-4.4572,-4.4572,-4.4572,-4.4572,-4.4572,-4.4572,-4.4572,-4.4572,-4.4572,-4.4572,0.0,0.0,0.0,-3.5935,-3.6646,0.0,0.0,0.0,0.0,0.0,0.0,-3.7333,-3.77,-3.8264,-3.9044,-4.0051,-4.1326,0.0,0.0,0.0,0.0,0.0,-4.4587,0.0,-4.4587,-4.4587,-4.4587,-4.4587,-4.4587,-4.4587,-4.4587,-4.4587,-4.4587,-4.4587,-4.4587,-4.4587,-4.4587,-4.457,-4.4514,-4.4514,-4.3781,-4.3376,-4.3333,-4.2078,-4.1459,-4.1393,-4.0768,-4.0524,-4.0524,-4.0524,-4.0524,-4.0524,-4.0524,-4.0524,-4.0524,-4.0524,-4.0524,-4.0524,-4.0524,-4.0524,-4.0524,-4.0524,-4.0524,-4.0524,-4.0524,-4.0524,-4.0524,-4.0524,-4.0524,-4.0524,-4.0524,-4.0524,-4.0524,-4.0593,-4.0524,-4.0524,-4.0593,-4.0524,-4.0524,-4.0524,-4.0524,-4.0524,-4.0524,-4.0524,-4.0524,-4.0524,-4.0524,-4.0524,-4.0524,-4.0524,-4.0539,-4.0601,-4.1201,-4.1632,-4.1724,-4.174,-4.2263,-4.3494,-4.3618,-4.3925,-4.4556,-4.4572,-4.4572,-4.4572,-4.4572,-4.4572,-4.4572,-4.4572,-4.4572,-4.4572,-4.4572,-4.4572,-3.6738,0.0,-3.6015,-3.688,-3.7357,-3.78,0.0,0.0,0.0,0.0,0.0,0.0,0.0,0.0,0.0,0.0,0.0,0.0,0.0,0.0,0.0,-4.4587,-4.4587,-4.4587,-4.4587,-4.4587,-4.4587,-4.4587,-4.4587,-4.4587,-4.4587,-4.4587,-4.4587,-4.4587,-4.4587,-4.4587,-4.4587,-4.4047,-4.3781,-4.3764,-4.3075,-4.2458,-4.1949,-4.1641,-4.1209,-4.0715,-4.0593,-4.0524,-4.0524,-4.0524,-4.0524,-4.0524,-4.0524,-4.0524,-4.0524,-4.0524,-4.0524,-4.0524,-4.0524,-4.0524,-4.0524,-4.0524,-4.0524,-4.0524,-4.0524,-4.0524,-4.0524,-4.0524,-4.0524,-4.0524,-4.0524,-4.0524,-4.0662,-4.1142,-4.0904,-4.0646,-4.1142,-4.0836,-4.0524,-4.0524,-4.0524,-4.0524,-4.0524,-4.0524,-4.0524,-4.0524,-4.0524,-4.0524,-4.0524,-4.0524,-4.0739,-4.1294,-4.1494,-4.2017,-4.3017,-4.311,-4.3233,-4.3556,-4.4048,-4.4418,-4.4572,-4.4572,-4.4572,-4.4572,-4.4572,-4.4572,-4.4572,-4.4572,-4.4572,-4.4572,-4.4572,-4.4572,-3.8069,-3.7753,-3.7357,-3.8069,-3.8308,-3.8546,0.0,0.0,0.0,0.0,0.0,0.0,0.0,0.0,0.0,0.0,-4.304,0.0,0.0,0.0,0.0,-4.4587,-4.4587,-4.4587,0.0,-4.4587,-4.4587,-4.4587,-4.4587,-4.4587,-4.4587,-4.4587,-4.4587,-4.4587,-4.4587,-4.4587,-4.4587,-4.4179,-4.3839,-4.3512,-4.2831,-4.2141,-4.1459,-4.1209,-4.0836,-4.0524,-4.0524,-4.0524,-4.0524,-4.0524,-4.0524,-4.0524,-4.0524,-4.0524,-4.0524,-4.0524,-4.0524,-4.0524,-4.0524,-4.0715,-4.0904,-4.0593,-4.0715,-4.0904,-4.0578,-4.0524,-4.0524,-4.0524,-4.0524,-4.0524,-4.0524,-4.0715,-4.0956,-4.1024,-4.1024,-4.0956,-4.1024,-4.0783,-4.0524,-4.0524,-4.0524,-4.0524,-4.0524,-4.0524,-4.0524,-4.0524,-4.0524,-4.0524,-4.0524,-4.0816,-4.117,-4.1555,-4.214,-4.2786,-4.351,-4.3848,-4.4033,-4.4033,-4.4372,-4.4572,-4.4572,-4.4572,-4.4572,-4.4572,-4.4572,-4.4572,-4.4572,-4.4572,-4.4572,-4.4572,-4.4572,-4.4572,-3.887,-3.9017,-3.8943,-3.9104,-3.9177,-3.9177,0.0,0.0,0.0,0.0,0.0,0.0,0.0,0.0,0.0,0.0,0.0,0.0,0.0,0.0,-4.4587,-4.4587,-4.4587,0.0,-4.4587,-4.4587,-4.4587,-4.4587,-4.4587,-4.4587,-4.4587,-4.4587,-4.4587,-4.4587,-4.4497,-4.444,-4.444,-4.444,-4.4047,-4.3317,-4.2645,-4.2029,-4.1343,-4.0783,-4.0524,-4.0524,-4.0524,-4.0524,-4.0524,-4.0524,-4.0524,-4.0524,-4.0524,-4.0524,-4.0524,-4.0524,-4.0524,-4.0524,-4.0524,-4.0904,-4.1276,-4.0715,-4.0904,-4.1209,-4.0646,-4.0593,-4.0646,-4.0646,-4.0593,-4.0524,-4.0768,-4.1142,-4.1393,-4.1024,-4.1209,-4.1393,-4.0904,-4.0646,-4.0524,-4.0524,-4.0524,-4.0524,-4.0524,-4.0524,-4.0524,-4.0524,-4.0524,-4.057,-4.0678,-4.1217,-4.1678,-4.1878,-4.2894,-4.3602,-4.371,-4.4249,-4.4572,-4.4572,-4.4572,-4.4572,-4.4572,-4.4572,-4.4572,-4.4572,-4.4572,-4.4572,-4.4572,-4.4572,-4.4572,-4.4572,-4.4572,-4.4572,-3.9265,-3.9337,-3.9337,-3.9337,-3.9337,-3.9337,0.0,0.0,0.0,0.0,0.0,0.0,0.0,0.0,0.0,0.0,0.0,-4.4451,0.0,0.0,-4.4587,-4.4587,0.0,-4.4587,-4.4587,-4.4587,-4.4587,-4.4587,-4.4587,-4.4587,-4.4587,-4.4587,-4.4587,-4.4587,-4.3972,-4.3647,-4.3647,-4.3647,-4.3333,-4.2645,-4.1949,-4.1276,-4.0646,-4.0524,-4.0524,-4.0524,-4.0524,-4.0524,-4.0524,-4.0524,-4.0524,-4.0524,-4.0524,-4.0524,-4.0524,-4.0524,-4.0524,-4.0524,-4.0524,-4.0593,-4.0662,-4.0524,-4.0593,-4.0646,-4.0524,-4.0904,-4.1343,-4.1343,-4.0956,-4.0783,-4.1901,-4.1836,-4.1771,-4.2769,-4.2269,-4.1656,-4.2078,-4.1276,-4.0524,-4.0524,-4.0524,-4.0524,-4.0524,-4.0524,-4.0524,-4.0524,-4.0524,-4.0755,-4.1355,-4.1524,-4.2032,-4.314,-4.3448,-4.3802,-4.4372,-4.451,-4.4572,-4.4572,-4.4572,-4.4572,-4.4572,-4.4572,-4.4572,-4.4572,-4.4572,-4.4572,-4.4572,-4.4572,-4.4572,-4.4572,-4.4572,-4.4572,-3.9337,-3.9424,-3.9424,-3.9424,-3.9424,-3.9424,0.0,0.0,0.0,0.0,0.0,0.0,0.0,0.0,0.0,0.0,0.0,-4.4587,-4.4587,-4.4587,-4.4587,0.0,0.0,-4.4587,-4.4587,-4.4587,-4.4587,-4.4587,-4.4587,-4.4587,-4.4587,-4.4587,-4.444,-4.403,-4.3706,-4.3317,-4.2953,-4.2953,-4.2645,-4.1965,-4.1641,-4.1158,-4.0524,-4.0524,-4.0524,-4.0524,-4.0524,-4.0524,-4.0524,-4.0524,-4.0524,-4.0524,-4.0524,-4.0524,-4.0524,-4.0524,-4.0956,-4.1525,-4.1142,-4.1276,-4.1525,-4.1142,-4.1024,-4.1024,-4.1024,-4.1276,-4.1591,-4.1965,-4.1836,-4.1706,-4.2332,-4.252,-4.2629,-4.2892,-4.252,-4.2013,-4.1949,-4.1209,-4.0524,-4.0524,-4.0524,-4.0524,-4.0524,-4.0524,-4.0524,-4.0524,-4.0863,-4.1232,-4.1555,-4.2217,-4.2894,-4.3494,-4.3895,-4.4249,-4.4556,-4.4572,-4.4572,-4.4572,-4.4572,-4.4572,-4.4572,-4.4572,-4.4572,-4.4572,-4.4572,-4.4572,-4.4572,-4.4572,-4.4572,-4.4572,-4.4572,-4.4572,-3.9424,-3.9538,-3.9666,-3.9666,0.0,0.0,0.0,0.0,0.0,0.0,0.0,0.0,0.0,0.0,0.0,0.0,-4.4587,-4.4587,-4.4587,-4.4587,-4.4587,-4.4587,-4.4587,-4.4587,-4.4587,-4.4587,-4.4587,-4.4587,-4.4587,-4.4514,-4.4367,-4.4367,-4.3989,-4.3257,-4.3136,-4.2769,-4.2269,-4.2141,-4.1836,-4.1525,-4.1525,-4.1158,-4.0524,-4.0524,-4.0524,-4.0524,-4.0524,-4.0524,-4.0524,-4.0524,-4.0524,-4.0524,-4.0524,-4.0593,-4.0715,-4.0593,-4.1276,-4.2205,-4.1706,-4.1706,-4.2013,-4.1771,-4.1656,-4.1525,-4.1706,-4.182,-4.2078,-4.2583,-4.2831,-4.2953,-4.2769,-4.3136,-4.3376,-4.3092,-4.2707,-4.2332,-4.1836,-4.1075,-4.0524,-4.0524,-4.0524,-4.0524,-4.0524,-4.0524,-4.0586,-4.0755,-4.1247,-4.1709,-4.2017,-4.294,-4.3633,-4.3787,-4.4264,-4.4572,-4.4572,-4.4572,-4.4572,-4.4572,-4.4572,-4.4572,-4.4572,-4.4572,-4.4572,-4.4572,-4.4572,-4.4572,-4.4572,-4.4572,-4.4572,-4.4572,-4.4572,-4.4572,-3.9424,-3.999,-4.0622,-4.0622,-4.013,0.0,-3.9681,-4.0478,0.0,-4.1343,0.0,0.0,0.0,0.0,0.0,-4.4587,-4.4587,-4.4587,-4.4587,0.0,-4.4587,-4.4587,-4.4587,-4.4587,-4.4587,-4.4587,-4.4587,-4.4587,-4.4587,-4.431,-4.3647,-4.3571,-4.3257,-4.2583,-4.1965,-4.1641,-4.1575,-4.0956,-4.0956,-4.1525,-4.1525,-4.1158,-4.0524,-4.0524,-4.0524,-4.0524,-4.0524,-4.0524,-4.0524,-4.0524,-4.0524,-4.0524,-4.0524,-4.0904,-4.1327,-4.0715,-4.0956,-4.1591,-4.1525,-4.1142,-4.0836,-4.2013,-4.2013,-4.1656,-4.2269,-4.2892,-4.3393,-4.3376,-4.3914,-4.431,-4.3588,-4.3436,-4.3647,-4.431,-4.3469,-4.252,-4.2458,-4.1393,-4.0524,-4.0524,-4.0524,-4.0524,-4.0524,-4.0524,-4.0755,-4.1432,-4.1571,-4.2048,-4.3264,-4.351,-4.3818,-4.4433,-4.4556,-4.4572,-4.4572,-4.4572,-4.4572,-4.4572,-4.4572,-4.4572,-4.4572,-4.4572,-4.4572,-4.4572,-4.4572,-4.4572,-4.4572,-4.4572,-4.4572,-4.4572,-4.4572,-4.4572,-3.9625,-3.9895,-4.0301,-4.0301,0.0,0.0,0.0,-4.1311,-4.1965,-4.2013,-4.2831,0.0,0.0,0.0,-4.4047,-4.4514,-4.4587,-4.4587,-4.4587,-4.4587,-4.4587,-4.4587,-4.4587,-4.444,-4.3972,-4.3914,-4.3722,-4.335,-4.329,-4.3152,-4.2892,-4.2892,-4.2583,-4.1901,-4.1641,-4.1276,-4.0904,-4.0662,-4.0662,-4.0904,-4.0904,-4.0783,-4.0524,-4.0524,-4.0524,-4.0524,-4.0524,-4.0524,-4.0524,-4.0524,-4.0524,-4.0524,-4.0524,-4.0904,-4.1393,-4.0783,-4.1209,-4.2078,-4.1641,-4.1591,-4.1836,-4.2332,-4.2332,-4.2269,-4.2953,-4.3317,-4.3512,-4.3512,-4.4047,-4.4514,-4.4253,-4.4179,-4.4121,-4.3972,-4.3213,-4.2395,-4.1965,-4.1142,-4.0524,-4.0524,-4.0524,-4.0524,-4.0524,-4.0893,-4.1294,-4.1555,-4.2294,-4.3002,-4.3494,-4.3941,-4.4295,-4.4556,-4.4572,-4.4572,-4.4572,-4.4572,-4.4572,-4.4572,-4.4572,-4.4572,-4.4572,-4.4572,-4.4572,-4.4572,-4.4572,-4.4572,-4.4572,-4.4572,-4.4572,-4.4572,-4.4572,-4.4572,-3.9768,-4.0106,-4.0385,0.0,0.0,0.0,0.0,-4.1706,-4.2013,-4.1885,-4.2583,0.0,-4.444,0.0,0.0,0.0,-4.4587,-4.4587,-4.4587,-4.4587,-4.4587,-4.4587,-4.4587,-4.4384,-4.3914,-4.3647,-4.3317,-4.2831,-4.2645,-4.2395,-4.2205,-4.2205,-4.1901,-4.1209,-4.1209,-4.0956,-4.0524,-4.0524,-4.0524,-4.0524,-4.0524,-4.0524,-4.0524,-4.0524,-4.0524,-4.0524,-4.0524,-4.0524,-4.0524,-4.0524,-4.0524,-4.0524,-4.0524,-4.0904,-4.1393,-4.0783,-4.1209,-4.2141,-4.1901,-4.1949,-4.2269,-4.297,-4.3031,-4.2953,-4.3647,-4.3839,-4.3839,-4.3839,-4.4236,-4.4587,-4.4587,-4.4587,-4.444,-4.3706,-4.3015,-4.2395,-4.1885,-4.1276,-4.0836,-4.0836,-4.0836,-4.0845,-4.0816,-4.1278,-4.174,-4.2155,-4.2987,-4.3648,-4.3864,-4.4295,-4.4572,-4.4572,-4.4572,-4.4572,-4.4572,-4.4572,-4.4572,-4.4572,-4.4572,-4.4572,-4.4572,-4.4572,-4.4572,-4.4572,-4.4572,-4.4572,-4.4572,-4.4572,-4.4572,-4.4572,-4.4572,-4.4572,-3.9996,-4.0646,0.0,0.0,0.0,0.0,0.0,-4.1525,-4.1327,-4.0646,0.0,-4.297,-4.431,-4.4587,0.0,-4.4587,-4.4587,-4.4587,-4.4587,-4.457,-4.457,-4.457,-4.457,-4.457,-4.457,-4.3914,-4.3512,-4.3453,-4.2831,-4.2205,-4.1525,-4.1525,-4.1209,-4.0524,-4.0524,-4.0524,-4.0524,-4.0524,-4.0524,-4.0524,-4.0524,-4.0524,-4.0524,-4.0524,-4.0524,-4.0524,-4.0524,-4.0524,-4.0524,-4.0524,-4.0524,-4.0524,-4.0524,-4.0904,-4.1393,-4.0768,-4.0888,-4.1575,-4.2269,-4.2078,-4.1836,-4.3931,-4.4105,-4.3647,-4.4367,-4.4587,-4.4587,-4.4587,-4.4587,-4.4587,-4.4587,-4.4587,-4.444,-4.3706,-4.3015,-4.252,-4.252,-4.1949,-4.1525,-4.1525,-4.1525,-4.1512,-4.1604,-4.1617,-4.2063,-4.3371,-4.3571,-4.3818,-4.4495,-4.4572,-4.4572,-4.4572,-4.4572,-4.4572,-4.4572,-4.4572,-4.4572,-4.4572,-4.4572,-4.4572,-4.4572,-4.4572,-4.4572,-4.4572,-4.4572,-4.4572,-4.4572,-4.4572,-4.4572,-4.4572,-4.4572,-4.4572,-4.0888,0.0,0.0,0.0,0.0,0.0,0.0,0.0,0.0,0.0,-4.335,-4.3931,-4.3839,0.0,0.0,-4.4587,-4.4587,-4.4587,-4.4587,-4.4162,-4.3839,-4.3839,-4.341,-4.2909,-4.2474,-4.2221,-4.1901,-4.1393,-4.1209,-4.1024,-4.0836,-4.0783,-4.0715,-4.0524,-4.0524,-4.0524,-4.0524,-4.0524,-4.0524,-4.0524,-4.0524,-4.0524,-4.0524,-4.0524,-4.0524,-4.0524,-4.0524,-4.0524,-4.0524,-4.0524,-4.0524,-4.0524,-4.0524,-4.0646,-4.0768,-4.0593,-4.0888,-4.1525,-4.1706,-4.2269,-4.3015,-4.3647,-4.4047,-4.431,-4.4514,-4.4587,-4.4587,-4.4587,-4.4587,-4.4587,-4.4587,-4.4587,-4.444,-4.3706,-4.3333,-4.3075,-4.2583,-4.2332,-4.2078,-4.1575,-4.1936,-4.2108,-4.1696,-4.2371,-4.3125,-4.351,-4.3972,-4.4356,-4.4556,-4.4572,-4.4572,-4.4572,-4.4572,-4.4572,-4.4572,-4.4572,-4.4572,-4.4572,-4.4572,-4.4572,-4.4572,-4.4572,-4.4572,-4.4572,-4.4572,-4.4572,-4.4572,-4.4572,-4.4572,-4.4572,-4.4572,-4.4572,-4.1158,0.0,0.0,0.0,0.0,0.0,0.0,0.0,0.0,0.0,0.0,-4.4105,-4.3972,-4.431,0.0,-4.4587,-4.4587,-4.4587,-4.4587,-4.4236,-4.3839,-4.3512,-4.3136,-4.2645,-4.1949,-4.1656,-4.1327,-4.0904,-4.0646,-4.0524,-4.0524,-4.0524,-4.0524,-4.0524,-4.0524,-4.0524,-4.0524,-4.0524,-4.0524,-4.0524,-4.0524,-4.0524,-4.0524,-4.0524,-4.0524,-4.0524,-4.0524,-4.0524,-4.0524,-4.0524,-4.0524,-4.0524,-4.0768,-4.0904,-4.0904,-4.1209,-4.1525,-4.1965,-4.2205,-4.2814,-4.3571,-4.3839,-4.4236,-4.4587,-4.4587,-4.4587,-4.4587,-4.4587,-4.4587,-4.4587,-4.4587,-4.4587,-4.444,-4.3706,-4.3512,-4.3393,-4.3015,-4.2707,-4.2395,-4.1965,-4.2309,-4.2454,-4.2083,-4.2879,-4.3664,-4.3941,-4.431,-4.4572,-4.4572,-4.4572,-4.4572,-4.4572,-4.4572,-4.4572,-4.4572,-4.4572,-4.4572,-4.4572,-4.4572,-4.4572,-4.4572,-4.4572,-4.4572,-4.4572,-4.4572,-4.4572,-4.4572,-4.4572,-4.4572,-4.4572,-4.4572,-4.4572,0.0,0.0,0.0,0.0,0.0,0.0,0.0,0.0,0.0,-4.3196,0.0,-4.3588,-4.4196,-4.4384,-4.4384,-4.4384,-4.4384,-4.4384,-4.4384,-4.4384,-4.4064,-4.3393,-4.3257,-4.3015,-4.2395,-4.1771,-4.1393,-4.1393,-4.0836,-4.0524,-4.0524,-4.0524,-4.0524,-4.0524,-4.0524,-4.0524,-4.0524,-4.0524,-4.0524,-4.0524,-4.0524,-4.0524,-4.0524,-4.0524,-4.0524,-4.0524,-4.0524,-4.0524,-4.0524,-4.0593,-4.0578,-4.0646,-4.1343,-4.1575,-4.1641,-4.2269,-4.252,-4.2707,-4.3257,-4.3571,-4.3706,-4.4367,-4.4587,-4.4587,-4.4587,-4.4587,-4.4587,-4.4587,-4.4587,-4.4587,-4.4587,-4.4587,-4.444,-4.3781,-4.3571,-4.3571,-4.3571,-4.3136,-4.2661,-4.2601,-4.2717,-4.2742,-4.2716,-4.3233,-4.3879,-4.4495,-4.4572,-4.4572,-4.4572,-4.4572,-4.4572,-4.4572,-4.4572,-4.4572,-4.4572,-4.4572,-4.4572,-4.4572,-4.4572,-4.4572,-4.4572,-4.4572,-4.4572,-4.4572,-4.4572,-4.4572,-4.4572,-4.4572,-4.4572,-4.4572,-4.4572,-4.4572,0.0,0.0,0.0,0.0,0.0,0.0,0.0,0.0,0.0,-4.2221,-4.2332,-4.2583,-4.2221,-4.2599,-4.2953,-4.2953,-4.2953,-4.2953,-4.2953,-4.2537,-4.2094,-4.1965,-4.1459,-4.1091,-4.0956,-4.0768,-4.0715,-4.0715,-4.0593,-4.0524,-4.0524,-4.0524,-4.0524,-4.0524,-4.0524,-4.0524,-4.0524,-4.0524,-4.0524,-4.0524,-4.0524,-4.0524,-4.0524,-4.0524,-4.0524,-4.0524,-4.0524,-4.0524,-4.0524,-4.1091,-4.126,-4.1327,-4.2013,-4.2269,-4.2332,-4.2458,-4.2831,-4.3317,-4.3453,-4.3898,-4.4384,-4.457,-4.4587,-4.4587,-4.4587,-4.4587,-4.4587,-4.4587,-4.4587,-4.4587,-4.4587,-4.4587,-4.457,-4.4384,-4.4367,-4.4367,-4.4367,-4.4253,-4.3981,-4.3488,-4.3783,-4.397,-4.3453,-4.391,-4.4402,-4.4556,-4.4572,-4.4572,-4.4572,-4.4572,-4.4572,-4.4572,-4.4572,-4.4572,-4.4572,-4.4572,-4.4572,-4.4572,-4.4572,-4.4572,-4.4572,-4.4572,-4.4572,-4.4572,-4.4572,-4.4572,-4.4572,-4.4572,-4.4572,-4.4572,-4.4572,-4.4572,0.0,0.0,0.0,0.0,0.0,0.0,0.0,0.0,0.0,0.0,-4.2348,-4.329,-4.2583,-4.2769,-4.2892,-4.2583,-4.252,-4.252,-4.252,-4.2205,-4.1836,-4.1525,-4.1209,-4.0836,-4.0524,-4.0524,-4.0524,-4.0524,-4.0524,-4.0524,-4.0524,-4.0524,-4.0524,-4.0524,-4.0524,-4.0524,-4.0524,-4.0524,-4.0524,-4.0524,-4.0524,-4.0524,-4.0524,-4.0524,-4.0524,-4.0524,-4.0524,-4.0646,-4.1024,-4.1343,-4.1706,-4.2013,-4.2707,-4.2953,-4.3015,-4.335,-4.3722,-4.4047,-4.4047,-4.431,-4.4587,-4.4587,-4.4587,-4.4587,-4.4587,-4.4587,-4.4587,-4.4587,-4.4587,-4.4587,-4.4587,-4.4587,-4.4587,-4.4587,-4.4587,-4.4587,-4.4587,-4.431,-4.4073,-4.4138,-4.409,-4.4124,-4.4147,-4.4409,-4.4572,-4.4572,-4.4572,-4.4572,-4.4572,-4.4572,-4.4572,-4.4572,-4.4572,-4.4572,-4.4572,-4.4572,-4.4572,-4.4572,-4.4572,-4.4572,-4.4572,-4.4572,-4.4572,-4.4572,-4.4572,-4.4572,-4.4572,-4.4572,-4.4572,-4.4572,-4.4572,-4.4572,0.0,0.0,0.0,0.0,0.0,0.0,0.0,0.0,0.0,0.0,-4.249,-4.368,-4.3075,-4.2953,-4.2831,-4.2269,-4.2141,-4.2141,-4.2141,-4.2141,-4.1965,-4.1393,-4.1343,-4.1091,-4.0524,-4.0524,-4.0524,-4.0524,-4.0524,-4.0524,-4.0524,-4.0524,-4.0524,-4.0524,-4.0524,-4.0524,-4.0524,-4.0524,-4.0524,-4.0524,-4.0524,-4.0524,-4.0524,-4.0646,-4.0593,-4.0524,-4.0646,-4.0956,-4.1525,-4.1771,-4.2141,-4.2769,-4.3393,-4.3706,-4.3764,-4.4384,-4.4587,-4.4587,-4.4587,-4.4587,-4.4587,-4.4587,-4.4587,-4.4587,-4.4587,-4.4587,-4.4587,-4.4587,-4.4587,-4.4587,-4.4587,-4.4587,-4.4587,-4.4587,-4.4587,-4.4587,-4.4587,-4.4147,-4.3883,-4.4521,-4.4182,-4.3985,-4.4622,-4.4635,-4.4572,-4.4572,-4.4572,-4.4572,-4.4572,-4.4572,-4.4572,-4.4572,-4.4572,-4.4572,-4.4572,-4.4572,-4.4572,-4.4572,-4.4572,-4.4572,-4.4572,-4.4572,-4.4572,-4.4572,-4.4572,-4.4572,-4.4572,-4.4572,-4.4572,-4.4572,-4.4572,-4.4572,0.0,0.0,0.0,0.0,0.0,0.0,0.0,0.0,0.0,0.0,-4.1591,-4.1039,-4.0904,-4.0904,-4.0904,-4.0768,-4.0783,-4.0783,-4.0783,-4.0783,-4.0715,-4.0646,-4.0646,-4.0593,-4.0524,-4.0524,-4.0524,-4.0524,-4.0524,-4.0524,-4.0524,-4.0524,-4.0524,-4.0524,-4.0524,-4.0524,-4.0524,-4.0524,-4.0524,-4.0524,-4.0524,-4.0524,-4.0524,-4.1091,-4.1024,-4.0524,-4.1075,-4.1393,-4.1575,-4.2769,-4.3257,-4.3453,-4.4179,-4.444,-4.444,-4.457,-4.4587,-4.4587,-4.4587,-4.4587,-4.4587,-4.4587,-4.4587,-4.4587,-4.4587,-4.4587,-4.4587,-4.4587,-4.4587,-4.4587,-4.4587,-4.4587,-4.4587,-4.4587,-4.4587,-4.4587,-4.4587,-4.4507,-4.4476,-4.461,-4.4543,-4.4476,-4.4569,-4.4586,-4.4572,-4.4572,-4.4572,-4.4572,-4.4572,-4.4572,-4.4572,-4.4572,-4.4572,-4.4572,-4.4572,-4.4572,-4.4572,-4.4572,-4.4572,-4.4572,-4.4572,-4.4572,-4.4572,-4.4572,-4.4572,-4.4572,-4.4572,-4.4572,-4.4572,-4.4572,-4.4572,-4.4572,0.0,0.0,0.0,0.0,0.0,0.0,0.0,0.0,0.0,0.0,-4.0904,-4.0578,-4.0956,-4.1091,-4.0956,-4.0593,-4.0524,-4.0524,-4.0524,-4.0524,-4.0524,-4.0524,-4.0524,-4.0524,-4.0524,-4.0524,-4.0524,-4.0524,-4.0524,-4.0524,-4.0524,-4.0524,-4.0524,-4.0524,-4.0524,-4.0524,-4.0524,-4.0524,-4.0524,-4.0524,-4.0524,-4.0524,-4.0524,-4.1209,-4.1343,-4.1091,-4.1771,-4.2269,-4.2645,-4.3257,-4.3706,-4.4179,-4.444,-4.4587,-4.4587,-4.4587,-4.4587,-4.4587,-4.4587,-4.4587,-4.4587,-4.4587,-4.4587,-4.4587,-4.4587,-4.4587,-4.4587,-4.4587,-4.4587,-4.4587,-4.4587,-4.4587,-4.4587,-4.4587,-4.4587,-4.4587,-4.4587,-4.4591,-4.4614,-4.4609,-4.4946,-4.5067,-4.4648,-4.4572,-4.4572,-4.4572,-4.4572,-4.4572,-4.4572,-4.4572,-4.4572,-4.4572,-4.4572,-4.4572,-4.4572,-4.4572,-4.4572,-4.4572,-4.4572,-4.4572,-4.4572,-4.4572,-4.4572,-4.4572,-4.4572,-4.4572,-4.4572,-4.4572,-4.4572,-4.4572,-4.4572,-4.4572,0.0,0.0,0.0,0.0,0.0,0.0,0.0,0.0,0.0,0.0,-4.0524,-4.0646,-4.1142,-4.1276,-4.1091,-4.0593,-4.0524,-4.0524,-4.0524,-4.0524,-4.0524,-4.0524,-4.0524,-4.0524,-4.0524,-4.0524,-4.0524,-4.0524,-4.0524,-4.0524,-4.0524,-4.0524,-4.0524,-4.0524,-4.0524,-4.0524,-4.0524,-4.0524,-4.0524,-4.0524,-4.0524,-4.0593,-4.0768,-4.1459,-4.1836,-4.2029,-4.252,-4.3015,-4.3512,-4.3706,-4.4105,-4.4587,-4.4587,-4.4587,-4.4587,-4.4587,-4.4587,-4.4587,-4.4587,-4.4587,-4.4587,-4.4587,-4.4587,-4.4587,-4.4587,-4.4587,-4.4587,-4.4587,-4.4587,-4.4587,-4.4587,-4.4587,-4.4587,-4.4587,-4.4587,-4.4615,-4.4607,-4.4616,-4.4593,-4.4599,-4.5076,-4.529,-4.4723,-4.4572,-4.4572,-4.4572,-4.4572,-4.4572,-4.4572,-4.4572,-4.4572,-4.4572,-4.4572,-4.4572,-4.4572,-4.4572,-4.4572,-4.4572,-4.4572,-4.4572,-4.4572,-4.4572,-4.4572,-4.4572,-4.4572,-4.4572,-4.4572,-4.4572,-4.4572,-4.4572,-4.4572,-4.4572,0.0,0.0,0.0,0.0,0.0,0.0,0.0,0.0,0.0,0.0,0.0,-4.0524,-4.0524,-4.0524,-4.0524,-4.0524,-4.0524,-4.0524,-4.0524,-4.0524,-4.0524,-4.0524,-4.0524,-4.0524,-4.0524,-4.0524,-4.0524,-4.0524,-4.0524,-4.0524,-4.0524,-4.0524,-4.0524,-4.0524,-4.0524,-4.0524,-4.0524,-4.0524,-4.0524,-4.0524,-4.0524,-4.0836,-4.1459,-4.2141,-4.2769,-4.3393,-4.3436,-4.3453,-4.3571,-4.4236,-4.457,-4.4587,-4.4587,-4.4587,-4.4587,-4.4587,-4.4587,-4.4587,-4.4587,-4.4587,-4.4587,-4.4587,-4.4587,-4.4587,-4.4587,-4.4587,-4.4587,-4.4587,-4.4587,-4.4587,-4.4587,-4.4587,-4.4587,-4.4587,-4.4587,-4.4582,-4.4625,-4.4609,-4.4593,-4.4607,-4.4617,-4.4648,-4.4572,-4.4572,-4.4572,-4.4572,-4.4572,-4.4572,-4.4572,-4.4572,-4.4572,-4.4572,-4.4572,-4.4572,-4.4572,-4.4572,-4.4572,-4.4572,-4.4572,-4.4572,-4.4572,-4.4572,-4.4572,-4.4572,-4.4572,-4.4572,-4.4572,-4.4572,-4.4572,-4.4572,-4.4572,-4.4572,0.0,0.0,0.0,0.0,0.0,0.0,0.0,0.0,0.0,0.0,0.0,-4.0524,-4.0524,-4.0524,-4.0524,-4.0524,-4.0524,-4.0524,-4.0524,-4.0524,-4.0524,-4.0524,-4.0524,-4.0524,-4.0524,-4.0401,-4.0401,-4.0455,-4.0401,-4.0401,-4.0539,-4.0524,-4.0524,-4.0524,-4.0524,-4.0524,-4.0524,-4.0524,-4.0524,-4.0524,-4.0972,-4.1276,-4.1525,-4.2645,-4.3257,-4.3512,-4.3972,-4.4179,-4.4236,-4.4497,-4.4587,-4.4587,-4.4587,-4.4587,-4.4587,-4.4587,-4.4587,-4.4587,-4.4587,-4.4587,-4.4587,-4.4587,-4.4587,-4.4587,-4.4587,-4.4587,-4.4587,-4.4587,-4.4587,-4.4587,-4.4587,-4.4587,-4.4587,-4.4587,-4.4236,-4.3886,-4.3928,-4.4317,-4.4581,-4.4589,-4.4564,-4.4572,-4.4572,-4.4572,-4.4572,-4.4572,-4.4572,-4.4572,-4.4572,-4.4572,-4.4572,-4.4572,-4.4572,-4.4572,-4.4572,-4.4572,-4.4572,-4.4572,-4.4572,-4.4572,-4.4572,-4.4156,-4.3941,-4.3941,-4.3525,-4.3725,-4.4572,-4.4141,-4.3941,-4.3925,-4.351,-4.331,0.0,0.0,0.0,0.0,0.0,0.0,0.0,0.0,0.0,0.0,0.0,-4.0524,-4.0524,-4.0524,-4.0524,-4.0524,-4.0524,-4.0524,-4.0524,-4.0524,-4.0455,-4.047,-4.047,-4.047,-4.047,-4.0261,-4.0261,-4.0401,-4.0331,-4.0331,-4.0401,-4.047,-4.0524,-4.0524,-4.0524,-4.0524,-4.0524,-4.0524,-4.0524,-4.0524,-4.1209,-4.1641,-4.1901,-4.3015,-4.3647,-4.3914,-4.4384,-4.4587,-4.4587,-4.4587,-4.4587,-4.4587,-4.4587,-4.4587,-4.4587,-4.4587,-4.4587,-4.4587,-4.4587,-4.4587,-4.4587,-4.4587,-4.4587,-4.4587,-4.4587,-4.4587,-4.4587,-4.4587,-4.4587,-4.4587,-4.4587,-4.4587,-4.4587,-4.4587,-4.4236,-4.3796,-4.3591,-4.3767,-4.391,-4.3945,-4.3971,-4.3925,-4.3925,-4.4095,-4.4233,-4.4233,-4.4433,-4.4572,-4.4572,-4.4572,-4.4572,-4.4572,-4.4372,-4.4233,-4.4233,-4.4048,-4.3925,-4.3925,-4.3925,-4.3925,-4.3925,-4.3479,-4.3248,-4.3248,-4.2833,-4.3048,-4.3925,-4.3464,-4.3248,-4.3233,-4.2817,-4.2602,0.0,0.0,0.0,0.0,0.0,0.0,0.0,0.0,0.0,0.0,0.0,-4.0524,-4.0524,-4.0524,-4.0524,-4.0524,-4.0524,-4.0524,-4.0524,-4.0524,-4.0455,-4.0347,-4.0277,-4.0277,-4.0277,-4.0137,-4.0066,-4.0277,-4.0277,-4.0277,-4.0277,-4.0401,-4.0524,-4.0524,-4.0524,-4.0524,-4.0524,-4.0524,-4.0524,-4.0524,-4.1209,-4.1836,-4.252,-4.3196,-4.3898,-4.4587,-4.4587,-4.4587,-4.4587,-4.4587,-4.4587,-4.4587,-4.4587,-4.4587,-4.4587,-4.4587,-4.4587,-4.4587,-4.4587,-4.4587,-4.4587,-4.4587,-4.4587,-4.4587,-4.4587,-4.4587,-4.4587,-4.4587,-4.4587,-4.4587,-4.4587,-4.4587,-4.4587,-4.4587,-4.457,-4.431,-4.3647,-4.296,-4.2532,-4.2577,-4.2586,-4.2602,-4.2602,-4.3125,-4.3541,-4.3541,-4.4095,-4.4526,-4.4526,-4.4526,-4.4526,-4.4526,-4.3941,-4.3541,-4.3541,-4.2971,-4.2602,-4.2602,-4.2602,-4.2602,-4.2602,-4.2586,-4.2586,-4.2586,-4.2556,-4.254,-4.254,-4.2571,-4.2586,-4.2586,-4.2556,-4.254,-4.4587,0.0,0.0,0.0,0.0,0.0,0.0,0.0,0.0,0.0,0.0,0.0,-4.0524,-4.0524,-4.0524,-4.0524,-4.0524,-4.0524,-4.0524,-4.0524,-4.0455,-4.047,-4.0331,-4.0277,-4.0277,-3.998,-3.9854,0.0,-4.0066,-4.0137,-4.0277,-4.0401,-4.0524,-4.0524,-4.0524,-4.0524,-4.0524,-4.0524,-4.0524,-4.0524,-4.1209,-4.1836,-4.252,-4.3196,-4.3898,-4.4587,-4.4587,-4.4587,-4.4587,-4.4587,-4.4587,-4.4587,-4.4587,-4.4587,-4.4587,-4.4587,-4.4587,-4.4587,-4.4587,-4.4587,-4.4587,-4.4587,-4.4587,-4.4587,-4.4587,-4.4587,-4.4587,-4.4587,-4.4587,-4.4587,-4.4587,-4.4587,-4.4587,-4.4587,-4.3798,-4.3031,-4.2831,-4.1865,-4.1417,-4.2379,-4.2605,-4.2602,-4.2602,-4.2756,-4.2879,-4.2879,-4.3033,-4.3156,-4.3156,-4.3156,-4.3156,-4.3156,-4.2987,-4.2879,-4.2879,-4.2709,-4.2602,-4.2602,-4.2602,-4.2602,-4.2602,-4.214,-4.1878,-4.1878,-4.137,-4.1109,-4.1109,-4.1632,-4.1878,-4.1863,-4.134,-4.1109,0.0,0.0,0.0,0.0,0.0,0.0,-4.1091,-4.0715,-4.0524,0.0,-4.0524,0.0,-4.0524,-4.0524,-4.0524,-4.0524,-4.0524,-4.0524,-4.0524,-4.0524,-4.0455,-4.0401,-4.0261,-4.0137,-4.0137,-3.9839,-3.9625,-3.9854,-3.9925,-4.0137,-4.0401,-4.047,-4.0524,-4.0524,-4.0524,-4.0524,-4.0524,-4.0524,-4.0524,-4.0524,-4.1209,-4.1836,-4.252,-4.3196,-4.3898,-4.4587,-4.4587,-4.4587,-4.4587,-4.4587,-4.4587,-4.4587,-4.4587,-4.4587,-4.4587,-4.4587,-4.4587,-4.4587,-4.4587,-4.4587,-4.4587,-4.4587,-4.4587,-4.4587,-4.4587,-4.4587,-4.4587,-4.4587,-4.4587,-4.4587,-4.4587,-4.4587,-4.4514,-4.4236,-4.3529,-4.2753,-4.2205,-4.1459,-4.1096,-4.1638,-4.1728,-4.174,-4.174,-4.1986,-4.2186,-4.2186,-4.2432,-4.2602,-4.2602,-4.2602,-4.2602,-4.2602,-4.2355,-4.2186,-4.2186,-4.1909,-4.174,-4.174,-4.174,-4.174,-4.174,-4.1355,-4.1155,-4.1155,-4.0739,-4.0524,-4.0524,-4.094,-4.1155,-4.114,-4.0724,-4.0524,0.0,0.0,0.0,0.0,-4.2078,0.0,-4.1525,-4.1024,-4.0593,-4.0524,-4.0524,0.0,0.0,-4.0524,-4.0524,-4.0524,-4.0524,-4.0524,-4.0524,-4.0455,-4.047,-4.0331,-4.0066,-3.9996,-3.9996,-3.964,-3.9481,-3.961,-3.9854,-4.0137,-4.0455,-4.0524,-4.0524,-4.0524,-4.0524,-4.0524,-4.0524,-4.0524,-4.0524,-4.0524,-4.1209,-4.1836,-4.252,-4.3196,-4.3898,-4.4587,-4.4587,-4.4587,-4.4587,-4.4587,-4.4587,-4.4587,-4.4587,-4.4587,-4.4587,-4.4587,-4.4587,-4.4587,-4.4587,-4.4587,-4.4587,-4.4587,-4.4587,-4.4587,-4.4587,-4.4587,-4.4587,-4.4587,-4.4587,-4.4587,-4.4587,-4.4587,-4.444,-4.3706,-4.3453,-4.3015,-4.1771,-4.1459,-4.1209,-4.0593,-4.0524,-4.0524,-4.0524,-4.1063,-4.1478,-4.1478,-4.2001,-4.2371,-4.2371,-4.2371,-4.2371,-4.2371,-4.1832,-4.1478,-4.1478,-4.0893,-4.0524,-4.0524,-4.0524,-4.0524,-4.0524,-4.0524,-4.0524,-4.0524,-4.0524,-4.0524,-4.0524,-4.0524,-4.0524,-4.0524,-4.0524,-4.0524,0.0,0.0,-4.3196,-4.2645,-4.2395,0.0,-4.1641,-4.1393,-4.1142,0.0,0.0,0.0,0.0,0.0,-4.0524,-4.0524,-4.0524,-4.0524,-4.0524,-4.0401,-4.0347,-4.0277,-3.998,-3.9768,-3.9768,-3.9553,-3.9424,-3.9496,-3.9783,-4.0137,-4.0455,-4.0524,-4.0524,-4.0524,-4.0524,-4.0524,-4.0524,-4.0524,-4.0524,-4.0524,-4.1209,-4.1836,-4.252,-4.3196,-4.3898,-4.4587,-4.4587,-4.4587,-4.4587,-4.4587,-4.4587,-4.4587,-4.4587,-4.4587,-4.4587,-4.4587,-4.4587,-4.4587,-4.4587,-4.4587,-4.4587,-4.4587,-4.4587,-4.4587,-4.4587,-4.4587,-4.4587,-4.4587,-4.4587,-4.4587,-4.4587,-4.4587,-4.444,-4.3706,-4.3075,-4.2458,-4.1641,-4.1091,-4.0646,-4.0524,-4.0524,-4.0524,-4.0524,-4.0647,-4.0739,-4.0739,-4.0847,-4.094,-4.094,-4.094,-4.094,-4.094,-4.0816,-4.0739,-4.0739,-4.0601,-4.0524,-4.0524,-4.0524,-4.0524,-4.0524,-4.0524,-4.0524,-4.0524,-4.0524,-4.0524,-4.0524,-4.0524,-4.0524,-4.0524,-4.0524,-4.0524,0.0,-4.252,-4.2332,-4.1641,-4.1525,0.0,0.0,-4.1024,-4.0904,-4.0593,-4.0524,0.0,0.0,0.0,-4.0524,-4.0524,-4.0524,-4.047,-4.0401,-4.0331,-4.0277,-4.0277,-3.9965,-3.9681,-3.9681,-3.9553,-3.9496,-3.9711,-3.9854,-4.0137,-4.0455,-4.0524,-4.0524,-4.0524,-4.0524,-4.0524,-4.0524,-4.0524,-4.0524,-4.0524,-4.1209,-4.1836,-4.252,-4.3196,-4.3898,-4.4587,-4.4587,-4.4587,-4.4587,-4.4587,-4.4587,-4.4587,-4.4587,-4.4587,-4.4587,-4.4587,-4.4587,-4.4587,-4.4587,-4.4587,-4.4587,-4.4587,-4.4587,-4.4587,-4.4587,-4.4587,-4.4587,-4.4587,-4.4587,-4.4587,-4.4587,-4.4587,-4.431,-4.3273,-4.3015,-4.2645,-4.1276,-4.1024,-4.0904,-4.0593,-4.0524,-4.0524,-4.0524,-4.0524,-4.0524,-4.0524,-4.0524,-4.0524,-4.0524,-4.0524,-4.0524,-4.0524,-4.0524,-4.0524,-4.0524,-4.0524,-4.0524,-4.0524,-4.0524,-4.0524,-4.0524,-4.0524,-4.0524,-4.0524,-4.0524,-4.0524,-4.0524,-4.0524,-4.0524,-4.0524,-4.0524,-4.0524,-4.2013,-4.174,-4.1236,-4.0805,-4.0622,-4.0545,0.0,0.0,0.0,0.0,0.0,0.0,0.0,0.0,0.0,0.0,0.0,0.0,0.0,-4.0255,0.0,-4.0191,-3.991,-3.9681,-3.9625,-3.9481,-3.9568,-3.994,-4.0011,-4.0137,-4.0455,-4.0524,-4.0524,-4.0524,-4.0524,-4.0524,-4.0524,-4.0524,-4.0524,-4.0524,-4.1209,-4.1836,-4.252,-4.3196,-4.3898,-4.4587,-4.4587,-4.4587,-4.4587,-4.4587,-4.4587,-4.4587,-4.4587,-4.4587,-4.4587,-4.4587,-4.4587,-4.4587,-4.4587,-4.4587,-4.4587,-4.4587,-4.4587,-4.4587,-4.4587,-4.4587,-4.4587,-4.4587,-4.4587,-4.4587,-4.4587,-4.4587,-4.4253,-4.3031,-4.3136,-4.3015,-4.1276,-4.1209,-4.1343,-4.0768,-4.0593,-4.0524,-4.0524,-4.0524,-4.0524,-4.0524,-4.0524,-4.0524,-4.0524,-4.0524,-4.0524,-4.0524,-4.0524,-4.0524,-4.0524,-4.0524,-4.0524,-4.0524,-4.0524,-4.0524,-4.0524,-4.0524,-4.0524,-4.0524,-4.0524,-4.0524,-4.0524,-4.0524,-4.0524,-4.0524,-4.0524,-4.0524,0.0,-4.0638,-4.0751,-4.1251,-4.0936,-4.0653,-4.1251,0.0,-4.1209,-4.0646,0.0,0.0,0.0,0.0,0.0,0.0,0.0,0.0,-3.9656,-4.0033,-4.0191,-3.9839,-3.9768,-3.9625,-3.9409,-3.9409,-3.9568,-3.994,-4.0011,-4.0137,-4.0455,-4.0524,-4.0524,-4.0524,-4.0524,-4.0524,-4.0524,-4.0524,-4.0524,-4.0524,-4.1209,-4.1836,-4.252,-4.3196,-4.3898,-4.4587,-4.4587,-4.4587,-4.4587,-4.4587,-4.4587,-4.4587,-4.4587,-4.4587,-4.4587,-4.4587,-4.4587,-4.4587,-4.4587,-4.4587,-4.4587,-4.4587,-4.4587,-4.4587,-4.4587,-4.4587,-4.4587,-4.4587,-4.4587,-4.4587,-4.4587,-4.4587,-4.4367,-4.3588,-4.3436,-4.3257,-4.2458,-4.1901,-4.1459,-4.1393,-4.0904,-4.0524,-4.0524,-4.0524,-4.0524,-4.0524,-4.0524,-4.0524,-4.0524,-4.0524,-4.0524,-4.0524,-4.0524,-4.0524,-4.0524,-4.0524,-4.0524,-4.0524,-4.0524,-4.0524,-4.0524,-4.0524,-4.0524,-4.0524,-4.0524,-4.0524,-4.0524,-4.0524,-4.0524,-4.0524,-4.0524,-4.0524,0.0,0.0,-3.9897,-3.9776,-3.957,-3.9539,-4.0224,-4.0313,-4.0355,-4.0516,0.0,0.0,0.0,0.0,0.0,0.0,-4.0339,0.0,0.0,0.0,-4.0331,0.0,0.0,0.0,-3.9409,-3.9481,-3.9696,-3.9996,-4.0137,-4.0261,-4.0455,-4.0524,-4.0524,-4.0524,-4.0524,-4.0524,-4.0524,-4.0524,-4.0524,-4.0524,-4.1575,-4.2205,-4.252,-4.3663,-4.431,-4.4587,-4.4587,-4.4587,-4.4587,-4.4587,-4.4587,-4.4587,-4.4587,-4.4587,-4.4587,-4.4587,-4.4587,-4.4587,-4.4587,-4.4587,-4.4587,-4.4587,-4.4587,-4.4587,-4.4587,-4.4587,-4.4587,-4.4587,-4.4587,-4.4587,-4.4587,-4.4587,-4.444,-4.3706,-4.3839,-4.3856,-4.2707,-4.2567,-4.2583,-4.2141,-4.1836,-4.1525,-4.1158,-4.0783,-4.0646,-4.1024,-4.0783,-4.0524,-4.0524,-4.0524,-4.0524,-4.0524,-4.0524,-4.0524,-4.0524,-4.0524,-4.0524,-4.0524,-4.0524,-4.0524,-4.0524,-4.0524,-4.0524,-4.0524,-4.0524,-4.0524,-4.0524,-4.0524,-4.0524,-4.0524,-4.0524,-4.0524,-3.9361,0.0,0.0,-3.8577,-3.8369,-3.8415,-3.9093,-3.9247,-3.9385,-3.9878,-4.0124,0.0,0.0,0.0,0.0,0.0,0.0,-4.0393,0.0,-4.0347,0.0,0.0,0.0,0.0,0.0,-3.9696,-3.9854,-4.0066,-4.0207,-4.0331,-4.0455,-4.0524,-4.0524,-4.0524,-4.0524,-4.0524,-4.0524,-4.0524,-4.0524,-4.0524,-4.1641,-4.2332,-4.252,-4.3739,-4.444,-4.4587,-4.4587,-4.4587,-4.4587,-4.4587,-4.4587,-4.4587,-4.4587,-4.4587,-4.4587,-4.4587,-4.4587,-4.4587,-4.4587,-4.4587,-4.4587,-4.4587,-4.4587,-4.4587,-4.4587,-4.4587,-4.4587,-4.4587,-4.4587,-4.4587,-4.4587,-4.4587,-4.444,-4.3914,-4.4236,-4.431,-4.329,-4.3136,-4.3075,-4.2583,-4.2205,-4.1836,-4.1525,-4.1091,-4.0904,-4.1209,-4.0836,-4.0524,-4.0524,-4.0524,-4.0524,-4.0524,-4.0524,-4.0524,-4.0524,-4.0524,-4.0524,-4.0524,-4.0524,-4.0524,-4.0524,-4.0524,-4.0524,-4.0524,-4.0524,-4.0524,-4.0524,-4.0524,-4.0524,-4.0524,-4.0524,-4.0524,0.0,0.0,0.0,-3.8338,-3.8015,-3.7707,-3.8385,-3.8539,-3.8554,-3.8569,-3.9093,-3.9554,-3.9554,0.0,0.0,0.0,0.0,0.0,0.0,0.0,0.0,0.0,0.0,0.0,0.0,-3.9996,-4.0066,-4.0277,-4.0277,-4.0331,-4.0455,-4.0524,-4.0524,-4.0524,-4.0524,-4.0524,-4.0524,-4.0524,-4.0524,-4.0524,-4.1209,-4.1901,-4.2504,-4.3196,-4.3914,-4.4587,-4.4587,-4.4587,-4.4587,-4.4587,-4.4587,-4.4587,-4.4587,-4.4587,-4.4587,-4.4587,-4.4587,-4.4587,-4.4587,-4.4587,-4.4587,-4.4587,-4.4587,-4.4587,-4.4587,-4.4587,-4.4587,-4.4587,-4.4587,-4.4587,-4.4587,-4.4587,-4.457,-4.457,-4.457,-4.4587,-4.4514,-4.3486,-4.252,-4.2504,-4.1459,-4.0768,-4.1393,-4.1459,-4.1276,-4.0662,-4.0524,-4.0524,-4.0524,-4.0524,-4.0524,-4.0524,-4.0524,-4.0524,-4.0524,-4.0524,-4.0524,-4.0524,-4.0524,-4.0524,-4.0524,-4.0524,-4.0524,-4.0524,-4.0524,-4.0524,-4.0524,-4.0524,-4.0524,-4.0524,-4.0524,-4.0524,-3.7292,-3.7015,-3.6892,-3.7123,-3.6999,-3.7015,-3.7692,-3.7846,-3.7969,-3.8415,-3.8692,-3.8846,-3.8846,0.0,0.0,0.0,0.0,0.0,0.0,0.0,0.0,0.0,0.0,0.0,0.0,0.0,-4.0207,-4.0277,-4.0401,-4.0455,-4.0524,-4.0524,-4.0524,-4.0524,-4.0524,-4.0524,-4.0524,-4.0524,-4.0715,-4.1142,-4.1836,-4.252,-4.3196,-4.3914,-4.4367,-4.4587,-4.4587,-4.4587,-4.4587,-4.4587,-4.4587,-4.4587,-4.4587,-4.4587,-4.4587,-4.4587,-4.4587,-4.4587,-4.4587,-4.4587,-4.4587,-4.4587,-4.4587,-4.4587,-4.4587,-4.4587,-4.4587,-4.4587,-4.4587,-4.4587,-4.4587,-4.4587,-4.4587,-4.4587,-4.4587,-4.444,-4.3972,-4.3529,-4.3015,-4.2583,-4.2141,-4.1771,-4.1525,-4.1525,-4.1393,-4.1209,-4.0768,-4.0524,-4.0524,-4.0524,-4.0524,-4.0524,-4.0524,-4.0524,-4.0524,-4.0524,-4.0524,-4.0524,-4.0524,-4.0524,-4.0524,-4.0524,-4.0524,-4.0524,-4.0524,-4.0524,-4.0524,-4.0524,-4.0524,-4.0524,-4.0524,-4.0524,-3.6615,-3.6492,-3.6492,-3.6492,-3.6492,-3.6599,-3.7046,-3.7138,-3.7261,-3.7707,-3.7984,-3.8154,-3.8154,0.0,0.0,0.0,0.0,0.0,0.0,-4.037,0.0,0.0,0.0,0.0,0.0,-4.0261,-4.0401,-4.0401,-4.0455,-4.0524,-4.0524,-4.0524,-4.0524,-4.0524,-4.0524,-4.0524,-4.0524,-4.0524,-4.0836,-4.1525,-4.2205,-4.2831,-4.3512,-4.4236,-4.4587,-4.4587,-4.4587,-4.4587,-4.4587,-4.4587,-4.4587,-4.4587,-4.4587,-4.4587,-4.4587,-4.4587,-4.4587,-4.4587,-4.4587,-4.4587,-4.4587,-4.4587,-4.4587,-4.4587,-4.4587,-4.4587,-4.4587,-4.4587,-4.4587,-4.4587,-4.4587,-4.4587,-4.4587,-4.4587,-4.4587,-4.444,-4.3972,-4.3706,-4.3376,-4.2953,-4.2458,-4.2013,-4.1575,-4.1276,-4.1142,-4.1142,-4.0768,-4.0524,-4.0524,-4.0524,-4.0524,-4.0524,-4.0524,-4.0524,-4.0524,-4.0524,-4.0524,-4.0524,-4.0524,-4.0524,-4.0524,-4.0524,-4.0647,-4.0909,-4.0662,-4.0647,-4.0909,-4.0647,-4.0524,-4.0524,-4.0524,-4.0524]},{"header":{"parameterUnit":"m.s-1","parameterCategory":1,"la1":30.6,"la2":29.2853,"lo1":-89.7004,"lo2":-87.6739,"dy":0.0162,"dx":0.0183,"nx":112,"ny":82,"refTime":"2023-03-27T06:00:00:Z","depth":0,"parameterNumber":3,"parameterNumberName":"V-component_of_WINDS"},"data":[0.0,0.0,0.0,0.0,0.0,0.0,0.0,0.0,0.0,0.0,0.0,0.0,0.0,0.0,0.0,0.0,0.0,0.0,0.0,0.0,0.0,0.0,0.0,0.0,0.0,0.0,0.0,0.0,0.0,0.0,0.0,0.0,0.0,0.0,0.0,0.0,0.0,0.0,0.0,0.0,0.0,0.0,0.0,0.0,0.0,0.0,0.0,0.0,0.0,0.0,0.0,0.0,0.0,0.0,0.0,0.0,0.0,0.0,0.0,0.0,0.0,0.0,0.0,0.0,0.0,0.0,0.0,0.0,0.0,0.0,0.0,0.0,0.0,0.0,0.0,0.0,0.0,0.0,0.0,0.0,0.0,0.0,0.0,0.0,0.0,0.0,0.0,0.0,0.0,0.0,-3.7694,-3.6987,-3.5631,-3.489,-3.5264,-3.5144,-3.5805,-3.7778,0.0,0.0,0.0,0.0,0.0,0.0,0.0,0.0,0.0,0.0,0.0,0.0,0.0,0.0,0.0,0.0,0.0,0.0,0.0,0.0,0.0,0.0,0.0,0.0,0.0,0.0,0.0,0.0,0.0,0.0,0.0,0.0,0.0,0.0,0.0,0.0,0.0,0.0,0.0,0.0,0.0,0.0,0.0,0.0,0.0,0.0,0.0,0.0,0.0,0.0,0.0,0.0,0.0,0.0,0.0,0.0,0.0,0.0,0.0,0.0,0.0,0.0,0.0,0.0,0.0,0.0,0.0,0.0,0.0,0.0,0.0,0.0,0.0,0.0,0.0,0.0,0.0,0.0,0.0,0.0,0.0,0.0,0.0,0.0,0.0,0.0,0.0,0.0,0.0,0.0,0.0,0.0,0.0,0.0,0.0,0.0,0.0,0.0,0.0,0.0,0.0,0.0,0.0,0.0,-3.7531,-3.6421,-3.614,-3.5603,-3.4678,-3.6398,-3.7394,-3.7337,0.0,0.0,0.0,0.0,0.0,0.0,0.0,0.0,0.0,0.0,0.0,0.0,0.0,0.0,0.0,0.0,0.0,0.0,0.0,0.0,0.0,0.0,0.0,0.0,0.0,0.0,0.0,0.0,0.0,0.0,0.0,0.0,0.0,0.0,0.0,0.0,0.0,0.0,0.0,0.0,0.0,0.0,0.0,0.0,0.0,0.0,0.0,0.0,0.0,0.0,0.0,0.0,0.0,0.0,0.0,0.0,0.0,0.0,0.0,0.0,0.0,0.0,0.0,0.0,0.0,0.0,0.0,0.0,0.0,0.0,0.0,0.0,0.0,0.0,0.0,0.0,0.0,0.0,0.0,0.0,0.0,0.0,0.0,0.0,0.0,0.0,0.0,0.0,0.0,0.0,0.0,0.0,0.0,0.0,0.0,0.0,0.0,0.0,0.0,0.0,0.0,0.0,0.0,-3.5724,-3.5264,-3.4148,-3.4235,-3.4285,-3.4238,-3.5406,-3.6557,-3.754,-3.7864,0.0,0.0,0.0,0.0,0.0,0.0,0.0,0.0,0.0,0.0,0.0,0.0,0.0,0.0,0.0,0.0,0.0,0.0,0.0,0.0,0.0,0.0,0.0,0.0,0.0,0.0,0.0,0.0,0.0,0.0,0.0,0.0,0.0,0.0,0.0,0.0,0.0,0.0,0.0,0.0,0.0,0.0,0.0,0.0,0.0,0.0,0.0,0.0,0.0,0.0,0.0,0.0,0.0,0.0,0.0,0.0,0.0,0.0,0.0,0.0,0.0,0.0,0.0,0.0,0.0,0.0,0.0,0.0,0.0,0.0,0.0,0.0,0.0,0.0,0.0,0.0,0.0,0.0,0.0,0.0,0.0,0.0,0.0,0.0,0.0,0.0,0.0,0.0,0.0,0.0,0.0,0.0,0.0,0.0,0.0,0.0,0.0,0.0,0.0,0.0,0.0,0.0,-3.4519,-3.4153,-3.3642,-3.3487,-3.3736,-3.453,-3.4992,-3.5914,-3.7804,-3.8015,0.0,0.0,0.0,0.0,0.0,0.0,0.0,0.0,0.0,0.0,0.0,0.0,0.0,0.0,0.0,0.0,0.0,0.0,0.0,0.0,0.0,0.0,0.0,0.0,0.0,0.0,0.0,0.0,0.0,0.0,0.0,0.0,0.0,0.0,0.0,0.0,0.0,0.0,0.0,0.0,0.0,0.0,0.0,0.0,0.0,0.0,0.0,0.0,0.0,0.0,0.0,0.0,0.0,0.0,0.0,0.0,0.0,0.0,0.0,0.0,0.0,0.0,0.0,0.0,0.0,0.0,0.0,0.0,0.0,0.0,0.0,0.0,0.0,0.0,0.0,0.0,0.0,0.0,0.0,0.0,0.0,0.0,0.0,0.0,0.0,0.0,0.0,0.0,0.0,0.0,0.0,0.0,0.0,0.0,0.0,0.0,0.0,0.0,0.0,0.0,0.0,0.0,-3.673,-3.6368,-3.7394,-3.6094,-3.549,-3.6105,-3.6727,-3.7169,-3.7606,-3.7817,0.0,0.0,0.0,0.0,0.0,0.0,0.0,0.0,0.0,0.0,0.0,0.0,0.0,0.0,0.0,0.0,0.0,0.0,0.0,0.0,0.0,0.0,0.0,0.0,0.0,0.0,0.0,0.0,0.0,0.0,0.0,0.0,0.0,0.0,0.0,0.0,0.0,0.0,0.0,0.0,0.0,0.0,0.0,0.0,0.0,0.0,0.0,0.0,0.0,0.0,0.0,0.0,0.0,0.0,0.0,0.0,0.0,0.0,0.0,0.0,0.0,0.0,0.0,0.0,0.0,0.0,0.0,0.0,0.0,0.0,0.0,0.0,0.0,0.0,0.0,0.0,0.0,0.0,0.0,0.0,0.0,0.0,0.0,0.0,0.0,0.0,0.0,0.0,0.0,0.0,0.0,0.0,0.0,0.0,0.0,0.0,0.0,0.0,0.0,0.0,0.0,0.0,-3.5806,-3.5937,-3.6464,-3.5833,-3.5549,-3.5979,-3.6081,-3.6469,-3.7292,0.0,0.0,0.0,0.0,0.0,0.0,0.0,0.0,0.0,0.0,0.0,0.0,0.0,0.0,0.0,0.0,0.0,0.0,0.0,0.0,0.0,0.0,0.0,0.0,0.0,0.0,0.0,0.0,0.0,0.0,0.0,0.0,0.0,0.0,0.0,0.0,0.0,0.0,0.0,0.0,0.0,0.0,0.0,0.0,0.0,0.0,0.0,0.0,0.0,0.0,0.0,0.0,0.0,0.0,0.0,0.0,0.0,0.0,0.0,0.0,0.0,0.0,0.0,0.0,0.0,0.0,0.0,0.0,0.0,0.0,0.0,0.0,0.0,0.0,0.0,0.0,0.0,0.0,0.0,0.0,0.0,0.0,0.0,0.0,0.0,0.0,0.0,0.0,0.0,0.0,0.0,0.0,0.0,0.0,0.0,0.0,0.0,0.0,0.0,0.0,0.0,0.0,-3.577,-3.5992,-3.639,-3.6672,-3.6133,-3.5838,-3.6235,-3.5915,-3.6198,-3.6992,0.0,0.0,0.0,0.0,0.0,0.0,0.0,0.0,0.0,0.0,0.0,0.0,0.0,0.0,0.0,0.0,0.0,0.0,0.0,0.0,0.0,0.0,0.0,0.0,0.0,0.0,0.0,0.0,0.0,0.0,0.0,0.0,0.0,0.0,0.0,0.0,0.0,0.0,0.0,0.0,0.0,0.0,0.0,0.0,0.0,0.0,0.0,0.0,0.0,0.0,0.0,0.0,0.0,0.0,0.0,0.0,0.0,0.0,0.0,0.0,0.0,0.0,0.0,0.0,0.0,0.0,0.0,0.0,0.0,0.0,0.0,0.0,0.0,0.0,0.0,0.0,0.0,0.0,0.0,0.0,0.0,0.0,0.0,0.0,0.0,0.0,0.0,0.0,0.0,0.0,0.0,0.0,0.0,0.0,0.0,0.0,0.0,0.0,0.0,0.0,0.0,0.0,-3.8002,-3.7922,-3.8178,-3.8817,-3.7323,-3.656,-3.7127,-3.6684,-3.6513,0.0,0.0,0.0,0.0,0.0,0.0,0.0,0.0,0.0,0.0,0.0,0.0,0.0,0.0,0.0,0.0,0.0,0.0,0.0,0.0,0.0,0.0,0.0,0.0,0.0,0.0,0.0,0.0,0.0,0.0,0.0,0.0,0.0,0.0,0.0,0.0,0.0,0.0,0.0,0.0,0.0,0.0,0.0,0.0,0.0,0.0,0.0,0.0,0.0,0.0,0.0,0.0,0.0,0.0,0.0,0.0,0.0,0.0,0.0,0.0,0.0,0.0,0.0,0.0,0.0,0.0,0.0,0.0,0.0,0.0,0.0,0.0,0.0,0.0,0.0,0.0,0.0,0.0,0.0,0.0,0.0,0.0,0.0,0.0,0.0,0.0,0.0,0.0,0.0,0.0,0.0,0.0,0.0,0.0,0.0,0.0,0.0,0.0,0.0,0.0,0.0,0.0,0.0,-3.8002,-3.8664,-3.9047,-3.8931,-3.8041,-3.7382,-3.7236,-3.6684,-3.6433,-3.6513,0.0,0.0,0.0,0.0,0.0,0.0,0.0,0.0,0.0,0.0,0.0,0.0,0.0,0.0,0.0,0.0,0.0,0.0,0.0,0.0,0.0,0.0,0.0,0.0,0.0,0.0,0.0,0.0,0.0,0.0,0.0,0.0,0.0,0.0,0.0,0.0,0.0,0.0,0.0,0.0,0.0,0.0,0.0,0.0,0.0,0.0,0.0,0.0,0.0,0.0,0.0,0.0,0.0,0.0,0.0,0.0,0.0,0.0,0.0,0.0,0.0,0.0,0.0,0.0,0.0,0.0,0.0,0.0,0.0,0.0,0.0,0.0,0.0,0.0,0.0,0.0,0.0,0.0,0.0,0.0,0.0,0.0,0.0,0.0,0.0,0.0,0.0,0.0,0.0,0.0,0.0,0.0,0.0,0.0,0.0,0.0,0.0,0.0,0.0,0.0,0.0,0.0,-3.804,-3.8806,-3.9145,-3.858,-3.8015,-3.745,-3.691,-3.6558,-3.6358,-3.6358,0.0,0.0,0.0,0.0,0.0,0.0,0.0,0.0,0.0,0.0,0.0,0.0,0.0,0.0,0.0,0.0,0.0,0.0,0.0,0.0,0.0,0.0,0.0,0.0,0.0,0.0,0.0,0.0,0.0,0.0,0.0,0.0,0.0,0.0,0.0,0.0,0.0,0.0,0.0,0.0,0.0,0.0,0.0,0.0,0.0,0.0,0.0,0.0,0.0,0.0,0.0,0.0,0.0,0.0,0.0,0.0,0.0,0.0,0.0,0.0,0.0,0.0,0.0,0.0,0.0,0.0,0.0,0.0,0.0,0.0,0.0,0.0,0.0,0.0,0.0,0.0,0.0,0.0,0.0,0.0,0.0,0.0,0.0,0.0,0.0,0.0,0.0,0.0,0.0,0.0,0.0,0.0,0.0,0.0,0.0,0.0,0.0,0.0,0.0,0.0,0.0,0.0,-3.8065,-3.8467,-3.8567,-3.799,-3.7475,-3.696,-3.6408,-3.6358,-3.6358,-3.6358,0.0,0.0,0.0,0.0,0.0,0.0,0.0,0.0,0.0,0.0,0.0,0.0,0.0,0.0,0.0,0.0,0.0,0.0,0.0,0.0,0.0,0.0,0.0,0.0,0.0,0.0,0.0,0.0,0.0,0.0,0.0,0.0,0.0,0.0,0.0,0.0,0.0,0.0,0.0,0.0,0.0,0.0,0.0,0.0,0.0,0.0,0.0,0.0,0.0,0.0,0.0,0.0,0.0,0.0,0.0,0.0,0.0,0.0,0.0,0.0,-2.9532,-3.0351,0.0,0.0,0.0,0.0,0.0,0.0,0.0,0.0,0.0,0.0,0.0,0.0,0.0,0.0,0.0,0.0,0.0,0.0,0.0,0.0,0.0,0.0,0.0,0.0,0.0,0.0,0.0,0.0,0.0,0.0,0.0,0.0,0.0,0.0,0.0,0.0,0.0,0.0,0.0,0.0,-3.7965,-3.8115,-3.7977,-3.7412,-3.7262,-3.696,-3.6408,-3.6358,-3.6358,-3.6358,-3.6872,0.0,0.0,0.0,0.0,0.0,0.0,0.0,0.0,0.0,0.0,0.0,0.0,0.0,0.0,0.0,0.0,0.0,0.0,0.0,0.0,0.0,0.0,0.0,0.0,0.0,0.0,0.0,0.0,0.0,0.0,0.0,0.0,0.0,0.0,0.0,0.0,0.0,0.0,0.0,0.0,0.0,0.0,0.0,0.0,0.0,0.0,0.0,0.0,0.0,0.0,0.0,0.0,0.0,0.0,0.0,0.0,0.0,0.0,0.0,-2.8351,-2.9084,0.0,0.0,0.0,0.0,0.0,0.0,0.0,0.0,0.0,0.0,0.0,0.0,0.0,0.0,0.0,0.0,0.0,0.0,0.0,0.0,0.0,0.0,0.0,0.0,0.0,0.0,0.0,0.0,0.0,0.0,0.0,0.0,0.0,0.0,0.0,0.0,0.0,0.0,0.0,0.0,-3.6822,-3.7048,-3.7111,-3.6822,-3.6784,-3.6671,-3.6383,-3.6358,-3.6358,-3.6358,-3.6634,0.0,0.0,0.0,0.0,0.0,0.0,0.0,0.0,0.0,0.0,0.0,0.0,0.0,0.0,0.0,0.0,0.0,0.0,0.0,0.0,0.0,0.0,0.0,0.0,0.0,0.0,0.0,0.0,0.0,0.0,0.0,0.0,0.0,0.0,0.0,0.0,0.0,0.0,0.0,0.0,0.0,0.0,0.0,0.0,0.0,0.0,0.0,0.0,0.0,0.0,0.0,0.0,0.0,-3.0351,-2.9349,-2.8724,-2.8538,-2.7987,-2.7262,-2.7262,-2.7715,-2.8445,-2.8445,0.0,0.0,0.0,0.0,0.0,0.0,0.0,0.0,0.0,0.0,0.0,0.0,0.0,0.0,0.0,0.0,0.0,0.0,0.0,0.0,0.0,0.0,-3.6119,-3.6119,-3.568,-3.5504,-3.6408,0.0,0.0,0.0,0.0,0.0,0.0,0.0,0.0,0.0,0.0,0.0,-3.5592,-3.5855,-3.6107,-3.6207,-3.6219,-3.6257,-3.6358,-3.6358,-3.6358,-3.6358,-3.6358,-3.6571,0.0,0.0,0.0,0.0,0.0,0.0,0.0,0.0,0.0,0.0,0.0,0.0,0.0,0.0,0.0,0.0,0.0,0.0,0.0,0.0,0.0,0.0,0.0,0.0,0.0,0.0,0.0,0.0,0.0,0.0,0.0,0.0,-3.6369,-3.629,0.0,0.0,0.0,0.0,0.0,0.0,0.0,0.0,0.0,0.0,0.0,0.0,0.0,-3.0441,-3.0441,-2.9441,-2.9441,-3.0441,-2.8527,-2.8081,-2.8631,-2.7904,-2.7452,-2.7262,-2.7262,0.0,-2.7441,-2.7441,0.0,0.0,0.0,0.0,0.0,0.0,0.0,0.0,0.0,0.0,0.0,0.0,0.0,0.0,0.0,0.0,0.0,0.0,0.0,0.0,0.0,0.0,-3.4939,-3.4939,-3.4525,-3.4161,-3.4299,-3.5403,-3.6408,-3.6546,-3.6458,-3.6408,0.0,0.0,0.0,0.0,0.0,0.0,-3.5491,-3.519,-3.5115,-3.5604,-3.5655,-3.5843,-3.632,-3.6358,-3.6358,-3.6358,-3.6358,-3.6395,-3.6471,-3.686,0.0,0.0,0.0,0.0,0.0,0.0,0.0,0.0,0.0,0.0,0.0,0.0,0.0,0.0,0.0,0.0,0.0,0.0,0.0,0.0,0.0,0.0,0.0,0.0,0.0,0.0,0.0,0.0,0.0,-3.5305,-3.491,-3.465,-3.4428,-3.4095,0.0,0.0,0.0,0.0,0.0,0.0,0.0,0.0,0.0,-2.9521,-2.9441,-2.936,-2.936,-2.8351,-2.8351,-2.936,-2.7998,-2.7536,-2.7904,-2.7441,-2.7262,-2.7262,-2.7262,-2.7262,-2.7262,-2.7262,-2.7262,-2.7262,0.0,0.0,0.0,0.0,-2.7536,-2.8081,-2.8991,-2.936,-2.9749,-3.1889,0.0,0.0,0.0,0.0,0.0,0.0,0.0,-3.465,-3.4349,-3.4261,-3.4173,-3.3872,-3.3608,-3.3432,-3.3432,-3.401,-3.47,-3.5328,-3.4939,-3.4726,-3.5353,-3.4738,0.0,0.0,0.0,-3.3884,-3.4123,-3.4223,-3.4349,-3.46,-3.5177,-3.5642,-3.5881,-3.6194,-3.6358,-3.6358,-3.6358,-3.6358,-3.6358,-3.6596,-3.6722,0.0,0.0,0.0,0.0,0.0,0.0,0.0,0.0,0.0,0.0,0.0,0.0,0.0,0.0,0.0,0.0,0.0,0.0,0.0,0.0,0.0,0.0,0.0,0.0,0.0,0.0,0.0,0.0,-3.394,-3.3288,-3.2957,-3.3031,-3.2747,0.0,0.0,0.0,0.0,0.0,0.0,-2.9806,-2.9624,-2.9084,-2.8362,-2.8362,-2.8362,-2.8362,-2.7631,-2.7631,-2.8351,-2.762,-2.7262,-2.7262,-2.7262,-2.7262,-2.7262,-2.7262,-2.7262,-2.7262,-2.7262,-2.7262,-2.7262,-2.7262,-2.7262,-2.7262,-2.7262,-2.7262,-2.7441,-2.8351,-2.891,-2.936,-3.108,-3.1801,-3.225,-3.3383,0.0,0.0,0.0,0.0,-3.4211,-3.3796,-3.3684,-3.3583,-3.3169,-3.3081,-3.3081,-3.3081,-3.3081,-3.3319,-3.4135,-3.3633,-3.3332,-3.4161,-3.3621,0.0,-3.3081,-3.3081,-3.3081,-3.3081,-3.3432,-3.3746,-3.3884,-3.4625,-3.519,-3.5316,-3.583,-3.6157,-3.6157,-3.6282,-3.6358,-3.6358,-3.6358,-3.6358,-3.6358,0.0,0.0,0.0,0.0,0.0,0.0,0.0,0.0,0.0,0.0,0.0,0.0,0.0,0.0,0.0,0.0,0.0,0.0,0.0,0.0,0.0,0.0,0.0,0.0,0.0,0.0,0.0,0.0,0.0,-3.1713,-3.1713,0.0,0.0,0.0,0.0,-3.026,-2.9349,-2.8817,-2.8817,-2.7904,-2.7441,-2.7357,-2.7357,-2.7357,-2.7357,-2.7347,-2.7347,-2.7357,-2.7347,-2.7262,-2.7262,-2.7262,-2.7262,-2.7262,-2.7262,-2.7262,-2.7262,-2.7262,-2.7262,-2.7262,-2.7262,-2.7262,-2.7262,-2.7262,-2.7262,-2.7441,-2.8351,-2.936,-3.026,-3.1258,-3.2264,-3.3081,-3.3106,-3.3131,0.0,0.0,-3.3156,-3.3156,-3.3131,-3.3119,-3.3106,-3.3081,-3.3081,-3.3081,-3.3081,-3.3081,-3.3093,-3.3156,-3.3119,-3.3093,-3.3156,0.0,-3.3081,-3.3081,-3.3081,-3.3081,-3.3081,-3.3106,-3.3319,-3.3847,-3.3947,-3.4198,-3.4726,-3.5265,-3.5592,-3.5592,-3.6069,-3.6358,-3.6358,-3.6358,-3.6358,-3.6358,-3.6383,0.0,0.0,0.0,0.0,0.0,0.0,0.0,0.0,0.0,0.0,0.0,0.0,0.0,0.0,0.0,0.0,0.0,0.0,0.0,0.0,0.0,0.0,0.0,0.0,0.0,0.0,0.0,0.0,-3.2624,-3.1989,0.0,-3.026,-2.9897,-2.936,-2.8445,-2.7987,-2.7809,-2.7809,-2.7441,-2.7262,-2.7262,-2.7262,-2.7262,-2.7262,-2.7262,-2.7262,-2.7262,-2.7262,-2.7262,-2.7262,-2.7262,-2.7262,-2.7262,-2.7262,-2.7262,-2.7262,-2.7262,-2.7262,-2.7262,-2.7262,-2.7262,-2.7262,-2.7262,-2.7262,-2.7357,-2.7726,-2.8445,-2.9543,-3.108,-3.2264,-3.3081,-3.3081,-3.3081,-3.3081,-3.3081,-3.3081,-3.3081,-3.3081,-3.3081,-3.3081,-3.3081,-3.3081,-3.3081,-3.3081,-3.3081,-3.3081,-3.3081,-3.3081,-3.3081,-3.3081,-3.3081,-3.3081,-3.3081,-3.3081,-3.3081,-3.3081,-3.3081,-3.3156,-3.3345,-3.3684,-3.3985,-3.4173,-3.47,-3.5165,-3.5516,-3.573,-3.5994,-3.6345,-3.6358,-3.6358,-3.6358,-3.6358,-3.6358,0.0,0.0,0.0,0.0,0.0,0.0,0.0,0.0,0.0,0.0,0.0,0.0,0.0,0.0,0.0,0.0,0.0,0.0,0.0,0.0,0.0,0.0,0.0,0.0,0.0,-3.3116,-3.2785,-3.2624,-3.1713,-3.0722,-2.9806,-2.9084,-2.8269,-2.7357,-2.7262,-2.7262,-2.7262,-2.7262,-2.7262,-2.7262,-2.7262,-2.7262,-2.7262,-2.7262,-2.7262,-2.7262,-2.7262,-2.7262,-2.7262,-2.7262,-2.7262,-2.7262,-2.7262,-2.7262,-2.7262,-2.7262,-2.7262,-2.7262,-2.7262,-2.7262,-2.7262,-2.7262,-2.7262,-2.7357,-2.762,-2.8351,-2.9452,-3.108,-3.2264,-3.3081,-3.3081,-3.3081,-3.3081,-3.3081,-3.3081,-3.3081,-3.3081,-3.3081,-3.3081,-3.3081,-3.3081,-3.3081,-3.3081,-3.3081,-3.3081,-3.3081,-3.3081,-3.3081,-3.3081,-3.3081,-3.3081,-3.3081,-3.3081,-3.3081,-3.3081,-3.3081,-3.3081,-3.3081,-3.3407,-3.3621,-3.3621,-3.4123,-3.46,-3.4964,-3.5165,-3.5516,-3.6056,-3.6094,-3.6169,-3.6358,-3.6358,-3.6358,-3.6358,0.0,0.0,0.0,0.0,0.0,0.0,0.0,0.0,0.0,0.0,0.0,0.0,0.0,0.0,0.0,0.0,0.0,0.0,0.0,0.0,0.0,0.0,0.0,-3.3398,-3.2426,-3.1625,-3.1625,-3.08,-2.9806,-2.8817,-2.8631,-2.8269,-2.7357,-2.7262,-2.7262,-2.7262,-2.7262,-2.7262,-2.7262,-2.7262,-2.7262,-2.7262,-2.7262,-2.7262,-2.7262,-2.7262,-2.7262,-2.7262,-2.7262,-2.7262,-2.7262,-2.7262,-2.7262,-2.7262,-2.7262,-2.7262,-2.7262,-2.7262,-2.7262,-2.7262,-2.7262,-2.7262,-2.7441,-2.8456,-2.936,-3.0351,-3.1347,-3.2351,-3.3081,-3.3081,-3.3081,-3.3081,-3.3081,-3.3081,-3.3081,-3.3081,-3.3081,-3.3081,-3.3081,-3.3081,-3.3081,-3.3081,-3.3081,-3.3081,-3.3081,-3.3081,-3.3081,-3.3081,-3.3081,-3.3081,-3.3081,-3.3081,0.0,-3.3081,-3.3081,-3.3081,-3.3081,-3.3081,-3.3081,-3.3081,-3.3571,-3.3884,-3.3897,-3.4399,-3.4951,-3.5491,-3.5516,-3.578,-3.632,-3.6358,-3.6358,-3.6358,0.0,0.0,0.0,0.0,0.0,0.0,0.0,0.0,0.0,0.0,0.0,0.0,0.0,0.0,0.0,0.0,0.0,0.0,0.0,0.0,0.0,-3.3869,-3.3641,-3.3398,-3.297,-3.2438,-3.1725,-3.08,-2.9806,-2.8817,-2.8081,-2.7536,-2.7357,-2.7262,-2.7262,-2.7262,-2.7262,-2.7262,-2.7262,-2.7262,-2.7262,-2.7262,-2.7262,-2.7262,-2.7262,-2.7262,-2.7262,-2.7262,-2.7262,-2.7262,-2.7262,-2.7262,-2.7262,-2.7262,-2.7262,-2.7262,-2.7262,-2.7262,-2.7262,-2.7262,-2.7262,-2.7262,-2.7536,-2.9176,-2.9988,-3.0441,-3.2164,-3.2896,-3.3081,-3.3081,-3.3081,-3.3081,-3.3081,-3.3081,-3.3081,-3.3081,-3.3081,-3.3081,-3.3081,-3.3081,-3.3081,-3.3081,-3.3081,-3.3081,-3.3081,-3.3081,-3.3081,-3.3081,-3.3081,-3.3081,-3.3081,-3.3081,-3.3081,-3.3081,-3.3081,-3.3081,-3.3081,-3.3081,-3.3081,-3.3081,-3.3219,-3.347,-3.3872,-3.4035,-3.4374,-3.4926,-3.4951,-3.5203,-3.5755,-3.6157,-3.6358,0.0,0.0,0.0,0.0,0.0,0.0,0.0,0.0,0.0,0.0,0.0,0.0,0.0,0.0,0.0,0.0,0.0,0.0,0.0,0.0,0.0,0.0,-3.381,-3.3641,-3.3398,-3.324,-3.2711,-3.1713,-3.08,-2.9806,-2.8817,-2.7809,-2.7262,-2.7262,-2.7262,-2.7262,-2.7262,-2.7262,-2.7262,-2.7262,-2.7262,-2.7262,-2.7262,-2.7262,-2.7262,-2.7262,-2.7262,-2.7262,-2.7262,-2.7262,-2.7262,-2.7262,-2.7262,-2.7262,-2.7262,-2.7262,-2.7262,-2.7262,0.0,0.0,0.0,0.0,-2.7536,-2.8081,-2.9176,-3.0079,-3.0991,-3.2077,-3.2797,-3.3081,-3.3081,-3.3081,-3.3081,-3.3081,-3.3081,-3.3081,-3.3081,-3.3081,-3.3081,-3.3081,-3.3081,-3.3081,-3.3081,-3.3081,-3.3081,-3.3081,-3.3081,0.0,-3.3081,-3.3081,-3.3081,-3.3081,-3.3081,-3.3081,-3.3081,-3.3081,-3.3081,-3.3081,-3.3081,-3.3081,-3.3081,-3.3081,0.0,0.0,0.0,-3.3809,-3.4349,-3.46,0.0,0.0,0.0,-3.6019,-3.6019,-3.6257,0.0,0.0,-3.7002,-3.7083,0.0,0.0,0.0,0.0,0.0,0.0,0.0,0.0,0.0,0.0,0.0,0.0,0.0,0.0,0.0,0.0,-3.3894,-3.3641,-3.3398,-3.324,-3.2711,-3.1536,-3.0621,-2.9624,-2.8631,-2.7809,-2.7262,-2.7262,-2.7262,-2.7262,-2.7262,-2.7262,0.0,0.0,0.0,-2.7262,-2.7262,-2.7262,-2.7262,-2.7262,-2.7262,-2.7262,-2.7262,-2.7262,-2.7262,-2.7262,-2.7262,-2.7262,-2.7262,-2.7262,-2.7262,-2.7262,-2.7262,-2.7262,-2.7262,-2.7262,-2.7904,-2.8724,-2.8806,0.0,0.0,-3.1713,-3.2351,-3.3081,-3.3081,-3.3081,-3.3081,-3.3081,-3.3081,-3.3081,-3.3081,-3.3081,-3.3081,-3.3081,-3.3081,-3.3081,-3.3081,-3.3081,-3.3081,-3.3081,-3.3081,-3.3081,-3.3081,-3.3081,-3.3081,-3.3081,-3.3081,-3.3081,-3.3081,-3.3081,-3.3081,-3.3081,-3.3081,0.0,-3.3081,-3.3081,-3.3081,-3.3081,-3.3081,-3.3294,-3.3784,-3.4336,-3.4625,-3.4625,-3.5177,-3.5454,-3.5454,-3.6006,-3.627,-3.627,-3.6332,-3.6815,0.0,0.0,0.0,0.0,0.0,0.0,0.0,0.0,0.0,0.0,0.0,0.0,0.0,0.0,0.0,-3.4314,-3.3894,-3.3641,-3.3398,-3.324,-3.2438,-3.0711,-2.9624,-2.8631,-2.762,-2.7441,-2.7262,-2.7262,-2.7262,-2.7262,-2.7262,-2.7262,-2.7262,-2.7262,-2.7262,-2.7262,-2.7262,-2.7262,-2.7262,-2.7262,-2.7262,0.0,-2.7262,-2.7262,-2.7262,-2.7262,-2.7262,-2.7167,-2.6986,-2.7167,-2.7262,-2.7262,-2.7262,-2.7262,-2.7262,-2.7262,-2.7904,-2.8817,-2.9624,-3.0621,-3.1713,-3.2537,-3.2896,-3.3081,-3.3081,-3.3081,0.0,-3.3081,-3.3081,-3.3081,-3.3081,-3.3081,-3.3081,-3.3081,-3.3081,-3.3081,-3.3081,-3.3081,-3.3081,-3.3081,-3.3081,-3.3081,-3.3081,-3.3081,-3.3081,-3.3081,-3.3081,-3.3081,-3.3081,-3.3081,-3.3081,-3.3081,-3.3081,-3.3081,-3.3081,-3.3081,-3.3081,-3.3081,-3.3081,-3.3131,-3.3232,-3.3771,-3.406,-3.406,-3.46,-3.4876,-3.4876,-3.5429,-3.5705,-3.5717,-3.6157,-3.6546,0.0,0.0,0.0,0.0,0.0,0.0,0.0,0.0,0.0,0.0,0.0,-3.8263,0.0,0.0,-3.5883,-3.4468,-3.3979,-3.3628,-3.3556,-3.2871,-3.1989,-3.0991,-3.0079,-2.9084,-2.8081,-2.7536,-2.7262,-2.7262,-2.7262,-2.7262,-2.7262,-2.7262,-2.7262,-2.7262,-2.7262,-2.7262,-2.7262,-2.7262,-2.7262,-2.7262,-2.7167,-2.7081,-2.7081,-2.6976,-2.6976,-2.7081,-2.7081,-2.6986,-2.69,-2.688,-2.688,-2.688,-2.688,-2.7071,-2.7357,-2.7704,-2.8527,-2.9624,-3.0531,-3.1536,-3.2438,-3.2896,-3.3081,-3.3081,-3.3081,-3.3081,-3.3081,-3.3081,-3.3081,-3.3081,-3.3081,-3.3081,-3.3081,-3.3081,-3.3081,-3.3081,-3.3081,-3.3081,-3.3081,-3.3081,-3.3081,-3.3081,-3.3081,-3.3081,-3.3081,-3.3081,-3.3081,-3.3081,-3.3081,-3.3081,-3.3081,-3.3081,-3.3081,-3.3081,-3.3081,-3.3081,-3.3081,-3.3081,-3.3081,-3.3081,-3.3081,-3.3345,-3.3483,-3.3483,-3.4035,-3.4311,-3.4311,-3.4864,-3.514,-3.514,-3.5416,-3.583,0.0,0.0,0.0,0.0,0.0,0.0,0.0,0.0,-3.961,-3.9265,-3.9192,-3.8634,-3.6972,-3.666,-3.6188,-3.4634,-3.4063,-3.381,-3.381,-3.276,-3.1853,-3.1568,-3.0563,-2.9532,-2.8538,-2.7715,-2.7262,-2.7262,-2.7262,-2.7262,-2.7262,-2.7262,-2.7262,-2.7262,-2.7262,-2.7262,-2.7262,-2.7262,-2.7262,-2.7262,-2.6986,-2.6805,-2.6794,-2.6602,-2.6602,-2.6805,-2.6805,-2.6794,-2.6805,-2.6784,-2.6774,-2.6784,-2.6965,-2.7347,-2.7809,-2.8154,-2.905,-3.0249,-3.1258,-3.2264,-3.3081,-3.3081,-3.3081,-3.3081,-3.3081,-3.3081,-3.3081,-3.3081,-3.3081,-3.3081,-3.3081,-3.3081,-3.3081,-3.3081,-3.3081,-3.3081,-3.3081,-3.3081,-3.3081,-3.3081,-3.3081,-3.3081,-3.3081,-3.3081,-3.3081,-3.3081,-3.3081,-3.3081,-3.3081,-3.3081,-3.3081,-3.3081,-3.3081,-3.3081,-3.3081,-3.3081,-3.3081,-3.3081,-3.3081,-3.3081,-3.3081,-3.3081,-3.3081,-3.3081,-3.3508,-3.3746,-3.3746,-3.4299,-3.4562,-3.4562,-3.4585,-3.5174,-4.0239,-4.0282,-4.0282,-4.0079,-4.0166,-4.0212,0.0,0.0,-3.9466,-3.8501,-3.8352,-3.7796,-3.6136,-3.5816,-3.5507,-3.4551,-3.4243,-3.4076,-3.4076,-3.3556,-3.2769,-3.1504,-2.9894,-2.8538,-2.7536,-2.7357,-2.7262,-2.7262,-2.7262,-2.7262,-2.7262,-2.7262,-2.7167,-2.6996,-2.7167,-2.7177,-2.6996,-2.69,-2.69,-2.69,-2.6699,-2.6496,-2.6496,-2.6496,-2.6496,-2.6496,-2.6294,-2.6294,-2.6592,-2.7231,-2.76,-2.7893,-2.8527,-2.9002,-2.9209,-2.8516,-2.8958,-3.0045,-3.1158,-3.2264,-3.3081,-3.3081,-3.3081,-3.3081,-3.3081,-3.3081,-3.3081,-3.3081,-3.3081,-3.3081,-3.3081,-3.3081,-3.3081,-3.3081,-3.3081,-3.3081,-3.3081,-3.3081,-3.3081,-3.3081,-3.3081,-3.3081,-3.3081,-3.3081,-3.3081,-3.3081,-3.3081,-3.3081,-3.3081,-3.3081,-3.3081,-3.3081,-3.3081,-3.3081,-3.3081,-3.3081,-3.3081,-3.3081,-3.3081,-3.3081,-3.3081,-3.3081,-3.3081,-3.3081,-3.3131,-3.3169,-3.3169,-3.3721,-3.3985,-3.401,-3.4332,-3.4803,-3.9295,-3.9374,0.0,0.0,-3.9183,-3.9673,-3.9397,-3.9567,-3.9696,-3.9031,-3.8885,-3.8412,-3.6738,-3.6425,-3.5963,0.0,-3.4063,-3.3894,-3.3894,-3.3191,-3.2153,-3.0826,-2.9679,-2.8732,-2.7757,-2.7463,-2.7262,-2.7262,-2.7262,-2.7262,-2.7262,-2.7177,-2.6986,-2.69,-2.689,-2.6784,-2.6699,-2.6699,-2.6699,-2.6699,-2.64,-2.6294,-2.6294,-2.612,-2.611,-2.6294,-2.6197,-2.6476,-2.7136,-2.7305,-2.7767,-2.8423,-2.8784,-2.898,-2.9073,-2.9441,-2.9977,-3.0609,-3.1801,-3.2537,-3.2896,-3.3081,-3.2982,-3.2896,-3.3081,-3.2982,-3.2896,-3.3081,-3.3081,-3.3081,-3.3081,-3.3081,-3.3081,-3.3081,-3.3081,-3.3081,-3.3081,-3.3081,-3.3081,-3.3081,-3.3081,-3.3081,-3.3081,-3.3081,-3.3081,-3.3081,-3.3081,-3.3081,-3.3081,-3.3081,-3.3081,-3.3081,-3.3081,-3.3081,-3.3081,-3.3081,-3.3081,-3.3081,-3.3081,-3.3081,-3.3081,-3.3081,-3.3081,-3.3081,-3.3081,-3.3081,-3.3081,-3.3307,-3.342,-3.342,-3.3395,-3.3628,-3.8849,0.0,0.0,-3.7982,-3.8361,-3.8995,-3.904,-3.9373,-3.9713,-3.9523,-3.9424,-3.887,-3.7218,-3.6894,-3.6346,-3.4634,-3.3933,-3.3579,-3.3579,-3.2886,-3.1686,-3.0066,-2.9653,-2.9015,-2.7742,-2.7441,-2.7262,-2.7262,-2.7262,-2.7262,-2.7167,-2.6996,-2.6805,-2.6699,-2.6592,-2.6496,-2.64,-2.64,-2.64,-2.64,-2.611,-2.6004,-2.6004,-2.583,-2.583,-2.6004,-2.6004,-2.6562,-2.7484,-2.7568,-2.8215,-2.9143,-2.9418,-2.9521,-2.9612,-3.0543,-3.0812,-3.0991,-3.2176,-3.2636,-3.2636,-3.281,-3.281,-3.2636,-3.2896,-3.2896,-3.2723,-3.2896,-3.2982,-3.2982,-3.2982,-3.2982,-3.2982,-3.3068,-3.3081,-3.3081,-3.3081,-3.3081,-3.3081,-3.3081,-3.3081,-3.3081,-3.3081,-3.3081,-3.3081,-3.3081,-3.3081,-3.3081,-3.3081,-3.3081,-3.3081,-3.3081,-3.3081,-3.3081,-3.3081,-3.3081,-3.3081,-3.3081,-3.3068,-3.2982,-3.3081,-3.3068,-3.2982,-3.3081,-3.3081,-3.3081,-3.2982,-3.2982,-3.2982,-3.2909,-3.2636,-3.2672,0.0,0.0,-3.8318,-3.8391,-3.7951,-3.7843,-3.8916,-3.9131,-3.9152,-3.9632,-3.9553,-3.887,-3.7246,-3.6908,-3.6346,-3.4634,-3.3775,-3.3342,-3.3342,-3.2905,-3.1655,-2.9324,-2.9716,-2.9228,0.0,-2.7087,-2.7262,-2.7262,-2.7262,-2.7177,-2.69,-2.69,-2.6699,-2.61,-2.64,-2.64,-2.6091,-2.6091,-2.6091,-2.61,-2.583,-2.5732,-2.5732,-2.5742,-2.5742,-2.5732,-2.5732,-2.6284,-2.7284,-2.8215,-2.9235,-3.026,-3.1193,-3.1572,-3.1572,-3.1661,-3.1193,-3.0722,-3.1925,-3.2388,-3.2388,-3.2388,-3.24,-3.2475,-3.2636,-3.2723,-3.2711,-3.2711,-3.2711,-3.2711,-3.2711,-3.2711,-3.281,-3.3081,-3.3081,-3.3081,-3.3081,-3.3081,-3.3081,-3.3081,-3.3081,-3.3081,-3.3081,-3.3081,-3.3081,-3.3081,-3.3081,-3.3081,-3.3081,-3.3081,-3.3081,-3.3081,-3.3081,-3.3081,-3.3081,-3.3081,-3.3081,-3.3081,-3.2896,-3.281,-3.3081,-3.281,-3.281,-3.3068,-3.3081,-3.2982,-3.2711,-3.2711,-3.2636,-3.2388,-3.2125,-3.205,0.0,0.0,-3.823,-3.7805,-3.7639,-3.7551,-3.7851,-3.8513,-3.9093,-3.9058,-3.9309,-3.9075,-3.7204,-3.6894,-3.6207,-3.4228,-3.3433,-3.3057,-3.3001,-3.1818,-3.0579,-2.985,-2.9128,0.0,0.0,0.0,0.0,-2.7262,-2.7177,-2.6996,-2.69,-2.6592,-2.6304,-2.61,-2.6014,-2.5927,-2.583,-2.582,-2.582,-2.582,-2.5732,-2.5742,-2.5742,-2.5742,-2.5742,-2.5742,-2.5742,-2.6284,-2.7284,-2.8308,-2.9326,-3.026,-3.1294,-3.1661,-3.1661,-3.1661,-3.156,-3.1383,-3.1937,-3.2125,-3.2125,-3.23,-3.23,-3.2213,-3.2388,-3.2475,-3.2562,-3.2636,-3.2711,-3.2723,-3.2896,-3.281,-3.281,-3.3081,-3.3081,-3.3081,-3.3081,-3.3081,-3.3081,-3.3081,-3.3081,-3.3081,-3.3081,-3.3081,-3.3081,-3.3081,-3.3081,-3.3081,-3.3081,-3.3081,-3.3081,-3.3081,-3.3081,-3.3081,-3.3081,-3.3081,-3.3081,-3.3081,-3.281,-3.281,-3.3081,-3.281,-3.2723,-3.281,-3.281,-3.2723,-3.2475,-3.2475,-3.2475,-3.2388,-3.2125,-3.222,0.0,-3.9011,-3.8502,-3.7637,-3.7463,-3.7436,-3.7351,-3.7943,-3.8513,-3.8432,-3.8952,-3.879,-3.6864,-3.6557,-3.5986,-3.4215,-3.3196,-3.2662,-3.288,-3.14,-3.0138,-2.9903,-2.8878,-2.7936,0.0,0.0,0.0,-2.7167,-2.6996,-2.6805,-2.6602,-2.6304,-2.61,-2.6004,-2.583,-2.5742,-2.5742,-2.5742,-2.5742,-2.5742,-2.5742,-2.5742,-2.5742,-2.5742,-2.5742,-2.5742,-2.61,-2.6829,-2.784,-2.8866,-2.9795,-3.0824,-3.1472,-3.1661,-3.1661,-3.1661,-3.1661,-3.1749,-3.1849,-3.1849,-3.1937,-3.2113,-3.2025,-3.1937,-3.2213,-3.23,-3.2388,-3.2463,-3.255,-3.2636,-3.2736,-3.2636,-3.2636,-3.2896,-3.3068,-3.3081,-3.3081,-3.3081,-3.3081,-3.3081,-3.3081,-3.3081,-3.3081,-3.3081,-3.3081,-3.3081,-3.3081,-3.3081,-3.3081,-3.3081,-3.3081,-3.3081,-3.3081,-3.3081,-3.3081,-3.3081,-3.3081,-3.3081,-3.281,-3.2723,-3.2982,-3.2636,-3.2463,-3.255,-3.255,-3.2475,-3.2213,-3.2213,-3.2323,-3.2418,-3.2241,-3.2442,-3.9523,-3.9348,-3.9102,-3.7796,-3.7401,-3.7411,-3.7419,-3.7333,-3.7338,-3.7871,-3.8387,-3.818,0.0,0.0,-3.5731,-3.4462,-3.3066,-3.2226,-3.2669,-3.1551,-3.0363,0.0,0.0,0.0,0.0,0.0,0.0,-2.69,0.0,-2.6699,-2.61,-2.61,-2.6004,-2.5732,-2.5742,-2.5742,-2.5742,-2.5742,-2.5742,-2.5742,-2.5742,-2.5742,-2.5742,-2.5742,-2.5742,-2.5732,-2.6733,-2.7746,-2.868,-2.9795,-3.0734,-3.1661,-3.1661,-3.1661,-3.1661,-3.1661,-3.1661,-3.1661,-3.1661,-3.1661,-3.1661,-3.1661,-3.1661,-3.1761,-3.195,-3.2213,-3.23,-3.2125,-3.2213,-3.23,-3.2125,-3.2213,-3.2388,-3.2636,-3.2896,-3.3081,-3.3081,-3.3081,-3.3068,-3.3081,-3.3081,-3.3081,-3.3081,-3.3081,-3.3081,-3.3081,-3.3081,-3.3081,-3.3081,-3.3081,-3.3081,-3.3081,-3.3081,-3.3081,-3.3081,-3.3081,-3.3081,-3.3081,-3.2649,-3.2475,-3.2711,-3.2288,-3.2125,-3.2388,-3.24,-3.2213,-3.1937,-3.1974,-3.2164,-3.2503,-3.2527,-3.2827,-4.0271,-3.9885,-3.9332,-3.8446,-3.7895,-3.7433,-3.6879,-3.7138,-3.7483,-3.7825,-3.8455,-3.8471,0.0,0.0,0.0,-3.3249,-3.2053,0.0,-3.0993,-2.9867,0.0,-2.8898,0.0,-2.7536,-2.7347,-2.7081,0.0,0.0,-2.6602,-2.6496,-2.61,-2.5917,-2.5732,-2.5742,-2.5742,-2.5742,-2.5742,-2.5742,-2.5742,-2.5742,-2.5742,-2.5742,-2.5742,-2.5742,-2.5742,-2.5732,-2.6733,-2.7379,-2.7746,-2.951,-3.0351,-3.0633,-3.1383,-3.1661,-3.1661,-3.1661,-3.1661,-3.1661,-3.1661,-3.1661,-3.1661,-3.1661,-3.1661,-3.1749,-3.1761,-3.1937,-3.2125,-3.23,-3.2213,-3.2213,-3.2463,-3.2288,-3.2213,-3.2388,-3.2562,-3.2649,-3.281,-3.2797,-3.2896,-3.3081,-3.3081,-3.3081,-3.3081,-3.3081,-3.3081,-3.3081,-3.3081,-3.3081,-3.3081,-3.3081,-3.3081,-3.3081,-3.3081,-3.3081,-3.3081,-3.3081,-3.3081,-3.3081,-3.281,-3.2636,-3.2711,-3.2463,-3.2213,-3.2125,-3.2125,-3.2025,-3.1761,-3.2183,-3.2449,-3.2515,-3.2899,-3.3356,-3.9952,-3.9558,-3.8941,-3.8181,-3.778,-3.7326,-3.6662,-3.6706,-3.6963,-3.7071,-3.7278,0.0,-3.5914,-3.5194,0.0,0.0,0.0,0.0,-3.0711,-2.9422,-2.8633,0.0,-2.7809,0.0,-2.7081,-2.689,-2.6592,0.0,-2.6294,-2.6207,-2.5917,-2.583,-2.5742,-2.5742,-2.5742,-2.5742,-2.5742,-2.5742,-2.5742,-2.5742,-2.5742,-2.5917,-2.637,-2.637,-2.6562,-2.702,-2.8121,-2.8495,-2.868,-3.017,-3.0824,-3.0913,-3.1472,-3.1661,-3.1661,-3.1661,-3.1661,-3.1661,-3.1661,-3.1661,-3.1661,-3.1661,-3.1661,-3.1661,-3.1661,-3.1849,-3.2038,-3.2113,-3.2038,-3.2025,-3.2189,-3.2113,-3.2038,-3.2213,-3.23,-3.2388,-3.2562,-3.255,-3.2636,-3.2736,-3.2822,-3.2822,-3.2896,-3.281,-3.2822,-3.2896,-3.2822,-3.2822,-3.2896,-3.3068,-3.3081,-3.3081,-3.3081,-3.3081,-3.3081,-3.3081,-3.3081,-3.3081,-3.281,-3.2636,-3.255,-3.2388,-3.2125,-3.1849,-3.1849,-3.197,-3.2034,-3.2346,-3.2731,-3.3188,-3.3477,-3.3897,-3.9189,-3.8794,-3.8334,-3.7621,-3.7401,-3.7238,-3.66,-3.6352,-3.6178,-3.6095,0.0,-3.5299,-3.4383,-3.3555,-3.2885,-3.2345,0.0,-3.0516,-3.0712,-2.9476,-2.8555,-2.8445,-2.7536,-2.69,-2.69,-2.6602,-2.639,-2.61,-2.61,-2.5917,-2.5732,-2.5742,-2.5742,-2.5742,-2.5742,-2.5742,-2.5742,-2.5742,-2.5742,-2.5742,-2.5742,-2.6187,-2.7189,-2.7189,-2.7746,-2.8773,-2.9795,-3.017,-3.026,-3.1294,-3.1661,-3.1661,-3.1661,-3.1661,-3.1661,-3.1661,-3.1661,-3.1661,-3.1661,-3.1661,-3.1661,-3.1661,-3.1661,-3.1661,-3.1661,-3.1849,-3.195,-3.1761,-3.1849,-3.195,-3.1761,-3.1849,-3.195,-3.195,-3.2125,-3.23,-3.23,-3.2388,-3.24,-3.24,-3.24,-3.2475,-3.2636,-3.2562,-3.2475,-3.2636,-3.2475,-3.2475,-3.2636,-3.2896,-3.3081,-3.3081,-3.3081,-3.3081,-3.3081,-3.3081,-3.3081,-3.3081,-3.281,-3.2636,-3.2388,-3.2125,-3.1974,-3.1769,-3.1781,-3.2046,-3.2611,-3.2671,-3.3164,-3.4042,-3.4114,-3.439,-3.8613,-3.8652,-3.8469,-3.7764,-3.7546,-3.731,-3.6445,-3.6211,0.0,0.0,-3.606,-3.543,-3.4975,-3.3757,-3.2573,-3.1565,-3.0418,-2.9438,-2.9032,-2.8422,-2.7828,0.0,-2.6996,-2.6794,-2.6592,-2.6304,0.0,0.0,-2.5917,-2.5732,-2.5742,-2.5742,-2.5742,-2.5742,-2.5742,-2.5742,-2.5742,-2.5742,-2.5742,-2.5742,-2.5742,-2.6187,-2.7189,-2.7189,-2.7746,-2.8773,-2.9795,-3.017,-3.026,-3.1294,-3.1661,-3.1661,-3.1661,-3.1661,-3.1661,-3.1661,-3.1661,-3.1661,-3.1661,-3.1661,-3.1661,-3.1661,-3.1661,-3.1661,-3.1661,-3.1749,-3.1761,-3.1937,-3.1849,-3.1761,-3.1937,-3.1849,-3.1761,-3.1761,-3.1761,-3.1849,-3.2025,-3.2213,-3.24,-3.24,-3.24,-3.2388,-3.2475,-3.2388,-3.2388,-3.2475,-3.2388,-3.2388,-3.2475,-3.2636,-3.2896,-3.3081,-3.3081,-3.3081,-3.3081,-3.3081,-3.3081,-3.3081,-3.281,-3.2636,-3.2388,-3.2125,-3.2067,-3.2346,-3.2358,-3.2623,-3.3152,-3.3573,-3.3861,-3.4054,-3.4487,-3.4739,-3.7911,-3.7722,-3.7488,-3.7103,-3.7042,-3.686,-3.6321,0.0,0.0,0.0,-3.4928,-3.4171,-3.3477,-3.2428,0.0,-3.0131,-2.9431,-2.878,-2.7917,-2.7554,0.0,-2.6965,-2.6699,-2.64,0.0,-2.6014,-2.5917,-2.5917,-2.5732,-2.5742,-2.5742,-2.5742,-2.5742,-2.5742,-2.5742,-2.5742,-2.5742,-2.5742,-2.5742,-2.5742,-2.5742,-2.6187,-2.7189,-2.7746,-2.8495,-2.9521,-3.0543,-3.1003,-3.1003,-3.1472,-3.1661,-3.1661,-3.1661,-3.1661,-3.1661,-3.1661,-3.1661,-3.1661,-3.1661,-3.1661,-3.1661,-3.1661,-3.1661,-3.1661,-3.1661,-3.1661,-3.1749,-3.1849,-3.1749,-3.1749,-3.1849,-3.1749,-3.1661,-3.1661,-3.1661,-3.1761,-3.195,-3.2125,-3.2213,-3.2213,-3.2213,-3.2213,-3.2213,-3.2125,-3.2038,-3.2213,-3.2125,-3.2025,-3.2213,-3.2288,-3.2463,-3.2736,-3.2736,-3.2736,-3.2736,-3.2736,-3.2736,-3.2736,-3.2649,-3.2475,-3.2213,-3.2305,-3.2406,-3.2491,-3.2767,-3.3164,-3.3681,-3.3921,-3.4186,-3.4451,-3.4715,-3.4823,-3.7618,-3.7266,-3.6923,-3.6923,-3.6923,-3.6813,-3.6455,-3.6155,0.0,0.0,-3.3685,-3.2648,-3.1942,0.0,-2.9985,0.0,-2.8585,-2.8124,-2.7272,-2.6951,-2.69,0.0,-2.64,0.0,-2.6004,-2.583,0.0,-2.5742,-2.5742,-2.5742,-2.5742,-2.5742,-2.5742,-2.5742,-2.5742,-2.5742,-2.5742,-2.5742,-2.5742,-2.5742,-2.5742,-2.6187,-2.7189,-2.8215,-2.9235,-3.026,-3.1282,-3.1661,-3.1661,-3.1661,-3.1661,-3.1661,-3.1661,-3.1661,-3.1661,-3.1661,-3.1661,-3.1661,-3.1661,-3.1661,-3.1661,-3.1661,-3.1661,-3.1661,-3.1661,-3.1661,-3.1661,-3.1661,-3.1661,-3.1661,-3.1661,-3.1661,-3.1661,-3.1661,-3.1661,-3.1749,-3.1937,-3.1937,-3.1937,-3.1937,-3.1937,-3.1937,-3.1937,-3.1761,-3.1749,-3.1937,-3.1761,-3.1761,-3.195,-3.1937,-3.2038,-3.2213,-3.23,-3.24,-3.24,-3.24,-3.24,-3.24,-3.2313,-3.2262,-3.2196,-3.2519,-3.2768,-3.2827,-3.3248,-3.3705,-3.421,-3.421,-3.4426,-3.4823,-3.4823,-3.4823,-3.8388,-3.8388,-3.8323,-3.8323,-3.8177,-3.7877,-3.7071,0.0,0.0,-3.4496,-3.3059,-3.1869,-3.1796,-3.0228,-2.8961,-2.8791,0.0,-2.7272,0.0,0.0,0.0,-2.6197,0.0,0.0,-2.5732,-2.5732,-2.5742,-2.5742,-2.5742,-2.5742,-2.5742,-2.5742,-2.5742,-2.5742,-2.5742,-2.5742,-2.5742,-2.5742,-2.5742,-2.5742,-2.5742,-2.6187,-2.7189,-2.8215,-2.9235,-3.026,-3.1282,-3.1661,-3.1661,-3.1661,-3.1661,-3.1661,-3.1661,-3.1661,-3.1661,-3.1661,-3.1661,-3.1661,-3.1661,-3.1661,-3.1661,-3.1661,-3.1661,-3.1661,-3.1661,-3.1661,-3.1661,-3.1661,-3.1661,-3.1661,-3.1661,-3.1661,-3.1661,-3.1661,-3.1661,-3.1673,-3.1749,-3.1749,-3.1749,-3.1749,-3.1749,-3.1749,-3.1749,-3.1749,-3.1673,-3.1749,-3.1749,-3.1673,-3.1749,-3.1749,-3.1749,-3.1761,-3.2125,-3.24,-3.24,-3.24,-3.24,-3.24,-3.2213,-3.2244,-3.2743,-3.2647,-3.2935,-3.3873,-3.3945,-3.4234,-3.4763,-3.4763,-3.4775,-3.4823,-3.4823,-3.4823,-3.8508,-3.8508,-3.8442,-3.8361,-3.7973,-3.7329,-3.638,0.0,-3.4549,-3.3101,-3.229,-3.1576,-3.0872,-2.9716,-2.8554,-2.7891,0.0,0.0,-2.6135,0.0,0.0,-2.61,-2.5917,0.0,0.0,0.0,-2.5742,-2.5742,-2.5742,-2.5742,-2.5742,-2.5742,-2.5742,-2.5742,-2.5742,-2.5742,-2.5742,-2.5742,-2.5742,-2.5742,-2.5742,-2.5917,-2.637,-2.7945,-2.8958,-2.9418,-3.1003,-3.1661,-3.1661,-3.1661,-3.1661,-3.1661,-3.1661,-3.1661,-3.1661,-3.1661,-3.1661,-3.1661,-3.1661,-3.1661,-3.1661,-3.1661,-3.1661,-3.1661,-3.1661,-3.1661,-3.1661,-3.1661,-3.1661,-3.1661,-3.1661,-3.1661,-3.1661,-3.1661,-3.1661,-3.1749,-3.1849,-3.1849,-3.1849,-3.1849,-3.1849,-3.1849,-3.1749,-3.1661,-3.1661,-3.1661,-3.1661,-3.1661,-3.1661,-3.1661,-3.1661,-3.1661,-3.1849,-3.1937,-3.1937,-3.1937,-3.1937,-3.1937,-3.2164,-3.2364,-3.2569,-3.3092,-3.3621,-3.403,-3.4354,-3.4619,-3.4823,-3.4823,-3.4823,-3.4823,-3.4823,-3.4823,-3.8907,-3.8907,-3.8907,-3.8757,-3.8174,-3.7286,0.0,0.0,-3.3917,-3.2155,-3.1576,-3.1158,-3.0292,-2.9106,-2.8051,-2.7151,0.0,-2.6124,-2.5442,-2.5734,0.0,0.0,0.0,-2.5742,0.0,-2.5742,-2.5742,-2.5742,-2.5742,-2.5742,-2.5742,-2.5742,-2.5742,-2.5742,-2.5742,-2.5742,-2.5742,-2.5742,-2.5742,-2.5742,-2.5742,-2.5742,-2.5732,-2.7757,-2.868,-2.8773,-3.0824,-3.1661,-3.1661,-3.1661,-3.1661,-3.1661,-3.1661,-3.1661,-3.1661,-3.1661,-3.1661,-3.1661,-3.1661,-3.1661,-3.1661,-3.1661,-3.1661,-3.1661,-3.1661,-3.1661,-3.1661,-3.1661,-3.1661,-3.1661,-3.1661,-3.1661,-3.1661,-3.1661,-3.1661,-3.1749,-3.1849,-3.1937,-3.1937,-3.1937,-3.1937,-3.1849,-3.1749,-3.1661,-3.1661,-3.1661,-3.1661,-3.1661,-3.1661,-3.1661,-3.1661,-3.1661,-3.1661,-3.1661,-3.1661,-3.1661,-3.1733,-3.1901,-3.2286,-3.2635,-3.2947,-3.3657,-3.4114,-3.427,-3.4643,-3.4823,-3.4823,-3.4823,-3.4823,-3.4823,-3.4823,-3.4823,-3.998,-3.998,-3.998,-3.998,-3.9175,-3.8047,0.0,0.0,-3.3498,-3.2112,-3.1084,-3.0368,-3.0152,-2.845,-2.7058,-2.6812,-2.6053,0.0,-2.4894,-2.5545,0.0,0.0,0.0,-2.5742,-2.5742,-2.5742,-2.5742,-2.5742,-2.5742,0.0,-2.5742,-2.5742,-2.5742,-2.5742,-2.5742,-2.5742,-2.5742,-2.5742,-2.5742,-2.5742,-2.5742,-2.5742,-2.5732,-2.7757,-2.868,-2.8773,-3.0824,-3.1661,-3.1661,-3.1661,-3.1661,-3.1661,-3.1661,-3.1661,-3.1661,-3.1661,-3.1661,-3.1661,-3.1661,-3.1661,-3.1661,-3.1661,-3.1661,-3.1661,-3.1661,-3.1661,-3.1661,-3.1661,-3.1661,-3.1661,-3.1661,-3.1661,-3.1661,-3.1661,-3.1661,-3.1661,-3.1661,-3.1661,-3.1661,-3.1661,-3.1661,-3.1661,-3.1661,-3.1661,-3.1661,-3.1661,-3.1661,-3.1661,-3.1661,-3.1661,-3.1661,-3.1661,-3.1661,-3.1661,-3.1661,-3.1661,-3.1901,-3.2454,-3.2503,-3.2959,-3.3982,-3.403,-3.4282,-3.4811,-3.4823,-3.4823,-3.4823,-3.4823,-3.4823,-3.4823,-3.4823,-3.4823,-4.0011,-4.0011,-3.9839,-3.9118,-3.8165,-3.7125,-3.5543,0.0,-3.2478,-3.137,-3.0637,-2.9985,-2.9184,-2.7959,-2.6812,-2.6069,-2.5518,0.0,0.0,0.0,0.0,-2.5732,-2.5742,-2.5742,0.0,0.0,-2.5742,-2.5742,-2.5742,-2.5742,-2.5742,-2.5742,-2.5742,-2.5742,-2.5742,-2.5742,-2.5742,-2.5742,-2.5742,-2.5742,-2.5742,-2.61,-2.6733,-2.8121,-2.905,-2.9795,-3.1104,-3.1661,-3.1661,-3.1661,-3.1661,-3.1661,-3.1661,-3.1661,-3.1661,-3.1661,-3.1661,-3.1661,-3.1661,-3.1661,-3.1661,-3.1661,-3.1661,-3.1661,-3.1661,-3.1661,-3.1661,-3.1661,-3.1661,-3.1661,-3.1661,-3.1661,-3.1661,-3.1661,-3.1661,-3.1661,-3.1661,-3.1661,-3.1661,-3.1661,-3.1661,-3.1661,-3.1661,-3.1661,-3.1661,-3.1661,-3.1661,-3.1661,-3.1661,-3.1661,-3.1661,-3.1661,-3.1661,-3.1661,-3.1661,-3.2022,-3.231,-3.2491,-3.3164,-3.3705,-3.403,-3.439,-3.4655,-3.4823,-3.4823,-3.4823,-3.4823,-3.4823,-3.4823,-3.4823,-3.4823,-3.4823,0.0,-3.9075,-3.8679,-3.7875,-3.7044,0.0,0.0,0.0,-3.2241,-3.1414,-3.0524,-2.9638,-2.8819,-2.7429,-2.629,-2.5551,-2.5201,0.0,0.0,0.0,0.0,-2.5742,0.0,0.0,0.0,-2.5742,-2.5742,-2.5742,-2.5742,-2.5742,-2.5742,-2.5742,-2.5742,-2.5742,-2.5742,-2.5742,-2.5742,-2.5742,-2.5742,-2.5742,-2.61,-2.6552,-2.7284,-2.8669,-2.9601,-3.026,-3.1282,-3.1661,0.0,-3.1661,-3.1661,-3.1661,-3.1661,-3.1661,-3.1661,-3.1661,-3.1661,-3.1661,-3.1661,-3.1661,-3.1661,-3.1661,-3.1661,-3.1661,-3.1661,-3.1661,-3.1661,-3.1661,-3.1661,-3.1661,-3.1661,-3.1661,-3.1661,-3.1661,-3.1661,-3.1661,-3.1661,-3.1661,-3.1661,-3.1661,-3.1661,-3.1661,-3.1661,-3.1661,-3.1661,-3.1661,-3.1661,-3.1661,-3.1661,-3.1661,-3.1661,-3.1661,-3.1853,-3.1985,-3.1985,-3.2298,-3.2671,-3.3056,-3.3681,-3.4126,-3.433,-3.4655,-3.4823,-3.4823,-3.4823,-3.4823,-3.4823,-3.4823,-3.4823,-3.4823,-3.4823,-3.4823,0.0,0.0,0.0,-3.6568,-3.5855,0.0,0.0,0.0,0.0,0.0,0.0,-2.9431,-2.8928,-2.7042,-2.5477,-2.5392,-2.5077,0.0,0.0,0.0,0.0,0.0,-2.5742,0.0,-2.5742,-2.5742,-2.5742,-2.5742,-2.5742,-2.5742,-2.5742,-2.5742,-2.5742,-2.5742,-2.5742,-2.5742,-2.5742,-2.5732,-2.583,-2.583,-2.6829,-2.7369,-2.7474,-2.9326,-3.026,-3.0351,-3.1282,-3.1661,-3.1661,-3.1661,-3.1661,-3.1661,-3.1661,-3.1661,-3.1661,-3.1661,-3.1661,-3.1661,-3.1661,-3.1661,-3.1661,-3.1661,-3.1661,-3.1661,-3.1661,-3.1661,-3.1661,-3.1661,-3.1661,-3.1661,-3.1661,-3.1661,-3.1661,-3.1572,-3.1661,-3.1661,-3.1572,-3.1661,-3.1661,-3.1661,-3.1661,-3.1661,-3.1661,-3.1661,-3.1661,-3.1661,-3.1661,-3.1661,-3.1661,-3.1661,-3.1673,-3.1721,-3.219,-3.2527,-3.2599,-3.2611,-3.302,-3.3982,-3.4078,-3.4318,-3.4811,-3.4823,-3.4823,-3.4823,-3.4823,-3.4823,-3.4823,-3.4823,-3.4823,-3.4823,-3.4823,-3.4823,-3.5789,0.0,-3.6489,-3.5615,-3.5142,-3.4637,0.0,0.0,0.0,0.0,0.0,0.0,0.0,0.0,0.0,0.0,0.0,0.0,0.0,0.0,0.0,-2.5742,-2.5742,-2.5742,-2.5742,-2.5742,-2.5742,-2.5742,-2.5742,-2.5742,-2.5742,-2.5742,-2.5742,-2.5742,-2.5742,-2.5742,-2.5742,-2.6466,-2.6829,-2.6819,-2.784,-2.8773,-2.951,-2.9977,-3.0633,-3.1383,-3.1572,-3.1661,-3.1661,-3.1661,-3.1661,-3.1661,-3.1661,-3.1661,-3.1661,-3.1661,-3.1661,-3.1661,-3.1661,-3.1661,-3.1661,-3.1661,-3.1661,-3.1661,-3.1661,-3.1661,-3.1661,-3.1661,-3.1661,-3.1661,-3.1661,-3.1661,-3.1484,-3.0722,-3.1104,-3.1472,-3.0722,-3.1193,-3.1661,-3.1661,-3.1661,-3.1661,-3.1661,-3.1661,-3.1661,-3.1661,-3.1661,-3.1661,-3.1661,-3.1661,-3.1829,-3.2262,-3.2418,-3.2827,-3.3609,-3.3681,-3.3777,-3.403,-3.4414,-3.4703,-3.4823,-3.4823,-3.4823,-3.4823,-3.4823,-3.4823,-3.4823,-3.4823,-3.4823,-3.4823,-3.4823,-3.4823,-3.4428,-3.4746,-3.5142,-3.4428,-3.4191,-3.3953,0.0,0.0,0.0,0.0,0.0,0.0,0.0,0.0,0.0,0.0,-2.51,0.0,0.0,0.0,0.0,-2.5742,-2.5742,-2.5742,0.0,-2.5742,-2.5742,-2.5742,-2.5742,-2.5742,-2.5742,-2.5742,-2.5742,-2.5742,-2.5742,-2.5742,-2.5742,-2.6284,-2.6733,-2.7189,-2.8215,-2.9235,-3.026,-3.0633,-3.1193,-3.1661,-3.1661,-3.1661,-3.1661,-3.1661,-3.1661,-3.1661,-3.1661,-3.1661,-3.1661,-3.1661,-3.1661,-3.1661,-3.1661,-3.1383,-3.1104,-3.1572,-3.1383,-3.1104,-3.156,-3.1661,-3.1661,-3.1661,-3.1661,-3.1661,-3.1661,-3.1383,-3.1003,-3.0913,-3.0913,-3.1003,-3.0913,-3.1294,-3.1661,-3.1661,-3.1661,-3.1661,-3.1661,-3.1661,-3.1661,-3.1661,-3.1661,-3.1661,-3.1661,-3.1889,-3.2166,-3.2466,-3.2923,-3.3428,-3.3994,-3.4258,-3.4402,-3.4402,-3.4667,-3.4823,-3.4823,-3.4823,-3.4823,-3.4823,-3.4823,-3.4823,-3.4823,-3.4823,-3.4823,-3.4823,-3.4823,-3.4823,-3.3641,-3.3471,-3.3556,-3.3398,-3.3313,-3.3313,0.0,0.0,0.0,0.0,0.0,0.0,0.0,0.0,0.0,0.0,0.0,0.0,0.0,0.0,-2.5742,-2.5742,-2.5742,0.0,-2.5742,-2.5742,-2.5742,-2.5742,-2.5742,-2.5742,-2.5742,-2.5742,-2.5742,-2.5742,-2.582,-2.5917,-2.5917,-2.5917,-2.6466,-2.7463,-2.8495,-2.9429,-3.0453,-3.1294,-3.1661,-3.1661,-3.1661,-3.1661,-3.1661,-3.1661,-3.1661,-3.1661,-3.1661,-3.1661,-3.1661,-3.1661,-3.1661,-3.1661,-3.1661,-3.1104,-3.0543,-3.1383,-3.1104,-3.0633,-3.1472,-3.1572,-3.1472,-3.1472,-3.1572,-3.1661,-3.1282,-3.0722,-3.0351,-3.0913,-3.0633,-3.0351,-3.1104,-3.1472,-3.1661,-3.1661,-3.1661,-3.1661,-3.1661,-3.1661,-3.1661,-3.1661,-3.1661,-3.1697,-3.1781,-3.2202,-3.2563,-3.2719,-3.3513,-3.4066,-3.415,-3.4571,-3.4823,-3.4823,-3.4823,-3.4823,-3.4823,-3.4823,-3.4823,-3.4823,-3.4823,-3.4823,-3.4823,-3.4823,-3.4823,-3.4823,-3.4823,-3.4823,-3.324,-3.3154,-3.3154,-3.3154,-3.3154,-3.3154,0.0,0.0,0.0,0.0,0.0,0.0,0.0,0.0,0.0,0.0,0.0,-2.5664,0.0,0.0,-2.5742,-2.5742,0.0,-2.5742,-2.5742,-2.5742,-2.5742,-2.5742,-2.5742,-2.5742,-2.5742,-2.5742,-2.5742,-2.5742,-2.6552,-2.701,-2.701,-2.701,-2.7474,-2.8495,-2.951,-3.0543,-3.1472,-3.1661,-3.1661,-3.1661,-3.1661,-3.1661,-3.1661,-3.1661,-3.1661,-3.1661,-3.1661,-3.1661,-3.1661,-3.1661,-3.1661,-3.1661,-3.1661,-3.1572,-3.1484,-3.1661,-3.1572,-3.1472,-3.1661,-3.1104,-3.0453,-3.0453,-3.1003,-3.1294,-2.9612,-2.9704,-2.9795,-2.8308,-2.905,-2.9988,-2.9326,-3.0543,-3.1661,-3.1661,-3.1661,-3.1661,-3.1661,-3.1661,-3.1661,-3.1661,-3.1661,-3.1841,-3.231,-3.2442,-3.2839,-3.3705,-3.3945,-3.4222,-3.4667,-3.4775,-3.4823,-3.4823,-3.4823,-3.4823,-3.4823,-3.4823,-3.4823,-3.4823,-3.4823,-3.4823,-3.4823,-3.4823,-3.4823,-3.4823,-3.4823,-3.4823,-3.3154,-3.3081,-3.3081,-3.3081,-3.3081,-3.3081,0.0,0.0,0.0,0.0,0.0,0.0,0.0,0.0,0.0,0.0,0.0,-2.5742,-2.5742,-2.5742,-2.5742,0.0,0.0,-2.5742,-2.5742,-2.5742,-2.5742,-2.5742,-2.5742,-2.5742,-2.5742,-2.5742,-2.5917,-2.6456,-2.6914,-2.7463,-2.8028,-2.8028,-2.8495,-2.9521,-2.9977,-3.0734,-3.1661,-3.1661,-3.1661,-3.1661,-3.1661,-3.1661,-3.1661,-3.1661,-3.1661,-3.1661,-3.1661,-3.1661,-3.1661,-3.1661,-3.1003,-3.017,-3.0722,-3.0543,-3.017,-3.0722,-3.0913,-3.0913,-3.0913,-3.0543,-3.0079,-2.9521,-2.9704,-2.9886,-2.8958,-2.868,-2.8484,-2.8121,-2.868,-2.9418,-2.951,-3.0633,-3.1661,-3.1661,-3.1661,-3.1661,-3.1661,-3.1661,-3.1661,-3.1661,-3.1925,-3.2214,-3.2466,-3.2984,-3.3513,-3.3982,-3.4294,-3.4571,-3.4811,-3.4823,-3.4823,-3.4823,-3.4823,-3.4823,-3.4823,-3.4823,-3.4823,-3.4823,-3.4823,-3.4823,-3.4823,-3.4823,-3.4823,-3.4823,-3.4823,-3.4823,-3.3081,-3.2884,-3.2698,-3.2698,0.0,0.0,0.0,0.0,0.0,0.0,0.0,0.0,0.0,0.0,0.0,0.0,-2.5742,-2.5742,-2.5742,-2.5742,-2.5742,-2.5742,-2.5742,-2.5742,-2.5742,-2.5742,-2.5742,-2.5742,-2.5742,-2.583,-2.6004,-2.6004,-2.6562,-2.7558,-2.7746,-2.8308,-2.905,-2.9235,-2.9704,-3.017,-3.017,-3.0734,-3.1661,-3.1661,-3.1661,-3.1661,-3.1661,-3.1661,-3.1661,-3.1661,-3.1661,-3.1661,-3.1661,-3.1572,-3.1383,-3.1572,-3.0543,-2.9143,-2.9886,-2.9886,-2.9418,-2.9795,-2.9988,-3.017,-2.9886,-2.9692,-2.9326,-2.8588,-2.8215,-2.8028,-2.8308,-2.7746,-2.7369,-2.7851,-2.8402,-2.8958,-2.9704,-3.0812,-3.1661,-3.1661,-3.1661,-3.1661,-3.1661,-3.1661,-3.1709,-3.1841,-3.2226,-3.2587,-3.2827,-3.3549,-3.409,-3.421,-3.4583,-3.4823,-3.4823,-3.4823,-3.4823,-3.4823,-3.4823,-3.4823,-3.4823,-3.4823,-3.4823,-3.4823,-3.4823,-3.4823,-3.4823,-3.4823,-3.4823,-3.4823,-3.4823,-3.4823,-3.3081,-3.2239,-3.1311,-3.1311,-3.2064,0.0,-3.2711,-3.1625,0.0,-3.0453,0.0,0.0,0.0,0.0,0.0,-2.5742,-2.5742,-2.5742,-2.5742,0.0,-2.5742,-2.5742,-2.5742,-2.5742,-2.5742,-2.5742,-2.5742,-2.5742,-2.5742,-2.61,-2.701,-2.7094,-2.7558,-2.8588,-2.9521,-2.9977,-3.0068,-3.1003,-3.1003,-3.017,-3.017,-3.0734,-3.1661,-3.1661,-3.1661,-3.1661,-3.1661,-3.1661,-3.1661,-3.1661,-3.1661,-3.1661,-3.1661,-3.1104,-3.0441,-3.1383,-3.1003,-3.0079,-3.017,-3.0722,-3.1193,-2.9418,-2.9418,-2.9988,-2.905,-2.8121,-2.7379,-2.7369,-2.6648,-2.61,-2.7105,-2.7274,-2.701,-2.61,-2.7295,-2.868,-2.8773,-3.0351,-3.1661,-3.1661,-3.1661,-3.1661,-3.1661,-3.1661,-3.1841,-3.237,-3.2478,-3.2851,-3.3801,-3.3994,-3.4234,-3.4715,-3.4811,-3.4823,-3.4823,-3.4823,-3.4823,-3.4823,-3.4823,-3.4823,-3.4823,-3.4823,-3.4823,-3.4823,-3.4823,-3.4823,-3.4823,-3.4823,-3.4823,-3.4823,-3.4823,-3.4823,-3.281,-3.245,-3.1913,-3.1913,0.0,0.0,0.0,-3.0429,-2.9521,-2.9418,-2.8215,0.0,0.0,0.0,-2.6466,-2.583,-2.5742,-2.5742,-2.5742,-2.5742,-2.5742,-2.5742,-2.5742,-2.5917,-2.6552,-2.6648,-2.6924,-2.7484,-2.7579,-2.7757,-2.8121,-2.8121,-2.8588,-2.9612,-2.9977,-3.0543,-3.1104,-3.1484,-3.1484,-3.1104,-3.1104,-3.1294,-3.1661,-3.1661,-3.1661,-3.1661,-3.1661,-3.1661,-3.1661,-3.1661,-3.1661,-3.1661,-3.1661,-3.1104,-3.0351,-3.1294,-3.0633,-2.9326,-2.9977,-3.0079,-2.9704,-2.8958,-2.8958,-2.905,-2.8028,-2.7463,-2.7189,-2.7189,-2.6466,-2.583,-2.6197,-2.6284,-2.638,-2.6552,-2.7662,-2.8866,-2.9521,-3.0722,-3.1661,-3.1661,-3.1661,-3.1661,-3.1661,-3.1949,-3.2262,-3.2466,-3.3044,-3.3597,-3.3982,-3.433,-3.4607,-3.4811,-3.4823,-3.4823,-3.4823,-3.4823,-3.4823,-3.4823,-3.4823,-3.4823,-3.4823,-3.4823,-3.4823,-3.4823,-3.4823,-3.4823,-3.4823,-3.4823,-3.4823,-3.4823,-3.4823,-3.4823,-3.2636,-3.2189,-3.1837,0.0,0.0,0.0,0.0,-2.9886,-2.9418,-2.9601,-2.8588,0.0,-2.5917,0.0,0.0,0.0,-2.5742,-2.5742,-2.5742,-2.5742,-2.5742,-2.5742,-2.5742,-2.6014,-2.6648,-2.701,-2.7463,-2.8215,-2.8495,-2.8866,-2.9143,-2.9143,-2.9612,-3.0633,-3.0633,-3.1003,-3.1661,-3.1661,-3.1661,-3.1661,-3.1661,-3.1661,-3.1661,-3.1661,-3.1661,-3.1661,-3.1661,-3.1661,-3.1661,-3.1661,-3.1661,-3.1661,-3.1661,-3.1104,-3.0351,-3.1294,-3.0633,-2.9235,-2.9612,-2.951,-2.905,-2.8038,-2.7945,-2.8028,-2.701,-2.6733,-2.6733,-2.6733,-2.6187,-2.5742,-2.5742,-2.5742,-2.5917,-2.6914,-2.7934,-2.8866,-2.9601,-3.0543,-3.1193,-3.1193,-3.1193,-3.1342,-3.1889,-3.225,-3.2611,-3.2935,-3.3585,-3.4102,-3.427,-3.4607,-3.4823,-3.4823,-3.4823,-3.4823,-3.4823,-3.4823,-3.4823,-3.4823,-3.4823,-3.4823,-3.4823,-3.4823,-3.4823,-3.4823,-3.4823,-3.4823,-3.4823,-3.4823,-3.4823,-3.4823,-3.4823,-3.4823,-3.2388,-3.1472,0.0,0.0,0.0,0.0,0.0,-3.017,-3.0441,-3.1472,0.0,-2.8038,-2.61,-2.5742,0.0,-2.5742,-2.5742,-2.5742,-2.5742,-2.5732,-2.5732,-2.5732,-2.5732,-2.5732,-2.5732,-2.6648,-2.7189,-2.7284,-2.8215,-2.9143,-3.017,-3.017,-3.0633,-3.1661,-3.1661,-3.1661,-3.1661,-3.1661,-3.1661,-3.1661,-3.1661,-3.1661,-3.1661,-3.1661,-3.1661,-3.1661,-3.1661,-3.1661,-3.1661,-3.1661,-3.1661,-3.1661,-3.1661,-3.1104,-3.0351,-3.1282,-3.1092,-3.0068,-2.905,-2.9326,-2.9704,-2.6658,-2.637,-2.701,-2.6004,-2.5742,-2.5742,-2.5742,-2.5742,-2.5742,-2.5742,-2.5742,-2.5917,-2.6914,-2.7934,-2.868,-2.868,-2.951,-3.017,-3.017,-3.017,-3.0717,-3.2213,-3.2515,-3.2863,-3.3885,-3.4042,-3.4234,-3.4763,-3.4823,-3.4823,-3.4823,-3.4823,-3.4823,-3.4823,-3.4823,-3.4823,-3.4823,-3.4823,-3.4823,-3.4823,-3.4823,-3.4823,-3.4823,-3.4823,-3.4823,-3.4823,-3.4823,-3.4823,-3.4823,-3.4823,-3.4823,-3.1092,0.0,0.0,0.0,0.0,0.0,0.0,0.0,0.0,0.0,-2.7484,-2.6658,-2.6733,0.0,0.0,-2.5742,-2.5742,-2.5742,-2.5742,-2.6274,-2.6733,-2.6733,-2.7389,-2.8132,-2.8784,-2.9154,-2.9612,-3.0351,-3.0633,-3.0913,-3.1193,-3.1294,-3.1383,-3.1661,-3.1661,-3.1661,-3.1661,-3.1661,-3.1661,-3.1661,-3.1661,-3.1661,-3.1661,-3.1661,-3.1661,-3.1661,-3.1661,-3.1661,-3.1661,-3.1661,-3.1661,-3.1661,-3.1661,-3.1472,-3.1282,-3.1572,-3.1092,-3.017,-2.9886,-2.905,-2.7934,-2.701,-2.6466,-2.61,-2.583,-2.5742,-2.5742,-2.5742,-2.5742,-2.5742,-2.5742,-2.5742,-2.5917,-2.6914,-2.7474,-2.784,-2.8588,-2.8958,-2.9326,-3.0068,-3.0468,-3.1158,-3.2285,-3.3104,-3.3693,-3.3994,-3.4354,-3.4655,-3.4811,-3.4823,-3.4823,-3.4823,-3.4823,-3.4823,-3.4823,-3.4823,-3.4823,-3.4823,-3.4823,-3.4823,-3.4823,-3.4823,-3.4823,-3.4823,-3.4823,-3.4823,-3.4823,-3.4823,-3.4823,-3.4823,-3.4823,-3.4823,-3.0734,0.0,0.0,0.0,0.0,0.0,0.0,0.0,0.0,0.0,0.0,-2.637,-2.6552,-2.61,0.0,-2.5742,-2.5742,-2.5742,-2.5742,-2.6187,-2.6733,-2.7189,-2.7746,-2.8495,-2.951,-2.9988,-3.0441,-3.1104,-3.1472,-3.1661,-3.1661,-3.1661,-3.1661,-3.1661,-3.1661,-3.1661,-3.1661,-3.1661,-3.1661,-3.1661,-3.1661,-3.1661,-3.1661,-3.1661,-3.1661,-3.1661,-3.1661,-3.1661,-3.1661,-3.1661,-3.1661,-3.1661,-3.1282,-3.1104,-3.1104,-3.0633,-3.017,-2.9521,-2.9143,-2.8204,-2.7094,-2.6733,-2.6187,-2.5742,-2.5742,-2.5742,-2.5742,-2.5742,-2.5742,-2.5742,-2.5742,-2.5742,-2.5917,-2.6914,-2.7189,-2.7379,-2.7934,-2.8402,-2.8866,-2.9521,-3.0318,-3.1414,-3.2584,-3.3501,-3.4114,-3.433,-3.4619,-3.4823,-3.4823,-3.4823,-3.4823,-3.4823,-3.4823,-3.4823,-3.4823,-3.4823,-3.4823,-3.4823,-3.4823,-3.4823,-3.4823,-3.4823,-3.4823,-3.4823,-3.4823,-3.4823,-3.4823,-3.4823,-3.4823,-3.4823,-3.4823,-3.4823,0.0,0.0,0.0,0.0,0.0,0.0,0.0,0.0,0.0,-2.7652,0.0,-2.7105,-2.6294,-2.6014,-2.6014,-2.6014,-2.6014,-2.6014,-2.6014,-2.6014,-2.6476,-2.7379,-2.7558,-2.7934,-2.8866,-2.9795,-3.0351,-3.0351,-3.1193,-3.1661,-3.1661,-3.1661,-3.1661,-3.1661,-3.1661,-3.1661,-3.1661,-3.1661,-3.1661,-3.1661,-3.1661,-3.1661,-3.1661,-3.1661,-3.1661,-3.1661,-3.1661,-3.1661,-3.1661,-3.1572,-3.156,-3.1472,-3.0453,-3.0068,-2.9977,-2.905,-2.868,-2.8402,-2.7558,-2.7094,-2.6914,-2.6004,-2.5742,-2.5742,-2.5742,-2.5742,-2.5742,-2.5742,-2.5742,-2.5742,-2.5742,-2.5742,-2.5917,-2.6829,-2.7094,-2.7094,-2.7094,-2.7746,-2.8505,-2.8735,-2.9911,-3.1483,-3.3074,-3.3777,-3.4282,-3.4763,-3.4823,-3.4823,-3.4823,-3.4823,-3.4823,-3.4823,-3.4823,-3.4823,-3.4823,-3.4823,-3.4823,-3.4823,-3.4823,-3.4823,-3.4823,-3.4823,-3.4823,-3.4823,-3.4823,-3.4823,-3.4823,-3.4823,-3.4823,-3.4823,-3.4823,-3.4823,0.0,0.0,0.0,0.0,0.0,0.0,0.0,0.0,0.0,-2.9154,-2.8958,-2.8588,-2.9154,-2.8598,-2.8028,-2.8028,-2.8028,-2.8028,-2.8028,-2.8691,-2.9338,-2.9521,-3.026,-3.0824,-3.1003,-3.1282,-3.1383,-3.1383,-3.1572,-3.1661,-3.1661,-3.1661,-3.1661,-3.1661,-3.1661,-3.1661,-3.1661,-3.1661,-3.1661,-3.1661,-3.1661,-3.1661,-3.1661,-3.1661,-3.1661,-3.1661,-3.1661,-3.1661,-3.1661,-3.0824,-3.0531,-3.0441,-2.9418,-2.905,-2.8958,-2.8773,-2.8215,-2.7463,-2.7284,-2.6638,-2.6014,-2.5732,-2.5742,-2.5742,-2.5742,-2.5742,-2.5742,-2.5742,-2.5742,-2.5742,-2.5742,-2.5742,-2.5732,-2.6014,-2.6004,-2.6004,-2.6004,-2.6197,-2.6951,-2.8921,-2.9951,-3.1219,-3.3493,-3.4306,-3.4691,-3.4811,-3.4823,-3.4823,-3.4823,-3.4823,-3.4823,-3.4823,-3.4823,-3.4823,-3.4823,-3.4823,-3.4823,-3.4823,-3.4823,-3.4823,-3.4823,-3.4823,-3.4823,-3.4823,-3.4823,-3.4823,-3.4823,-3.4823,-3.4823,-3.4823,-3.4823,-3.4823,0.0,0.0,0.0,0.0,0.0,0.0,0.0,0.0,0.0,0.0,-2.8969,-2.7579,-2.8588,-2.8308,-2.8121,-2.8588,-2.868,-2.868,-2.868,-2.9143,-2.9704,-3.017,-3.0633,-3.1193,-3.1661,-3.1661,-3.1661,-3.1661,-3.1661,-3.1661,-3.1661,-3.1661,-3.1661,-3.1661,-3.1661,-3.1661,-3.1661,-3.1661,-3.1661,-3.1661,-3.1661,-3.1661,-3.1661,-3.1661,-3.1661,-3.1661,-3.1661,-3.1472,-3.0913,-3.0453,-2.9886,-2.9418,-2.8402,-2.8028,-2.7934,-2.7484,-2.6924,-2.6466,-2.6466,-2.61,-2.5742,-2.5742,-2.5742,-2.5742,-2.5742,-2.5742,-2.5742,-2.5742,-2.5742,-2.5742,-2.5742,-2.5742,-2.5742,-2.5742,-2.5742,-2.5742,-2.5742,-2.61,-2.6876,-2.8391,-3.002,-3.1474,-3.2966,-3.4076,-3.4823,-3.4823,-3.4823,-3.4823,-3.4823,-3.4823,-3.4823,-3.4823,-3.4823,-3.4823,-3.4823,-3.4823,-3.4823,-3.4823,-3.4823,-3.4823,-3.4823,-3.4823,-3.4823,-3.4823,-3.4823,-3.4823,-3.4823,-3.4823,-3.4823,-3.4823,-3.4823,-3.4823,0.0,0.0,0.0,0.0,0.0,0.0,0.0,0.0,0.0,0.0,-2.8795,-2.703,-2.784,-2.8028,-2.8215,-2.905,-2.9235,-2.9235,-2.9235,-2.9235,-2.9521,-3.0351,-3.0453,-3.0824,-3.1661,-3.1661,-3.1661,-3.1661,-3.1661,-3.1661,-3.1661,-3.1661,-3.1661,-3.1661,-3.1661,-3.1661,-3.1661,-3.1661,-3.1661,-3.1661,-3.1661,-3.1661,-3.1661,-3.1472,-3.1572,-3.1661,-3.1472,-3.1003,-3.017,-2.9795,-2.9235,-2.8308,-2.7379,-2.6914,-2.6819,-2.6014,-2.5742,-2.5742,-2.5742,-2.5742,-2.5742,-2.5742,-2.5742,-2.5742,-2.5742,-2.5742,-2.5742,-2.5742,-2.5742,-2.5742,-2.5742,-2.5742,-2.5742,-2.5742,-2.5742,-2.5742,-2.5742,-2.6526,-2.7554,-2.8227,-3.0508,-3.2399,-3.2718,-3.3941,-3.4823,-3.4823,-3.4823,-3.4823,-3.4823,-3.4823,-3.4823,-3.4823,-3.4823,-3.4823,-3.4823,-3.4823,-3.4823,-3.4823,-3.4823,-3.4823,-3.4823,-3.4823,-3.4823,-3.4823,-3.4823,-3.4823,-3.4823,-3.4823,-3.4823,-3.4823,-3.4823,-3.4823,0.0,0.0,0.0,0.0,0.0,0.0,0.0,0.0,0.0,0.0,-3.0079,-3.0925,-3.1104,-3.1104,-3.1104,-3.1282,-3.1294,-3.1294,-3.1294,-3.1294,-3.1383,-3.1472,-3.1472,-3.1572,-3.1661,-3.1661,-3.1661,-3.1661,-3.1661,-3.1661,-3.1661,-3.1661,-3.1661,-3.1661,-3.1661,-3.1661,-3.1661,-3.1661,-3.1661,-3.1661,-3.1661,-3.1661,-3.1661,-3.0824,-3.0913,-3.1661,-3.0812,-3.0351,-3.0068,-2.8308,-2.7558,-2.7284,-2.6284,-2.5917,-2.5917,-2.5732,-2.5742,-2.5742,-2.5742,-2.5742,-2.5742,-2.5742,-2.5742,-2.5742,-2.5742,-2.5742,-2.5742,-2.5742,-2.5742,-2.5742,-2.5742,-2.5742,-2.5742,-2.5742,-2.5742,-2.5742,-2.5742,-2.6875,-2.8334,-2.9667,-3.2363,-3.4437,-3.4509,-3.4678,-3.4823,-3.4823,-3.4823,-3.4823,-3.4823,-3.4823,-3.4823,-3.4823,-3.4823,-3.4823,-3.4823,-3.4823,-3.4823,-3.4823,-3.4823,-3.4823,-3.4823,-3.4823,-3.4823,-3.4823,-3.4823,-3.4823,-3.4823,-3.4823,-3.4823,-3.4823,-3.4823,-3.4823,0.0,0.0,0.0,0.0,0.0,0.0,0.0,0.0,0.0,0.0,-3.1104,-3.156,-3.1003,-3.0824,-3.1003,-3.1572,-3.1661,-3.1661,-3.1661,-3.1661,-3.1661,-3.1661,-3.1661,-3.1661,-3.1661,-3.1661,-3.1661,-3.1661,-3.1661,-3.1661,-3.1661,-3.1661,-3.1661,-3.1661,-3.1661,-3.1661,-3.1661,-3.1661,-3.1661,-3.1661,-3.1661,-3.1661,-3.1661,-3.0633,-3.0453,-3.0824,-2.9795,-2.905,-2.8495,-2.7558,-2.6914,-2.6284,-2.5917,-2.5742,-2.5742,-2.5742,-2.5742,-2.5742,-2.5742,-2.5742,-2.5742,-2.5742,-2.5742,-2.5742,-2.5742,-2.5742,-2.5742,-2.5742,-2.5742,-2.5742,-2.5742,-2.5742,-2.5742,-2.5742,-2.5742,-2.5742,-2.5742,-2.6926,-2.8697,-3.1091,-3.2805,-3.4115,-3.4726,-3.4823,-3.4823,-3.4823,-3.4823,-3.4823,-3.4823,-3.4823,-3.4823,-3.4823,-3.4823,-3.4823,-3.4823,-3.4823,-3.4823,-3.4823,-3.4823,-3.4823,-3.4823,-3.4823,-3.4823,-3.4823,-3.4823,-3.4823,-3.4823,-3.4823,-3.4823,-3.4823,-3.4823,-3.4823,0.0,0.0,0.0,0.0,0.0,0.0,0.0,0.0,0.0,0.0,-3.1661,-3.1472,-3.0722,-3.0543,-3.0824,-3.1572,-3.1661,-3.1661,-3.1661,-3.1661,-3.1661,-3.1661,-3.1661,-3.1661,-3.1661,-3.1661,-3.1661,-3.1661,-3.1661,-3.1661,-3.1661,-3.1661,-3.1661,-3.1661,-3.1661,-3.1661,-3.1661,-3.1661,-3.1661,-3.1661,-3.1661,-3.1572,-3.1282,-3.026,-2.9704,-2.9429,-2.868,-2.7934,-2.7189,-2.6914,-2.637,-2.5742,-2.5742,-2.5742,-2.5742,-2.5742,-2.5742,-2.5742,-2.5742,-2.5742,-2.5742,-2.5742,-2.5742,-2.5742,-2.5742,-2.5742,-2.5742,-2.5742,-2.5742,-2.5742,-2.5742,-2.5742,-2.5742,-2.5742,-2.5742,-2.5888,-2.6671,-2.7744,-2.9516,-3.2552,-3.3354,-3.3819,-3.4628,-3.4823,-3.4823,-3.4823,-3.4823,-3.4823,-3.4823,-3.4823,-3.4823,-3.4823,-3.4823,-3.4823,-3.4823,-3.4823,-3.4823,-3.4823,-3.4823,-3.4823,-3.4823,-3.4823,-3.4823,-3.4823,-3.4823,-3.4823,-3.4823,-3.4823,-3.4823,-3.4823,-3.4823,-3.4823,0.0,0.0,0.0,0.0,0.0,0.0,0.0,0.0,0.0,0.0,0.0,-3.1661,-3.1661,-3.1661,-3.1661,-3.1661,-3.1661,-3.1661,-3.1661,-3.1661,-3.1661,-3.1661,-3.1661,-3.1661,-3.1661,-3.1661,-3.1661,-3.1661,-3.1661,-3.1661,-3.1661,-3.1661,-3.1661,-3.1661,-3.1661,-3.1661,-3.1661,-3.1661,-3.1661,-3.1661,-3.1661,-3.1193,-3.026,-2.9235,-2.8308,-2.7379,-2.7274,-2.7284,-2.7094,-2.6187,-2.5732,-2.5742,-2.5742,-2.5742,-2.5742,-2.5742,-2.5742,-2.5742,-2.5742,-2.5742,-2.5742,-2.5742,-2.5742,-2.5742,-2.5742,-2.5742,-2.5742,-2.5742,-2.5742,-2.5742,-2.5742,-2.5742,-2.5742,-2.5742,-2.5742,-2.6523,-2.9397,-3.0089,-3.108,-3.4074,-3.4702,-3.4726,-3.4823,-3.4823,-3.4823,-3.4823,-3.4823,-3.4823,-3.4823,-3.4823,-3.4823,-3.4823,-3.4823,-3.4823,-3.4823,-3.4823,-3.4823,-3.4823,-3.4823,-3.4823,-3.4823,-3.4823,-3.4823,-3.4823,-3.4823,-3.4823,-3.4823,-3.4823,-3.4823,-3.4823,-3.4823,-3.4823,0.0,0.0,0.0,0.0,0.0,0.0,0.0,0.0,0.0,0.0,0.0,-3.1661,-3.1661,-3.1661,-3.1661,-3.1661,-3.1661,-3.1661,-3.1661,-3.1661,-3.1661,-3.1661,-3.1661,-3.1661,-3.1661,-3.1849,-3.1849,-3.1749,-3.1849,-3.1849,-3.1673,-3.1661,-3.1661,-3.1661,-3.1661,-3.1661,-3.1661,-3.1661,-3.1661,-3.1661,-3.1015,-3.0543,-3.017,-2.8495,-2.7558,-2.7189,-2.6552,-2.6284,-2.6187,-2.582,-2.5742,-2.5742,-2.5742,-2.5742,-2.5742,-2.5742,-2.5742,-2.5742,-2.5742,-2.5742,-2.5742,-2.5742,-2.5742,-2.5742,-2.5742,-2.5742,-2.5742,-2.5742,-2.5742,-2.5742,-2.5742,-2.5742,-2.5742,-2.5742,-2.6187,-2.729,-2.9352,-3.0033,-3.0927,-3.2994,-3.4195,-3.4823,-3.4823,-3.4823,-3.4823,-3.4823,-3.4823,-3.4823,-3.4823,-3.4823,-3.4823,-3.4823,-3.4823,-3.4823,-3.4823,-3.4823,-3.4823,-3.4823,-3.4823,-3.4823,-3.4823,-3.4499,-3.433,-3.433,-3.4006,-3.4162,-3.4823,-3.4487,-3.433,-3.4318,-3.3994,-3.3837,0.0,0.0,0.0,0.0,0.0,0.0,0.0,0.0,0.0,0.0,0.0,-3.1661,-3.1661,-3.1661,-3.1661,-3.1661,-3.1661,-3.1661,-3.1661,-3.1661,-3.1749,-3.1761,-3.1761,-3.1761,-3.1761,-3.2025,-3.2025,-3.1849,-3.1937,-3.1937,-3.1849,-3.1761,-3.1661,-3.1661,-3.1661,-3.1661,-3.1661,-3.1661,-3.1661,-3.1661,-3.0633,-2.9977,-2.9612,-2.7934,-2.701,-2.6648,-2.6014,-2.5742,-2.5742,-2.5742,-2.5742,-2.5742,-2.5742,-2.5742,-2.5742,-2.5742,-2.5742,-2.5742,-2.5742,-2.5742,-2.5742,-2.5742,-2.5742,-2.5742,-2.5742,-2.5742,-2.5742,-2.5742,-2.5742,-2.5742,-2.5742,-2.5742,-2.5742,-2.5742,-2.6187,-2.7102,-2.8444,-2.9661,-3.1033,-3.2518,-3.3588,-3.4318,-3.4318,-3.4451,-3.4559,-3.4559,-3.4715,-3.4823,-3.4823,-3.4823,-3.4823,-3.4823,-3.4667,-3.4559,-3.4559,-3.4414,-3.4318,-3.4318,-3.4318,-3.4318,-3.4318,-3.397,-3.3789,-3.3789,-3.3464,-3.3633,-3.4318,-3.3958,-3.3789,-3.3777,-3.3452,-3.3284,0.0,0.0,0.0,0.0,0.0,0.0,0.0,0.0,0.0,0.0,0.0,-3.1661,-3.1661,-3.1661,-3.1661,-3.1661,-3.1661,-3.1661,-3.1661,-3.1661,-3.1749,-3.195,-3.2038,-3.2038,-3.2038,-3.2213,-3.23,-3.2038,-3.2038,-3.2038,-3.2038,-3.1849,-3.1661,-3.1661,-3.1661,-3.1661,-3.1661,-3.1661,-3.1661,-3.1661,-3.0633,-2.9704,-2.868,-2.7652,-2.6638,-2.5742,-2.5742,-2.5742,-2.5742,-2.5742,-2.5742,-2.5742,-2.5742,-2.5742,-2.5742,-2.5742,-2.5742,-2.5742,-2.5742,-2.5742,-2.5742,-2.5742,-2.5742,-2.5742,-2.5742,-2.5742,-2.5742,-2.5742,-2.5742,-2.5742,-2.5742,-2.5742,-2.5742,-2.5742,-2.5732,-2.61,-2.701,-2.925,-3.1472,-3.2966,-3.3272,-3.3284,-3.3284,-3.3693,-3.4018,-3.4018,-3.4451,-3.4787,-3.4787,-3.4787,-3.4787,-3.4787,-3.433,-3.4018,-3.4018,-3.3573,-3.3284,-3.3284,-3.3284,-3.3284,-3.3284,-3.3272,-3.3272,-3.3272,-3.3248,-3.3236,-3.3236,-3.326,-3.3272,-3.3272,-3.3248,-3.3236,-2.5742,0.0,0.0,0.0,0.0,0.0,0.0,0.0,0.0,0.0,0.0,0.0,-3.1661,-3.1661,-3.1661,-3.1661,-3.1661,-3.1661,-3.1661,-3.1661,-3.1749,-3.1761,-3.1937,-3.2038,-3.2038,-3.2376,-3.2562,0.0,-3.23,-3.2213,-3.2038,-3.1849,-3.1661,-3.1661,-3.1661,-3.1661,-3.1661,-3.1661,-3.1661,-3.1661,-3.0633,-2.9704,-2.868,-2.7652,-2.6638,-2.5742,-2.5742,-2.5742,-2.5742,-2.5742,-2.5742,-2.5742,-2.5742,-2.5742,-2.5742,-2.5742,-2.5742,-2.5742,-2.5742,-2.5742,-2.5742,-2.5742,-2.5742,-2.5742,-2.5742,-2.5742,-2.5742,-2.5742,-2.5742,-2.5742,-2.5742,-2.5742,-2.5742,-2.5742,-2.6839,-2.7945,-2.8215,-3.0,-3.1494,-3.1646,-3.2545,-3.3284,-3.3284,-3.3404,-3.3501,-3.3501,-3.3621,-3.3717,-3.3717,-3.3717,-3.3717,-3.3717,-3.3585,-3.3501,-3.3501,-3.3368,-3.3284,-3.3284,-3.3284,-3.3284,-3.3284,-3.2923,-3.2719,-3.2719,-3.2322,-3.2118,-3.2118,-3.2527,-3.2719,-3.2707,-3.2298,-3.2118,0.0,0.0,0.0,0.0,0.0,0.0,-3.0824,-3.1383,-3.1661,0.0,-3.1661,0.0,-3.1661,-3.1661,-3.1661,-3.1661,-3.1661,-3.1661,-3.1661,-3.1661,-3.1749,-3.1849,-3.2025,-3.2213,-3.2213,-3.255,-3.281,-3.2562,-3.2475,-3.2213,-3.1849,-3.1761,-3.1661,-3.1661,-3.1661,-3.1661,-3.1661,-3.1661,-3.1661,-3.1661,-3.0633,-2.9704,-2.868,-2.7652,-2.6638,-2.5742,-2.5742,-2.5742,-2.5742,-2.5742,-2.5742,-2.5742,-2.5742,-2.5742,-2.5742,-2.5742,-2.5742,-2.5742,-2.5742,-2.5742,-2.5742,-2.5742,-2.5742,-2.5742,-2.5742,-2.5742,-2.5742,-2.5742,-2.5742,-2.5742,-2.5742,-2.5742,-2.583,-2.6187,-2.72,-2.8297,-2.9143,-3.026,-3.1109,-3.1234,-3.2019,-3.2611,-3.2611,-3.2803,-3.2959,-3.2959,-3.3152,-3.3284,-3.3284,-3.3284,-3.3284,-3.3284,-3.3092,-3.2959,-3.2959,-3.2743,-3.2611,-3.2611,-3.2611,-3.2611,-3.2611,-3.231,-3.2154,-3.2154,-3.1829,-3.1661,-3.1661,-3.1985,-3.2154,-3.2142,-3.1817,-3.1661,0.0,0.0,0.0,0.0,-2.9326,0.0,-3.017,-3.0913,-3.1572,-3.1661,-3.1661,0.0,0.0,-3.1661,-3.1661,-3.1661,-3.1661,-3.1661,-3.1661,-3.1749,-3.1761,-3.1937,-3.23,-3.2388,-3.2388,-3.2822,-3.2982,-3.2797,-3.2562,-3.2213,-3.1749,-3.1661,-3.1661,-3.1661,-3.1661,-3.1661,-3.1661,-3.1661,-3.1661,-3.1661,-3.0633,-2.9704,-2.868,-2.7652,-2.6638,-2.5742,-2.5742,-2.5742,-2.5742,-2.5742,-2.5742,-2.5742,-2.5742,-2.5742,-2.5742,-2.5742,-2.5742,-2.5742,-2.5742,-2.5742,-2.5742,-2.5742,-2.5742,-2.5742,-2.5742,-2.5742,-2.5742,-2.5742,-2.5742,-2.5742,-2.5742,-2.5742,-2.5917,-2.6914,-2.7284,-2.7934,-2.9795,-3.026,-3.0633,-3.1572,-3.1661,-3.1661,-3.1661,-3.2082,-3.2406,-3.2406,-3.2815,-3.3104,-3.3104,-3.3104,-3.3104,-3.3104,-3.2683,-3.2406,-3.2406,-3.1949,-3.1661,-3.1661,-3.1661,-3.1661,-3.1661,-3.1661,-3.1661,-3.1661,-3.1661,-3.1661,-3.1661,-3.1661,-3.1661,-3.1661,-3.1661,-3.1661,0.0,0.0,-2.7652,-2.8495,-2.8866,0.0,-2.9977,-3.0351,-3.0722,0.0,0.0,0.0,0.0,0.0,-3.1661,-3.1661,-3.1661,-3.1661,-3.1661,-3.1849,-3.195,-3.2038,-3.2376,-3.2636,-3.2636,-3.2896,-3.3081,-3.2995,-3.2649,-3.2213,-3.1749,-3.1661,-3.1661,-3.1661,-3.1661,-3.1661,-3.1661,-3.1661,-3.1661,-3.1661,-3.0633,-2.9704,-2.868,-2.7652,-2.6638,-2.5742,-2.5742,-2.5742,-2.5742,-2.5742,-2.5742,-2.5742,-2.5742,-2.5742,-2.5742,-2.5742,-2.5742,-2.5742,-2.5742,-2.5742,-2.5742,-2.5742,-2.5742,-2.5742,-2.5742,-2.5742,-2.5742,-2.5742,-2.5742,-2.5742,-2.5742,-2.5742,-2.5917,-2.6914,-2.784,-2.8773,-2.9977,-3.0824,-3.1472,-3.1661,-3.1661,-3.1661,-3.1661,-3.1757,-3.1829,-3.1829,-3.1913,-3.1985,-3.1985,-3.1985,-3.1985,-3.1985,-3.1889,-3.1829,-3.1829,-3.1721,-3.1661,-3.1661,-3.1661,-3.1661,-3.1661,-3.1661,-3.1661,-3.1661,-3.1661,-3.1661,-3.1661,-3.1661,-3.1661,-3.1661,-3.1661,-3.1661,0.0,-2.868,-2.8958,-2.9977,-3.017,0.0,0.0,-3.0913,-3.1104,-3.1572,-3.1661,0.0,0.0,0.0,-3.1661,-3.1661,-3.1661,-3.1761,-3.1849,-3.1937,-3.2038,-3.2038,-3.2363,-3.2711,-3.2711,-3.2896,-3.2995,-3.2736,-3.2562,-3.2213,-3.1749,-3.1661,-3.1661,-3.1661,-3.1661,-3.1661,-3.1661,-3.1661,-3.1661,-3.1661,-3.0633,-2.9704,-2.868,-2.7652,-2.6638,-2.5742,-2.5742,-2.5742,-2.5742,-2.5742,-2.5742,-2.5742,-2.5742,-2.5742,-2.5742,-2.5742,-2.5742,-2.5742,-2.5742,-2.5742,-2.5742,-2.5742,-2.5742,-2.5742,-2.5742,-2.5742,-2.5742,-2.5742,-2.5742,-2.5742,-2.5742,-2.5742,-2.61,-2.7568,-2.7934,-2.8495,-3.0543,-3.0913,-3.1104,-3.1572,-3.1661,-3.1661,-3.1661,-3.1661,-3.1661,-3.1661,-3.1661,-3.1661,-3.1661,-3.1661,-3.1661,-3.1661,-3.1661,-3.1661,-3.1661,-3.1661,-3.1661,-3.1661,-3.1661,-3.1661,-3.1661,-3.1661,-3.1661,-3.1661,-3.1661,-3.1661,-3.1661,-3.1661,-3.1661,-3.1661,-3.1661,-3.1661,-2.9418,-2.9636,-3.0235,-3.1169,-3.1311,-3.1252,0.0,0.0,0.0,0.0,0.0,0.0,0.0,0.0,0.0,0.0,0.0,0.0,0.0,-3.1877,0.0,-3.2113,-3.2463,-3.2711,-3.281,-3.2982,-3.2909,-3.2487,-3.24,-3.2213,-3.1749,-3.1661,-3.1661,-3.1661,-3.1661,-3.1661,-3.1661,-3.1661,-3.1661,-3.1661,-3.0633,-2.9704,-2.868,-2.7652,-2.6638,-2.5742,-2.5742,-2.5742,-2.5742,-2.5742,-2.5742,-2.5742,-2.5742,-2.5742,-2.5742,-2.5742,-2.5742,-2.5742,-2.5742,-2.5742,-2.5742,-2.5742,-2.5742,-2.5742,-2.5742,-2.5742,-2.5742,-2.5742,-2.5742,-2.5742,-2.5742,-2.5742,-2.6197,-2.7945,-2.7746,-2.7934,-3.0543,-3.0633,-3.0453,-3.1282,-3.1572,-3.1661,-3.1661,-3.1661,-3.1661,-3.1661,-3.1661,-3.1661,-3.1661,-3.1661,-3.1661,-3.1661,-3.1661,-3.1661,-3.1661,-3.1661,-3.1661,-3.1661,-3.1661,-3.1661,-3.1661,-3.1661,-3.1661,-3.1661,-3.1661,-3.1661,-3.1661,-3.1661,-3.1661,-3.1661,-3.1661,-3.1661,0.0,-3.0484,-2.9607,-3.0247,-3.0016,-2.9808,-3.0247,0.0,-3.0633,-3.1472,0.0,0.0,0.0,0.0,0.0,0.0,0.0,0.0,-3.1122,-3.1559,-3.2113,-3.255,-3.2636,-3.281,-3.3068,-3.3068,-3.2909,-3.2487,-3.24,-3.2213,-3.1749,-3.1661,-3.1661,-3.1661,-3.1661,-3.1661,-3.1661,-3.1661,-3.1661,-3.1661,-3.0633,-2.9704,-2.868,-2.7652,-2.6638,-2.5742,-2.5742,-2.5742,-2.5742,-2.5742,-2.5742,-2.5742,-2.5742,-2.5742,-2.5742,-2.5742,-2.5742,-2.5742,-2.5742,-2.5742,-2.5742,-2.5742,-2.5742,-2.5742,-2.5742,-2.5742,-2.5742,-2.5742,-2.5742,-2.5742,-2.5742,-2.5742,-2.6004,-2.7105,-2.7274,-2.7558,-2.8773,-2.9612,-3.026,-3.0351,-3.1104,-3.1661,-3.1661,-3.1661,-3.1661,-3.1661,-3.1661,-3.1661,-3.1661,-3.1661,-3.1661,-3.1661,-3.1661,-3.1661,-3.1661,-3.1661,-3.1661,-3.1661,-3.1661,-3.1661,-3.1661,-3.1661,-3.1661,-3.1661,-3.1661,-3.1661,-3.1661,-3.1661,-3.1661,-3.1661,-3.1661,-3.1661,0.0,0.0,-2.912,-2.9973,-2.9954,-2.993,-3.0449,-3.0655,-3.0826,-3.1512,0.0,0.0,0.0,0.0,0.0,0.0,-3.1517,0.0,0.0,0.0,-3.1937,0.0,0.0,0.0,-3.3068,-3.2982,-3.2723,-3.2388,-3.2213,-3.2025,-3.1749,-3.1661,-3.1661,-3.1661,-3.1661,-3.1661,-3.1661,-3.1661,-3.1661,-3.1661,-3.0068,-2.9143,-2.868,-2.702,-2.61,-2.5742,-2.5742,-2.5742,-2.5742,-2.5742,-2.5742,-2.5742,-2.5742,-2.5742,-2.5742,-2.5742,-2.5742,-2.5742,-2.5742,-2.5742,-2.5742,-2.5742,-2.5742,-2.5742,-2.5742,-2.5742,-2.5742,-2.5742,-2.5742,-2.5742,-2.5742,-2.5742,-2.5917,-2.6914,-2.6733,-2.6744,-2.8402,-2.8577,-2.8588,-2.9235,-2.9704,-3.017,-3.0734,-3.1294,-3.1472,-3.0913,-3.1294,-3.1661,-3.1661,-3.1661,-3.1661,-3.1661,-3.1661,-3.1661,-3.1661,-3.1661,-3.1661,-3.1661,-3.1661,-3.1661,-3.1661,-3.1661,-3.1661,-3.1661,-3.1661,-3.1661,-3.1661,-3.1661,-3.1661,-3.1661,-3.1661,-3.1661,-2.9125,0.0,0.0,-2.9869,-2.9977,-3.0013,-3.0543,-3.0663,-3.0771,-3.1156,-3.1348,0.0,0.0,0.0,0.0,0.0,0.0,-3.1701,0.0,-3.1665,0.0,0.0,0.0,0.0,0.0,-3.2723,-3.2562,-3.23,-3.2125,-3.1937,-3.1749,-3.1661,-3.1661,-3.1661,-3.1661,-3.1661,-3.1661,-3.1661,-3.1661,-3.1661,-2.9977,-2.8958,-2.868,-2.6935,-2.5917,-2.5742,-2.5742,-2.5742,-2.5742,-2.5742,-2.5742,-2.5742,-2.5742,-2.5742,-2.5742,-2.5742,-2.5742,-2.5742,-2.5742,-2.5742,-2.5742,-2.5742,-2.5742,-2.5742,-2.5742,-2.5742,-2.5742,-2.5742,-2.5742,-2.5742,-2.5742,-2.5742,-2.5917,-2.6648,-2.6187,-2.61,-2.7579,-2.7746,-2.784,-2.8588,-2.9143,-2.9704,-3.017,-3.0824,-3.1104,-3.0633,-3.1193,-3.1661,-3.1661,-3.1661,-3.1661,-3.1661,-3.1661,-3.1661,-3.1661,-3.1661,-3.1661,-3.1661,-3.1661,-3.1661,-3.1661,-3.1661,-3.1661,-3.1661,-3.1661,-3.1661,-3.1661,-3.1661,-3.1661,-3.1661,-3.1661,-3.1661,0.0,0.0,0.0,-2.9953,-2.9701,-2.946,-2.9989,-3.011,-3.0122,-3.0134,-3.0543,-3.0903,-3.0903,0.0,0.0,0.0,0.0,0.0,0.0,0.0,0.0,0.0,0.0,0.0,0.0,-3.2388,-3.23,-3.2038,-3.2038,-3.1937,-3.1749,-3.1661,-3.1661,-3.1661,-3.1661,-3.1661,-3.1661,-3.1661,-3.1661,-3.1661,-3.0633,-2.9612,-2.8669,-2.7652,-2.6648,-2.5742,-2.5742,-2.5742,-2.5742,-2.5742,-2.5742,-2.5742,-2.5742,-2.5742,-2.5742,-2.5742,-2.5742,-2.5742,-2.5742,-2.5742,-2.5742,-2.5742,-2.5742,-2.5742,-2.5742,-2.5742,-2.5742,-2.5742,-2.5742,-2.5742,-2.5742,-2.5742,-2.5732,-2.5732,-2.5732,-2.5742,-2.583,-2.7305,-2.868,-2.8669,-3.026,-3.1282,-3.0351,-3.026,-3.0543,-3.1484,-3.1661,-3.1661,-3.1661,-3.1661,-3.1661,-3.1661,-3.1661,-3.1661,-3.1661,-3.1661,-3.1661,-3.1661,-3.1661,-3.1661,-3.1661,-3.1661,-3.1661,-3.1661,-3.1661,-3.1661,-3.1661,-3.1661,-3.1661,-3.1661,-3.1661,-3.1661,-2.9136,-2.8919,-2.8823,-2.9003,-2.8907,-2.8919,-2.9448,-2.9569,-2.9665,-3.0013,-3.023,-3.035,-3.035,0.0,0.0,0.0,0.0,0.0,0.0,0.0,0.0,0.0,0.0,0.0,0.0,0.0,-3.2125,-3.2038,-3.1849,-3.1749,-3.1661,-3.1661,-3.1661,-3.1661,-3.1661,-3.1661,-3.1661,-3.1661,-3.1383,-3.0722,-2.9704,-2.868,-2.7652,-2.6648,-2.6004,-2.5742,-2.5742,-2.5742,-2.5742,-2.5742,-2.5742,-2.5742,-2.5742,-2.5742,-2.5742,-2.5742,-2.5742,-2.5742,-2.5742,-2.5742,-2.5742,-2.5742,-2.5742,-2.5742,-2.5742,-2.5742,-2.5742,-2.5742,-2.5742,-2.5742,-2.5742,-2.5742,-2.5742,-2.5742,-2.5742,-2.5917,-2.6552,-2.72,-2.7934,-2.8588,-2.9235,-2.9795,-3.017,-3.017,-3.0351,-3.0633,-3.1282,-3.1661,-3.1661,-3.1661,-3.1661,-3.1661,-3.1661,-3.1661,-3.1661,-3.1661,-3.1661,-3.1661,-3.1661,-3.1661,-3.1661,-3.1661,-3.1661,-3.1661,-3.1661,-3.1661,-3.1661,-3.1661,-3.1661,-3.1661,-3.1661,-3.1661,-2.8607,-2.851,-2.851,-2.851,-2.851,-2.8595,-2.8943,-2.9015,-2.9112,-2.946,-2.9677,-2.9809,-2.9809,0.0,0.0,0.0,0.0,0.0,0.0,-3.1541,0.0,0.0,0.0,0.0,0.0,-3.2025,-3.1849,-3.1849,-3.1749,-3.1661,-3.1661,-3.1661,-3.1661,-3.1661,-3.1661,-3.1661,-3.1661,-3.1661,-3.1193,-3.017,-2.9143,-2.8215,-2.7189,-2.6187,-2.5742,-2.5742,-2.5742,-2.5742,-2.5742,-2.5742,-2.5742,-2.5742,-2.5742,-2.5742,-2.5742,-2.5742,-2.5742,-2.5742,-2.5742,-2.5742,-2.5742,-2.5742,-2.5742,-2.5742,-2.5742,-2.5742,-2.5742,-2.5742,-2.5742,-2.5742,-2.5742,-2.5742,-2.5742,-2.5742,-2.5742,-2.5917,-2.6552,-2.6914,-2.7369,-2.8028,-2.8773,-2.9418,-3.0068,-3.0543,-3.0722,-3.0722,-3.1282,-3.1661,-3.1661,-3.1661,-3.1661,-3.1661,-3.1661,-3.1661,-3.1661,-3.1661,-3.1661,-3.1661,-3.1661,-3.1661,-3.1661,-3.1661,-3.1757,-3.1961,-3.1769,-3.1757,-3.1961,-3.1757,-3.1661,-3.1661,-3.1661,-3.1661]}]]